     2.11           OBSERVATION DATA    G (GPS)             RINEX VERSION / TYPE
teqc 2010Oct21 OPUS Account 20111025 14:43:06UTC            PGM / RUN BY / DATE
K 1521                                                      MARKER NAME
1123                                                        MARKER NUMBER
CSMIDDLETON NGS                                             OBSERVER / AGENCY
4624K01647 TRIMBLE NETR5 4.41                               REC # / TYPE / VERS
12694052 TRM41249.00 NONE                                   ANT # / TYPE
  -740019.0992 -5463802.2989  3195714.5259                  APPROX POSITION XYZ
        2.0040        0.0000        0.0000                  ANTENNA: DELTA H/E/N
     1     1                                                WAVELENGTH FACT L1/2
     5    L1    L2    C1    P1    P2                        # / TYPES OF OBSERV
    15                                                      LEAP SECONDS
  2011     7    24     0     0    0.0000000     GPS         TIME OF FIRST OBS
                                                            END OF HEADER
 11  7 24  0  0  0.0000000  0  9G20G04G27G08G28G17G09G02G10
 126294978.88546  98411704.43243  24033132.8054                   24033142.0394
 105525799.97447  82228044.59146  20080863.9064                   20080871.6524
 118408760.53147  92266593.54644  22532432.9694                   22532441.6484
 131127906.01015                  24952825.734
 113199012.22248  88206956.04545  21541017.7734                   21541025.1024
 111316902.854 7  86740554.913 7  21182878.383
 117785635.88447  91781052.56944  22413857.7974                   22413866.8054
 120242864.00047  93695823.80144  22881440.0784                   22881446.5984
 127102787.32046  99041215.26143  24186849.3914                   24186860.8794
 11  7 24  0  0 30.0000000  0  8G20G04G27G28G17G09G02G10
 126312184.12346  98425111.11443  24036407.0864                   24036415.8674
 105491264.78048  82201134.07346  20074291.6724                   20074300.2344
 118382150.71547  92245858.60244  22527369.2894                   22527377.6374
 113237764.40648  88237152.51345  21548392.4614                   21548399.5634
 111344713.747 7  86762225.746 7  21188170.586
 117737547.87347  91743581.39245  22404706.9694                   22404716.0084
 120153953.79146  93626543.19344  22864520.2034                   22864527.2974
 127009056.62246  98968178.65943  24169013.6414                   24169024.5124
 11  7 24  0  1  0.0000000  0  8G20G04G27G28G17G09G02G10
 126329894.31746  98438911.26843  24039777.2194                   24039785.7114
 105457298.26847  82174666.69746  20067828.5004                   20067836.6954
 118356024.15647  92225500.25244  22522397.1024                   22522405.3984
 113276879.07848  88267631.46545  21555835.2194                   21555842.8134
 111372639.189 7  86783985.837 7  21193484.430
 117690058.32047  91706576.54544  22395670.8204                   22395679.1564
 120065282.69947  93557448.94144  22847647.1564                   22847654.0274
 126915266.67946  98895095.90443  24151165.2894                   24151177.0944
 11  7 24  0  1 30.0000000  0  8G20G04G27G28G17G09G02G10
 126348108.83546  98453104.44643  24043243.0554                   24043251.2854
 105423899.94747  82148642.06546  20061472.9304                   20061480.8014
 118330380.58647  92205518.22344  22517517.2114                   22517526.1024
 113316356.21548  88298392.85345  21563347.4454                   21563354.7194
 111400676.963 7  86805833.448 7  21198819.711
 117643168.24347  91670038.83244  22386747.1484                   22386756.0554
 119976851.77247  93488541.78445  22830818.6254                   22830826.7544
 126821419.70446  98821968.68743  24133305.0164                   24133318.3364
 11  7 24  0  2  0.0000000  0  8G20G04G27G28G17G09G02G10
 126366827.85646  98467690.68943  24046804.7194                   24046814.4844
 105391070.64347  82123060.81746  20055225.7114                   20055233.4884
 118305220.79047  92185913.17944  22512729.8134                   22512738.5434
 113356196.52148  88329437.21345  21570928.9304                   21570936.3754
 111428826.758 8  86827768.365 7  21204176.586
 117596879.19647  91633969.46244  22377937.9384                   22377947.7854
 119888662.68447  93419823.12045  22814036.9534                   22814044.2154
 126727518.93945  98748799.53943  24115435.8284                   24115449.2774
 11  7 24  0  2 30.0000000  0  8G20G04G27G28G17G09G02G10
 126386051.41146  98482670.07643  24050463.3594                   24050472.3554
 105358810.69247  82097923.22246  20049086.7974                   20049094.5824
 118280545.25547  92166685.43644  22508034.5634                   22508042.5554
 113396400.01248  88360764.58045  21578579.8134                   21578586.2384
 111457088.099 7  86849790.200 7  21209554.641
 117551192.60647  91598369.52844  22369244.3674                   22369253.3204
 119800717.26847  93351294.31945  22797301.5004                   22797308.9414
 126633566.73346  98675590.34243  24097558.5704                   24097570.7894
 11  7 24  0  3  0.0000000  0  8G20G04G27G28G17G09G02G10
 126405779.56246  98498042.70643  24054217.1804                   24054226.1954
 105327120.79848  82073229.82646  20043056.4064                   20043064.0204
 118256354.74847  92147835.69344  22503431.1484                   22503439.8404
 113436967.62548  88392375.69845  21586299.2114                   21586306.2734
 111485460.375 8  86871898.465 7  21214953.469
 117506110.33847  91563240.51744  22360666.3444                   22360674.1054
 119713017.20446  93282956.70145  22780612.3444                   22780620.6914
 126539566.41346  98602343.49242  24079671.0004                   24079682.5944
 11  7 24  0  3 30.0000000  0  8G20G04G27G28G17G09G02G10
 126426012.13646  98513808.37143  24058067.4454                   24058076.2504
 105296001.01448  82048980.67946  20037134.6884                   20037141.7114
 118232649.50047  92129364.05544  22498919.7034                   22498928.3954
 113477899.26948  88424270.47045  21594088.1884                   21594095.1454
 111513942.672 7  86894092.455 7  21220373.578
 117461633.34547  91528583.11244  22352202.2194                   22352210.9694
 119625563.61447  93214811.13445  22763971.2274                   22763978.6414
 126445520.50045  98529061.23742  24061773.8754                   24061785.5164
 11  7 24  0  4  0.0000000  0  8G20G04G27G28G17G09G02G10
 126446749.62246  98529967.44143  24062014.1884                   24062022.5864
 105265452.28247  82025176.49346  20031321.2114                   20031328.5474
 118209430.35847  92111271.19344  22494501.9454                   22494509.6294
 113519195.94748  88456449.67845  21601946.8834                   21601953.7034
 111542534.860 7  86916372.095 7  21225814.563
 117417763.57147  91494398.88244  22343854.5474                   22343862.7114
 119538358.79047  93146859.38845  22747376.8364                   22747383.3204
 126351432.41846  98455746.11542  24043869.8054                   24043881.1454
 11  7 24  0  4 30.0000000  0  8G20G04G27G28G17G09G02G10
 126467991.84046  98546519.80243  24066056.5164                   24066064.7894
 105235474.76048  82001817.41746  20025616.9924                   20025624.3444
 118186697.65847  92093557.38944  22490175.4304                   22490183.9654
 113560857.77248  88488913.43145  21609874.7734                   21609881.9104
 111571236.253 7  86938736.811 7  21231276.531
 117374502.22747  91460688.77044  22335622.1254                   22335630.0864
 119451404.01147  93079102.52944  22730829.4144                   22730835.9844
 126257304.84246  98382400.16143  24025958.1804                   24025968.4304
 11  7 24  0  5  0.0000000  0  8G20G04G27G28G17G09G02G10
 126489738.63446  98563465.41643  24070194.1724                   24070202.8094
 105206068.97948  81978903.84446  20020021.1804                   20020028.7154
 118164452.32947  92076223.35445  22485942.8364                   22485950.9654
 113602885.13048  88521661.99845  21617872.1414                   21617879.7114
 111600046.231 7  86961186.130 7  21236758.781
 117331850.94547  91427454.09544  22327505.0164                   22327514.2814
 119364700.99547  93011541.83644  22714329.3364                   22714337.4144
 126163140.45346  98309025.49443  24008039.1414                   24008049.5274
 11  7 24  0  5 30.0000000  0  8G20G04G27G28G17G09G02G10
 126511990.19246  98580804.30043  24074428.0234                   24074437.3594
 105177235.41248  81956436.14446  20014533.7424                   20014541.7974
 118142694.67947  92059269.31844  22481802.3524                   22481810.4414
 113645278.63848  88554695.87045  21625939.4694                   21625946.5864
 111628964.653 8  86983719.963 7  21242261.781
 117289810.83847  91394695.59844  22319504.8594                   22319514.1994
 119278251.30747  92944178.53245  22697879.1954                   22697885.8244
 126068942.49646  98235624.74243  23990111.8914                   23990125.0704
 11  7 24  0  6  0.0000000  0  8G20G04G27G28G17G09G02G10
 126534745.95146  98598535.98943  24078758.6804                   24078767.6094
 105148973.62048  81934413.99646  20009156.2424                   20009163.7544
 118121424.67347  92042695.28244  22477755.0554                   22477763.1134
 113688038.18148  88588014.96645  21634076.2344                   21634083.3404
 111657990.253 7  87006337.308 7  21247784.930
 117248382.70647  91362414.01144  22311621.5234                   22311630.4454
 119192056.12947  92877013.56245  22681476.8834                   22681484.0394
 125974713.59546  98162199.82643  23972181.6564                   23972193.6564
 11  7 24  0  6 30.0000000  0  8G20G04G27G28G17G09G02G10
 126558006.28846  98616660.94643  24083185.4844                   24083194.4024
 105121284.94148  81912838.43246  20003887.3204                   20003895.0784
 118100643.66147  92026502.27345  22473800.1174                   22473809.2384
 113731164.47148  88621619.83245  21642282.6884                   21642290.6524
 111687123.268 8  87029038.349 7  21253329.039
 117207568.84947  91330611.04344  22303855.1414                   22303863.9964
 119106117.67647  92810048.63545  22665122.9064                   22665130.5434
 125880457.35246  98088753.59443  23954244.3834                   23954256.4614
 11  7 24  0  7  0.0000000  0  8G20G04G27G28G17G09G02G10
 126581770.99646  98635178.90343  24087707.2664                   24087716.9384
 105094169.06048  81891709.20146  19998727.1804                   19998735.1134
 118080351.41747  92010690.15044  22469938.0394                   22469947.7624
 113774658.11548  88655510.95145  21650559.5164                   21650567.3954
 111716362.601 8  87051822.245 7  21258892.914
 117167369.98247  91299287.29244  22296205.7584                   22296214.2974
 119020437.24047  92743284.74445  22648819.3134                   22648825.8284
 125786176.33946  98015288.16243  23936302.8054                   23936315.3874
 11  7 24  0  7 30.0000000  0  8G20G04G27G28G17G09G02G10
 126606039.54746  98654089.50343  24092326.1414                   24092334.2894
 105067626.06648  81871026.36446  19993676.0234                   19993683.7624
 118060547.99347  91995258.85244  22466169.7274                   22466178.7664
 113818518.97548  88689688.22945  21658906.3204                   21658913.7894
 111745707.332 8  87074688.262 7  21264477.000
 117127787.03347  91268443.47344  22288672.9844                   22288681.7154
 118935016.04447  92676722.91345  22632563.2814                   22632571.2384
 125691873.10846  97941805.32743  23918358.5554                   23918368.9804
 11  7 24  0  8  0.0000000  0  8G20G04G27G28G17G09G02G10
 126630812.50546  98673393.14443  24097040.0634                   24097047.2814
 105041656.80348  81850790.57746  19988734.2034                   19988742.3244
 118041234.34947  91980209.31044  22462493.7584                   22462503.9924
 113862747.57748  88724152.05345  21667322.7974                   21667330.0554
 111775157.758 8  87097636.623 7  21270081.273
 117088821.98947  91238081.13744  22281258.8364                   22281266.9384
 118849856.20347  92610364.72745  22616358.1724                   22616365.3054
 125597551.24146  97868307.94743  23900408.2974                   23900420.2344
 11  7 24  0  8 30.0000000  0  9G20G04G27G08G28G17G09G02G10
 126656088.95946  98693089.07943  24101849.5864                   24101858.2734
 105016260.85948  81831001.55346  19983901.6564                   19983909.6604
 118022410.55947  91965541.42944  22458912.0234                   22458921.1024
                                  25341312.563
 113907343.82247  88758902.34845  21675808.8284                   21675816.4574
 111804712.835 8  87120666.542 7  21275705.469
 117050475.21447  91208200.59944  22273960.3284                   22273969.9614
 118764958.97247  92544211.13745  22600202.5164                   22600209.6524
 125503212.97546  97794797.84043  23882456.6094                   23882468.0784
 11  7 24  0  9  0.0000000  0  8G20G04G27G28G17G09G02G10
 126681869.67846  98713177.92943  24106756.1564                   24106764.0784
 104991439.44048  81811660.20046  19979178.5164                   19979186.2814
 118004077.70847  91951256.06644  22455424.6884                   22455432.5704
 113952308.85548  88793940.00045  21684365.6564                   21684372.9574
 111834373.121 8  87143778.440 7  21281349.445
 117012748.98947  91178803.54644  22266781.8054                   22266790.9264
 118680326.06947  92478263.51245  22584097.1884                   22584104.6844
 125408862.35346  97721278.06443  23864501.5164                   23864513.6024
 11  7 24  0  9 30.0000000  0  8G20G04G27G28G17G09G02G10
 126708153.99646  98733659.20143  24111758.1334                   24111766.4804
 104967192.28048  81792766.33046  19974564.0084                   19974571.7544
 117986235.83347  91937353.30844  22452028.9064                   22452037.9734
 113997642.79248  88829265.14145  21692992.1334                   21692999.8714
 111864137.586 8  87166971.510 7  21287013.688
 116975643.92347  91149890.55544  22259720.6644                   22259729.8324
 118595959.39647  92412523.33045  22568042.6954                   22568050.2154
 125314502.23346  97647750.91943  23846545.6254                   23846557.2814
 11  7 24  0 10  0.0000000  0  8G20G04G27G28G17G09G02G10
 126734941.35346  98754532.54243  24116855.2344                   24116863.4534
 104943519.26348  81774319.84046  19970059.6334                   19970066.7034
 117968884.77747  91923833.01944  22448727.8524                   22448736.1094
 114043345.68248  88864877.76645  21701689.0944                   21701696.6254
 111894005.227 8  87190244.957 7  21292697.430
 116939160.95347  91121462.26044  22252778.7504                   22252787.4414
 118511859.87647  92346991.35845  22552039.1414                   22552046.4304
 125220135.30046  97574218.43043  23828588.3444                   23828600.7974
 11  7 24  0 10 30.0000000  0  8G20G04G27G28G17G09G02G10
 126762231.70946  98775797.74943  24122048.1414                   24122056.2664
 104920420.54348  81756320.84246  19965663.3284                   19965671.7114
 117952024.90247  91910695.45044  22445518.7114                   22445528.0084
 114089417.62747  88900777.95345  21710456.2974                   21710464.0314
 111923975.824 8  87213598.662 7  21298400.438
 116903301.21847  91093519.62744  22245954.0704                   22245962.9774
 118428028.95447  92281668.63645  22536086.4614                   22536094.4964
 125125764.42646  97500682.86843  23810629.7584                   23810642.2584
 11  7 24  0 11  0.0000000  0  8G20G04G27G28G17G09G02G10
 126790024.64246  98797454.55543  24127336.6564                   24127345.4574
 104897895.95848  81738769.22946  19961377.8054                   19961385.6914
 117935656.44547  91897940.82545  22442404.3674                   22442412.9884
 114135858.95748  88936965.99445  21719293.4304                   21719301.5234
 111954048.772 8  87237032.113 7  21304123.070
 116868065.63047  91066063.30544  22239250.1094                   22239258.3524
 118344468.19247  92216556.45845  22520185.7344                   22520192.6454
 125031392.61946  97427146.58543  23792672.0004                   23792682.7704
 11  7 24  0 11 30.0000000  0  8G20G04G27G28G17G09G02G10
 126818319.65845  98819502.61543  24132720.3284                   24132729.4574
 104875945.99648  81721665.38346  19957200.3524                   19957208.6914
 117919779.79547  91885569.41745  22439382.8444                   22439391.4804
 114182669.73247  88973441.88645  21728202.1804                   21728209.6484
 111984223.863 8  87260545.164 7  21309864.945
 116833455.33447  91039094.22044  22232663.3524                   22232672.9224
 118261179.30047  92151656.08745  22504335.7034                   22504342.9534
 124937023.53946  97353612.42543  23774713.5394                   23774724.2584
 11  7 24  0 12  0.0000000  0  8G20G04G27G28G17G09G02G10
 126847116.51046  98841941.71743  24138201.8984                   24138209.4534
 104854570.41548  81705009.10446  19953133.0394                   19953140.7814
 117904395.05647  91873581.30345  22436456.0234                   22436464.2504
 114229849.99548  89010205.71345  21737179.7974                   21737187.3714
 112014500.328 7  87284137.198 7  21315626.547
 116799471.10547  91012612.99844  22226196.9224                   22226205.0274
 118178163.46047  92086968.52345  22488538.2274                   22488545.4964
 124842659.64246  97280082.23643  23756757.9304                   23756767.2624
 11  7 24  0 12 30.0000000  0  8G20G04G27G28G17G09G02G10
 126876414.84546  98864771.61843  24143777.3444                   24143784.7114
 104833769.04248  81688800.26946  19949174.6024                   19949182.3954
 117889502.06447  91861976.38445  22433621.2274                   22433630.2814
 114277400.16847  89047257.74845  21746228.4454                   21746235.9654
 112044877.533 7  87307807.744 7  21321406.992
 116766114.10447  90986620.51944  22219848.4694                   22219857.5434
 118095422.05947  92022494.81045  22472792.5234                   22472800.7154
 124748303.66146  97206558.22043  23738802.1254                   23738812.0314
 11  7 24  0 13  0.0000000  0  8G20G04G27G28G17G09G02G10
 126906214.45846  98887992.14743  24149446.2034                   24149454.8754
 104813542.32348  81673039.20246  19945325.3444                   19945332.8554
 117875101.41947  91850755.06545  22430880.9844                   22430890.0204
 114325320.63348  89084598.36245  21755347.7114                   21755354.9774
 112075355.585 7  87331556.854 7  21327206.938
 116733385.40246  90961117.57644  22213621.0314                   22213629.8054
 118012957.13647  91958236.49445  22457100.7894                   22457107.9184
 124653958.99346  97133043.12243  23720848.1414                   23720859.3054
 11  7 24  0 13 30.0000000  0  8G20G04G27G28G17G09G02G10
 126936514.97556  98911602.94652  24155213.2344                   24155221.4574
 104793890.09248  81657725.78346  19941585.6094                   19941593.5274
 117861193.10547  91839917.42445  22428234.2194                   22428243.1094
 114373611.31248  89122227.42945  21764536.6484                   21764544.6134
 112105933.650 8  87355383.912 7  21333025.891
 116701285.77246  90936104.85044  22207512.6094                   22207521.3954
 117930769.58347  91894194.34045  22441460.3594                   22441467.9384
 124559628.86247  97059539.28743  23702897.8914                   23702908.7074
 11  7 24  0 14  0.0000000  0  8G20G04G27G28G17G09G02G10
 126967315.91246  98935603.74843  24161074.1094                   24161083.1844
 104774812.63348  81642860.25246  19937955.5554                   19937963.0594
 117847777.55547  91829463.73945  22425681.4774                   22425690.5314
 114422272.46047  89160145.17045  21773797.1024                   21773804.6914
 112136611.981 8  87379289.108 7  21338863.398
 116669816.31846  90911583.16743  22201524.6644                   22201532.5864
 117848861.29247  91830369.76545  22425874.2274                   22425881.5234
 124465316.64447  96986049.33643  23684950.9304                   23684960.8874
 11  7 24  0 14 30.0000000  0  8G20G04G27G28G17G09G02G10
 126998616.67346  98959993.96543  24167031.1804                   24167038.5634
 104756309.28848  81628442.07446  19934434.4614                   19934442.5394
 117834854.74047  91819394.01745  22423222.3204                   22423231.0164
 114471304.02147  89198351.54945  21783128.0314                   21783134.4104
 112167389.697 8  87403271.741 7  21344720.414
 116638977.57546  90887552.95644  22195655.9454                   22195663.8134
 117767233.44447  91766763.71245  22410340.4844                   22410347.5124
 124371024.75546  96912575.31443  23667007.1564                   23667016.9024
 11  7 24  0 15  0.0000000  0  8G20G04G27G28G17G09G02G10
 127030416.69946  98984773.22543  24173082.0164                   24173090.2504
 104738380.45448  81614471.56846  19931022.3834                   19931030.4574
 117822424.75047  91809708.28745  22420856.9924                   22420865.7344
 114520706.40247  89236846.88945  21792528.2664                   21792535.8834
 112198266.384 8  87427331.486 7  21350596.156
 116608770.73946  90864015.16443  22189908.0394                   22189916.5164
 117685887.55647  91703377.37545  22394861.2584                   22394867.9304
 124276756.76446  96839119.94843  23649068.8914                   23649079.5864
 11  7 24  0 15 30.0000000  0  8G20G04G27G28G17G09G02G10
 127062715.76346  99009941.36042  24179227.8834                   24179236.4024
 104721025.48448  81600948.23146  19927720.3284                   19927727.4494
 117810487.42647  91800406.49645  22418585.1484                   22418593.4414
 114570479.55748  89275631.13145  21801999.9844                   21802007.3954
 112229241.565 8  87451468.001 7  21356490.500
 116579196.36847  90840970.19343  22184279.9534                   22184288.3524
 117604824.92547  91640211.78545  22379435.5554                   22379441.6724
 124182515.25847  96765685.17244  23631135.0394                   23631145.0704
 11  7 24  0 16  0.0000000  0  8G20G04G27G28G17G09G02G10
 127095513.42945  99035497.97142  24185468.9694                   24185477.2034
 104704244.88848  81587872.45546  19924526.9224                   19924534.3674
 117799043.36647  91791489.03145  22416407.8054                   22416416.1294
 114620624.18647  89314704.82845  21811542.4924                   21811549.7194
 112260315.123 8  87475681.151 7  21362404.086
 116550255.57247  90818418.95543  22178773.2584                   22178781.0664
 117524047.45247  91577268.39845  22364064.2114                   22364070.7194
 124088303.92147  96692273.93044  23613207.8594                   23613217.8754
 11  7 24  0 16 30.0000000  0  8G20G04G27G28G17G09G02G10
 127128808.73846  99061442.42542  24191804.5004                   24191813.8674
 104688037.75548  81575243.52846  19921442.5634                   19921449.8634
 117788091.84847  91782955.38545  22414324.1724                   22414332.0124
 114671139.14048  89354067.10745  21821154.5474                   21821161.9534
 112291486.404 8  87499970.458 7  21368335.133
 116521948.38247  90796361.44643  22173385.8284                   22173393.8714
 117443555.78547  91514547.68445  22348746.9694                   22348754.0354
 123994125.56146  96618888.34143  23595285.6094                   23595295.5204
 11  7 24  0 17  0.0000000  0  8G20G04G27G28G17G09G02G10
 127162601.48346  99087774.45442  24198236.2974                   24198244.1914
 104672404.15248  81563061.52046  19918467.5004                   19918475.2584
 117777633.23747  91774805.83445  22412333.6334                   22412342.2304
 114722025.25648  89393718.59845  21830837.8594                   21830845.3404
 112322755.332 8  87524335.865 7  21374285.883
 116494275.82346  90774798.47343  22168120.2194                   22168128.5664
 117363351.38547  91452050.86345  22333484.1724                   22333491.4414
 123899983.18446  96545530.84543  23577369.1254                   23577380.5984
 11  7 24  0 17 30.0000000  0  8G20G04G27G28G17G09G02G10
 127196890.96546  99114493.59043  24204760.7664                   24204768.7194
 104657344.13148  81551326.46646  19915601.8834                   19915609.4774
 117767667.73647  91767040.49945  22410437.3594                   22410445.7464
 114773282.50548  89433659.27845  21840591.8134                   21840599.1644
 112354121.041 8  87548776.656 7  21380254.375
 116467238.66946  90753730.59543  22162974.2504                   22162982.6954
 117283436.17447  91389779.34245  22318277.0164                   22318283.8404
 123805880.22446  96472204.05743  23559463.0314                   23559474.0784
 11  7 24  0 18  0.0000000  0  8G20G04G27G28G17G09G02G10
 127231676.56946  99141599.27842  24211379.3984                   24211388.3834
 104642857.22848  81540037.99146  19912845.0704                   19912852.6484
 117758195.13247  91759659.26045  22408634.2424                   22408642.7034
 114824910.91148  89473889.20145  21850416.3754                   21850423.8484
 112385583.635 8  87573292.958 7  21386241.602
 116440837.55847  90733158.38743  22157950.5784                   22157958.7034
 117203811.33248  91327734.10345  22303125.1564                   22303131.0234
 123711819.37746  96398910.10743  23541563.6094                   23541574.0984
 11  7 24  0 18 30.0000000  0  9G12G20G04G27G28G17G09G02G10
 131489872.39214                  25021676.531
 127266957.78346  99169091.15043  24218094.3754                   24218102.3014
 104628943.26348  81529195.95546  19910197.4144                   19910205.1174
 117749215.23747  91752661.95745  22406925.2034                   22406933.9614
 114876910.41848  89514408.27545  21860312.1804                   21860319.3484
 112417142.478 8  87597884.251 7  21392246.711
 116415073.03946  90713082.18943  22153048.0554                   22153055.4144
 117124478.02248  91265916.01445  22288027.8834                   22288034.6954
 123617804.09647  96325651.63443  23523673.0394                   23523683.0394
 11  7 24  0 19  0.0000000  0  8G20G04G27G28G17G09G02G10
 127302734.05646  99196968.74843  24224901.4304                   24224911.2894
 104615602.34148  81518800.44446  19907658.6334                   19907666.3674
 117740728.25347  91746048.76145  22405310.6174                   22405318.7544
 114929281.33647  89555216.77345  21870278.0394                   21870284.8954
 112448797.654 8  87622550.633 7  21398270.563
 116389945.97746  90693502.63542  22148267.6644                   22148273.4344
 117045438.00547  91204326.48645  22272986.7894                   22272993.7274
 123523837.93446  96252431.40843  23505791.2894                   23505801.7074
 11  7 24  0 19 30.0000000  0  8G20G04G27G28G17G09G02G10
 127339004.47346  99225231.38043  24231803.5004                   24231813.1804
 104602833.34748  81508850.59646  19905229.1644                   19905236.4494
 117732733.72647  91739819.25245  22403789.4064                   22403797.3484
 114982023.18647  89596314.32245  21880314.2034                   21880321.4224
 112480548.307 8  87647291.394 7  21404313.328
 116365456.51746  90674419.96143  22143605.0704                   22143613.7344
 116966692.27548  91142966.25145  22258002.2814                   22258009.3984
 123429923.26346  96179251.31144  23487919.8754                   23487930.2114
 11  7 24  0 20  0.0000000  0  8G20G04G27G28G17G09G02G10
 127375768.58546  99253878.77643  24238800.3444                   24238808.1054
 104590636.40248  81499346.49446  19902907.6174                   19902915.3554
 117725231.67647  91733973.49945  22402361.4384                   22402370.5004
 115035136.34548  89637701.17245  21890421.4694                   21890428.7154
 112512394.307 8  87672106.452 7  21410372.578
 116341605.43745  90655834.70842  22139066.0314                   22139076.1804
 116888242.16647  91081836.35945  22243073.9924                   22243080.4184
 123336063.71746  96106114.12144  23470059.3284                   23470070.4304
 11  7 24  0 20 30.0000000  0  9G12G20G04G27G28G17G09G02G10
 131105177.87914 102159857.01215  24948476.055
 127413025.36346  99282910.08743  24245890.4304                   24245896.9494
 104579011.07448  81490287.83146  19900695.6564                   19900702.8984
 117718221.94347  91728511.35745  22401027.9384                   22401036.6094
 115088620.47047  89679377.08245  21900598.8284                   21900606.2114
 112544335.397 8  87696995.567 7  21416451.352
 116318393.07846  90637747.14942  22134649.4774                   22134659.2464
 116810088.88948  91020937.76745  22228201.4224                   22228207.8754
 123242262.14046  96033022.13243  23452209.9844                   23452219.6844
 11  7 24  0 21  0.0000000  0  8G20G04G27G28G17G09G02G10
 127450773.84046  99312324.48043  24253073.0944                   24253081.7704
 104567956.40048  81481673.81646  19898592.0004                   19898599.3674
 117711704.13147  91723432.51245  22399787.3914                   22399796.2074
 115142475.17247  89721341.75945  21910846.7274                   21910854.7384
 112576370.850 8  87721958.253 7  21422547.141
 116295819.83046  90620157.60943  22130355.2974                   22130363.1564
 116732233.51048  90960271.29045  22213385.8834                   22213393.0084
 123148521.67046  95959977.71343  23434370.4144                   23434381.0704
 11  7 24  0 21 30.0000000  0  8G20G04G27G28G17G09G02G10
 127489014.12046  99342122.22743  24260349.8054                   24260357.9264
 104557472.95048  81473504.91546  19896596.7664                   19896604.4184
 117705678.63647  91718737.33645  22398640.7504                   22398648.9614
 115196701.41447  89763595.95045  21921165.8364                   21921173.4804
 112608501.242 8  87746994.935 7  21428661.617
 116273886.79746  90603066.93043  22126182.0314                   22126189.5084
 116654678.31748  90899838.75645  22198627.1174                   22198634.1914
 123054846.20947  95886983.92843  23416544.6484                   23416554.8834
 11  7 24  0 22  0.0000000  0  8G20G04G27G28G17G09G02G10
 127527744.94546  99372302.01843  24267720.0634                   24267728.4574
 104547559.74048  81465780.35346  19894710.2664                   19894718.0084
 117700144.80847  91714425.24644  22397587.7194                   22397596.0664
 115251298.31647  89806138.95845  21931555.7034                   21931563.1414
 112640725.384 8  87772104.663 7  21434793.695
 116252593.69045  90586474.84943  22122130.2194                   22122139.2464
 116577423.81648  90839640.49845  22183926.9384                   22183932.3794
 122961238.14546  95814042.66143  23398731.8914                   23398741.8094
 11  7 24  0 22 30.0000000  0  8G20G04G27G28G17G09G02G10
 127566965.60646  99402863.54543  24275184.1564                   24275191.6884
 104538216.42648  81458499.86446  19892932.4064                   19892940.1024
 117695102.55747  91710496.20845  22396628.1954                   22396636.8284
 115306265.86247  89848970.77245  21942015.7894                   21942023.4534
 112673043.435 7  87797287.525 7  21440943.195
 116231941.22455  90570381.95252  22118198.5164                   22118209.5744
 116500471.48748  90779677.72245  22169283.7194                   22169289.4384
 122867700.69946  95741156.45743  23380931.9384                   23380942.3324
 11  7 24  0 23  0.0000000  0  8G20G04G27G28G17G09G02G10
 127606675.04046  99433805.97943  24282740.3054                   24282748.6644
 104529442.52147  81451663.08946  19891262.7194                   19891270.7464
 117690551.65047  91706950.04444  22395762.5084                   22395770.3444
 115361604.05347  89892091.41445  21952546.1484                   21952553.6954
 112705455.066 8  87822543.328 7  21447111.602
 116211929.533 5                  22114391.469
 116423822.51948  90719951.32345  22154697.2344                   22154703.5744
 122774237.34146  95668327.93643  23363147.2894                   23363156.8324
 11  7 24  0 23 30.0000000  0  7G20G04G27G28G17G02G10
 127646871.51046  99465127.94043  24290389.0084                   24290397.5164
 104521236.14448  81445268.53146  19889701.2814                   19889709.0514
 117686490.62647  91703785.59745  22394989.8204                   22394998.2584
 115417311.56347  89935499.81545  21963146.8984                   21963154.5514
 112737958.837 8  87847870.940 7  21453296.750
 116347477.14948  90660461.49045  22140169.4614                   22140175.6994
 122680850.28046  95595558.91143  23345374.9694                   23345385.2074
 11  7 24  0 24  0.0000000  0  8G20G04G27G28G17G09G02G10
 127687555.87846  99496830.02143  24298131.5704                   24298139.3674
 104513598.82248  81439317.38746  19888247.8134                   19888255.2194
 117682921.08547  91701004.11145  22394310.3134                   22394318.9024
 115473389.91047  89979197.22145  21973818.2894                   21973825.8014
 112770556.178 8  87873271.464 7  21459499.758
 116173844.38814                  22107144.898
 116271438.36548  90601210.53645  22125699.1254                   22125706.1804
 122587544.44846  95522853.15743  23327618.3984                   23327630.6054
 11  7 24  0 24 30.0000000  0  7G20G04G27G28G17G02G10
 127728726.97546  99528911.40343  24305965.7114                   24305973.1804
 104506529.58148  81433808.90846  19886902.4384                   19886910.1804
 117679842.12747  91698604.86945  22393724.8914                   22393732.2154
 115529838.81247  90023183.32145  21984560.2274                   21984567.6884
 112803246.437 8  87898744.405 7  21465720.367
 116195706.85648  90542199.05845  22111288.4844                   22111295.0904
 122494322.45146  95450212.73044  23309880.5704                   23309891.2234
 11  7 24  0 25  0.0000000  0  7G20G04G27G28G17G02G10
 127770383.51746  99561371.12043  24313892.8204                   24313901.2894
 104500027.55948  81428742.41846  19885665.1334                   19885672.7624
 117677253.21647  91696587.51545  22393231.8204                   22393239.9884
 115586657.83947  90067457.86445  21995372.8054                   21995379.8834
 112836029.136 8  87924289.360 7  21471958.352
 116120283.73948  90483427.84945  22096935.7424                   22096941.8674
 122401187.43146  95377640.08144  23292157.2974                   23292167.7384
 11  7 24  0 25 30.0000000  0  8G20G04G27G28G17G09G02G10
 127812524.58246  99594208.32143  24321912.9224                   24321920.7234
 104494091.94848  81424117.28646  19884535.6564                   19884543.2584
 117675153.82647  91694951.62345  22392832.2584                   22392841.0704
 115643846.53647  90112020.45645  22006255.4064                   22006262.4734
 112868903.828 8  87949905.997 7  21478214.633
 116121345.09815                  22097182.242
 116045170.13848  90424897.84345  22082642.0634                   22082647.8594
 122308142.49146  95305137.61243  23274451.6954                   23274462.1954
 11  7 24  0 26  0.0000000  0  8G20G04G27G28G17G09G02G10
 127855149.39046  99627422.50743  24330023.8524                   24330031.3984
 104488722.10247  81419933.01146  19883513.4064                   19883521.1374
 117673543.69647  91693696.93545  22392526.1954                   22392534.4534
 115701404.82447  90156871.04845  22017208.1804                   22017215.5354
 112901870.838 8  87975594.598 7  21484487.609
 116105184.04145  90471699.66252  22094106.9924                   22094113.3754
 115970367.23848  90366609.92345  22068406.6414                   22068413.0164
 122215190.67346  95232707.74144  23256762.9144                   23256773.3444
 11  7 24  0 26 30.0000000  0  8G20G04G27G28G17G09G02G10
 127898256.90746  99661012.77543  24338226.3054                   24338233.8524
 104483918.04248  81416189.60146  19882599.8204                   19882607.1644
 117672422.69747  91692823.42345  22392312.7894                   22392320.9414
 115759332.94247  90202009.80545  22028231.9454                   22028238.7544
 112934929.713 8  88001354.769 7  21490779.008
 116089665.72845  90459607.46142  22091153.0554                   22091161.8014
 115895876.67948  90308565.39945  22054232.1644                   22054237.7584
 122122335.78946  95160353.41644  23239093.7194                   23239103.3094
 11  7 24  0 27  0.0000000  0  9G12G20G04G27G28G17G09G02G10
                                  24709640.055
 127941846.22146  99694978.49343  24346521.3134                   24346528.9924
 104479678.59647  81412886.13746  19881792.9534                   19881800.2234
 117671790.24947  91692330.58845  22392192.2114                   22392200.5784
 115817630.16847  90247436.18245  22039325.0554                   22039333.3054
 112968079.886 8  88027186.052 7  21497087.219
 116074789.57145  90448015.71142  22088322.0394                   22088330.9654
 115821699.30548  90250764.91545  22040116.5944                   22040122.9414
 122029580.61446  95088076.74944  23221442.4774                   23221452.9534
 11  7 24  0 27 30.0000000  0  8G20G04G27G28G17G09G02G10
 127985916.15646  99729318.66843  24354907.7274                   24354915.9264
 104476002.93547  81410021.99846  19881093.2894                   19881100.8634
 117671645.60947  91692217.86445  22392164.8674                   22392173.4104
 115876296.19147  90293149.94345  22050488.9534                   22050496.2344
 113001321.187 8  88053088.364 7  21503412.594
 116060556.24756  90436924.75452  22085614.2114                   22085622.4344
 115747836.01548  90193209.18145  22026060.5314                   22026067.3444
 121936928.65846  95015880.49244  23203812.1174                   23203821.5594
 11  7 24  0 28  0.0000000  0  9G12G20G04G27G28G17G09G02G10
                                  24672802.719
 128030464.48046  99764031.67943  24363383.8674                   24363392.9414
 104472889.32248  81407595.81746  19880500.9224                   19880508.9024
 117671987.41947  91692484.19245  22392229.8204                   22392238.5554
 115935329.65147  90339149.96945  22061723.1024                   22061730.8134
 113034652.750 7  88079060.999 7  21509755.734
 116046964.48046  90426333.73342  22083027.1254                   22083035.8714
 115674286.99948  90135898.34345  22012064.5084                   22012071.0784
 121844381.96646  94943766.28644  23186200.4924                   23186210.4264
 11  7 24  0 28 30.0000000  0  9G12G20G04G27G28G17G09G02G10
 129559765.399 5                  24654372.539
 128075493.39846  99799119.12743  24371952.4534                   24371962.0314
 104470339.89648  81405609.26546  19880015.6334                   19880023.6454
 117672817.84547  91693131.26445  22392387.6094                   22392396.5394
 115994733.01047  90385438.29345  22073026.5864                   22073033.8364
 113068076.713 7  88105105.637 7  21516115.797
 116034016.97046  90416244.82142  22080562.3834                   22080572.0944
 115601056.24948  90078835.48045  21998129.5394                   21998136.1294
 121751946.26446  94871738.56044  23168610.2734                   23168620.1214
 11  7 24  0 29  0.0000000  0  9G12G20G04G27G28G17G09G02G10
                                  24635943.281
 128120999.30246  99834578.21943  24380612.9064                   24380621.1294
 104468351.84248  81404060.15146  19879637.3134                   19879645.2114
 117674134.47547  91694157.19445  22392638.4384                   22392647.0204
 116054504.28647  90432013.25945  22084400.7734                   22084409.2304
 113101591.116 7  88131220.773 7  21522493.070
 116021711.89846  90406656.39343  22078221.8914                   22078230.7234
 115528143.03348  90022020.04245  21984254.6564                   21984260.8594
 121659623.30646  94799798.64444  23151043.0084                   23151051.2274
 11  7 24  0 29 30.0000000  0  9G12G20G04G27G28G17G09G02G10
 129366028.544 5                  24617506.781
 128166981.69346  99870408.65743  24389363.1334                   24389372.1024
 104466924.38148  81402947.84146  19879365.7424                   19879373.1094
 117675936.89947  91695561.65945  22392981.5864                   22392989.9304
 116114643.06547  90478874.60445  22095845.5554                   22095852.9924
 113135195.719 7  88157406.181 7  21528888.273
 116010049.17946  90397568.61943  22076002.4774                   22076011.3834
 115455548.72748  89965453.08345  21970440.5004                   21970447.0744
 121567416.26746  94727949.12344  23133494.8284                   23133504.3674
 11  7 24  0 30  0.0000000  0  9G12G20G04G27G28G17G09G02G10
 129269129.283 4 100729105.86314  24599065.289
 128213439.68846  99906609.74542  24398202.8524                   24398212.7344
 104466057.32348  81402272.20946  19879200.4694                   19879208.5944
 117678225.04447  91697344.61945  22393417.4064                   22393425.8444
 116175149.32247  90526022.30745  22107359.1564                   22107367.0204
 113168891.133 7  88183662.337 7  21535299.930
 115999029.09246  90388981.56443  22073905.7034                   22073914.0704
 115383274.22748  89909135.33845  21956687.0784                   21956693.9454
 121475328.59346  94656192.59943  23115972.3444                   23115980.9804
 11  7 24  0 30 30.0000000  0  9G12G20G04G27G28G17G09G02G10
 129172211.601 5 100653585.667 4  24580623.016
 128260371.85546  99943180.32242  24407134.6334                   24407142.5084
 104465749.70548  81402032.52146  19879142.4694                   19879149.6724
 117680998.06447  91699505.39445  22393944.8134                   22393953.6254
 116236022.82347  90573456.17345  22118943.4454                   22118950.6764
 113202676.611 7  88209988.676 7  21541729.305
 115988651.47146  90380895.08243  22071931.3594                   22071939.7424
 115311320.94548  89853067.92945  21942994.2504                   21943000.5704
 121383363.64346  94584531.73043  23098471.1254                   23098481.5554
 11  7 24  0 31  0.0000000  0  9G12G20G04G27G28G17G09G02G10
 129075277.029 5 100578052.158 5  24562178.883
 128307777.38746  99980119.64743  24416154.8754                   24416163.6684
 104466000.42148  81402227.89046  19879190.2584                   19879197.2974
 117684255.53247  91702043.65745  22394564.7504                   22394572.6764
 116297263.07647  90621175.81645  22130596.3754                   22130604.2624
 113236552.289 8  88236385.305 7  21548175.828
 115978915.90046  90373308.97443  22070078.2894                   22070087.3794
 115239689.88448  89797251.56745  21929363.8834                   21929370.0204
 121291524.46946  94512968.87743  23080994.1884                   23081004.0234
 11  7 24  0 31 30.0000000  0  9G12G20G04G27G28G17G09G02G10
 128978327.237 6 100502506.903 5  24543730.727
 128355654.86546 100017426.82543  24425265.1564                   24425274.3554
 104466808.71048  81402857.75046  19879344.0944                   19879351.4384
 117687996.77147  91704958.91645  22395277.0554                   22395285.0634
 116358869.79747  90669181.04445  22142319.5634                   22142327.3404
 113270517.536 7  88262851.727 7  21554639.539
 115969822.49346  90366223.22343  22068348.6414                   22068357.1414
 115168382.15348  89741687.13145  21915794.0944                   21915800.6414
 121199814.69446  94441506.79544  23063542.1644                   23063552.7034
 11  7 24  0 32  0.0000000  0  9G12G20G04G27G28G17G09G02G10
 128881363.867 6 100426951.201 5  24525276.930
 128404003.36046 100055100.92043  24434468.6804                   24434475.2544
 104468173.85348  81403921.50146  19879603.6484                   19879611.4654
 117692221.05447  91708250.51345  22396080.3054                   22396088.6054
 116420842.43947  90717471.37344  22154113.1254                   22154120.2704
 113304572.645 7  88289388.146 7  21561119.203
 115961371.03646  90359637.67443  22066738.5314                   22066749.0394
 115097398.70048  89686375.40345  21902285.9064                   21902292.5124
 121108237.38246  94370147.92443  23046115.5004                   23046125.5124
 11  7 24  0 32 30.0000000  0  9G12G20G04G27G28G17G09G02G10
 128784388.642 5 100351386.080 5  24506824.359
 128452821.24346 100093140.87643  24443756.5784                   24443765.1994
 104470094.51248  81405418.12946  19879969.3914                   19879976.4574
 117696927.66147  91711918.00045  22396976.2504                   22396984.4064
 116483180.47247  90766046.43945  22165975.2274                   22165982.9964
 113338717.154 7  88315994.242 7  21567617.000
 115953561.02646  90353551.98743  22065253.3834                   22065263.3134
 115026740.76548  89631317.30745  21888840.8674                   21888846.8594
 121016795.57946  94298894.65244  23028714.9844                   23028724.1684
 11  7 24  0 33  0.0000000  0  9G12G20G04G27G28G17G09G02G10
 128687402.799 5 100275812.722 5  24488369.227
 128502107.48046 100131545.65942  24453135.3444                   24453143.6024
 104472569.87448  81407346.97746  19880439.7274                   19880447.6334
 117702115.82747  91715960.72845  22397963.1804                   22397971.4264
 116545883.34147  90814905.81245  22177907.4534                   22177914.6524
 113372950.986 7  88342669.943 7  21574131.422
 115946392.20346  90347965.89343  22063889.4614                   22063898.6134
 114956408.95048  89576513.35345  21875456.9144                   21875463.0554
 120925492.74746  94227749.70744  23011340.9614                   23011350.9264
 11  7 24  0 33 30.0000000  0  9G12G20G04G27G28G17G09G02G10
 128590408.562 5 100200232.919 5  24469911.563
 128551861.06046 100170314.65042  24462602.4064                   24462610.9804
 104475599.16147  81409707.47746  19881016.3444                   19881024.3164
 117707785.08447  91720378.29745  22399041.5164                   22399050.9884
 116608951.12647  90864049.50944  22189908.7814                   22189916.3014
 113407274.249 8  88369415.315 7  21580662.781
 115939864.33846  90342879.28843  22062646.8284                   22062656.5744
 114886404.64648  89521964.61245  21862135.5234                   21862142.0594
 120834332.31547  94156715.71744  22993994.2194                   22994003.1054
 11  7 24  0 34  0.0000000  0  9G12G20G04G27G28G17G09G02G10
 128493407.205 5 100124647.604 5  24451451.219
 128602080.24746 100209446.47142  24472158.3754                   24472168.1844
 104479180.83248  81412498.39946  19881698.2734                   19881706.0314
 117713934.13847  91725169.75645  22400212.1564                   22400220.7424
 116672382.92347  90913476.85745  22201980.0314                   22201987.5044
 113441686.370 7  88396229.918 7  21587211.445
 115933977.10246  90338291.78143  22061527.3674                   22061535.7664
 114816728.49948  89467671.56045  21848876.2664                   21848883.0554
 120743317.05047  94085794.86344  22976673.9774                   22976684.0004
 11  7 24  0 34 30.0000000  0  9G12G20G04G27G28G17G09G02G10
 128396401.054 6 100049058.515 5  24432992.180
 128652764.42846 100248940.54842  24481804.9534                   24481812.4924
 104483314.66748  81415719.57946  19882484.6564                   19882492.9104
 117720562.94847  91730335.06445  22401472.9454                   22401482.5474
 116736178.55847  90963187.71345  22214119.5554                   22214127.7074
 113476187.706 7  88423114.063 7  21593776.672
 115928730.36546  90334203.41243  22060527.7504                   22060535.9304
 114747382.08748  89413635.44045  21835680.0394                   21835687.0434
 120652450.71546  94014990.01944  22959383.2734                   22959392.4184
 11  7 24  0 35  0.0000000  0  9G12G20G04G27G28G17G09G02G10
 128299391.494 6  99973466.732 5  24414531.859
 128703912.07946 100288795.88842  24491536.3284                   24491545.2034
 104487999.23148  81419369.90946  19883375.8284                   19883383.9804
 117727670.65047  91735873.56345  22402826.0004                   22402834.7624
 116800337.65447  91013181.77345  22226329.0164                   22226336.6024
 113510778.051 7  88450067.550 7  21600359.070
 115924123.65746  90330613.75743  22059651.4144                   22059659.9884
 114678366.31048  89359856.95545  21822546.7194                   21822553.5044
 120561736.67747  93944303.86944  22942120.7424                   22942129.7504
 11  7 24  0 35 30.0000000  0  9G12G20G04G27G28G17G09G02G10
 128202380.174 6  99897873.547 5  24396070.391
 128755522.02146 100329011.37942  24501358.5944                   24501366.7194
 104493233.88748  81423448.87046  19884372.0234                   19884379.7464
 117735256.60447  91741784.68645  22404269.4224                   22404278.5824
 116864859.83747  91063458.74945  22238607.0394                   22238614.9964
 113545457.378 7  88477090.371 7  21606959.031
 115920156.46846  90327522.41243  22058896.6804                   22058905.1684
 114609681.99148  89306336.73545  21809476.4064                   21809482.9694
 120471178.21946  93873738.94344  22924887.2584                   22924897.0704
 11  7 24  0 36  0.0000000  0  9G12G20G04G27G28G17G09G02G10
 128105369.106 5  99822280.584 5  24377608.102
 128807592.79146 100369586.02342  24511266.8524                   24511274.3914
 104499017.40748  81427955.52246  19885472.9304                   19885480.3554
 117743320.05847  91748067.88945  22405803.9384                   22405812.8554
 116929744.38047  91114018.12145  22250954.4694                   22250962.3484
 113580225.602 7  88504182.446 7  21613574.805
 115916828.57846  90324929.24543  22058262.9384                   22058270.8524
 114541330.42148  89253075.82545  21796469.5314                   21796476.5594
 120380778.69746  93803297.84744  22907685.0634                   22907693.9774
 11  7 24  0 36 30.0000000  0  9G12G20G04G27G28G17G09G02G10
 128008359.819 6  99746688.992 5  24359148.164
 128860122.90446 100410518.61842  24521262.7114                   24521270.6564
 104505348.60647  81432888.91346  19886677.5474                   19886685.1764
 117751859.96447  91754722.35345  22407429.4614                   22407438.4654
 116994990.88847  91164859.51045  22263369.8984                   22263377.7734
 113615082.543 7  88531343.688 7  21620207.758
 115914139.26546  90322833.61243  22057751.9384                   22057760.8444
 114473312.36548  89200074.79546  21783526.4614                   21783532.8524
 120290541.34446  93732983.13944  22890513.1254                   22890522.7424
 11  7 24  0 37  0.0000000  0  9G12G20G04G27G28G17G09G02G10
 127911354.068 6  99671100.119 6  24340690.188
 128913111.19746 100451808.20142  24531346.9144                   24531355.3134
 104512226.22548  81438248.11946  19887986.2974                   19887994.1844
 117760875.16946  91761747.18045  22409144.3364                   22409154.0234
 117060598.70047  91215982.43445  22275854.7814                   22275862.7504
 113650028.094 7  88558573.976 7  21626857.609
 115912088.12546  90321235.31243  22057361.0084                   22057370.1024
 114405628.68348  89147334.32046  21770646.7194                   21770652.6564
 120200469.66746  93662797.52944  22873372.4224                   22873382.2584
 11  7 24  0 37 30.0000000  0  9G12G20G04G27G28G17G09G02G10
 127814353.936 7  99595515.655 5  24322232.039
 128966556.27646 100493453.76042  24541516.8834                   24541525.7274
 104519649.42448  81444032.43846  19889398.8674                   19889406.8594
 117770365.00947  91769141.88145  22410950.5784                   22410959.0634
 117126567.35047  91267386.55644  22288407.8524                   22288415.9414
 113685062.318 7  88585873.350 7  21633524.273
 115910674.33446  90320133.64544  22057092.3204                   22057100.4534
 114338280.17148  89094854.97545  21757830.9924                   21757836.9654
 120110566.79546  93592743.44443  22856264.3444                   22856274.1334
 11  7 24  0 38  0.0000000  0  9G12G20G04G27G28G17G09G02G10
 127717360.752 7  99519936.650 6  24303774.852
 129020456.49846 100535453.88142  24551773.3524                   24551781.8164
 104527616.30248  81450240.40546  19890914.6024                   19890922.5594
 117780328.17847  91776905.38145  22412847.1334                   22412855.3404
 117192895.80447  91319071.04544  22301029.9774                   22301037.9224
 113720184.856 7  88613241.553 7  21640207.578
 115909897.28347  90319528.10144  22056944.3754                   22056953.1954
 114271267.68948  89042637.50745  21745077.9844                   21745085.0234
 120020835.52046  93522823.08743  22839189.1024                   22839198.4734
 11  7 24  0 38 30.0000000  0  9G12G20G04G27G28G17G09G02G10
 127620376.752 6  99444364.763 5  24285318.828
 129074810.64846 100577807.79942  24562116.8134                   24562124.5514
 104536126.60048  81456871.81646  19892534.5314                   19892541.7854
 117790764.46947  91785037.54545  22414831.8594                   22414841.6684
 117259583.93347  91371035.76544  22313720.4384                   22313728.0554
 113755396.086 7  88640678.839 7  21646908.586
 115909756.86246  90319418.64044  22056917.2344                   22056926.2544
 114204592.80848  88990683.11346  21732390.6884                   21732396.8674
 119931279.82946  93453039.53144  22822147.2114                   22822156.2814
 11  7 24  0 39  0.0000000  0  9G12G20G04G27G28G17G09G02G10
 127523403.290 6  99368801.113 6  24266865.055
 129129617.60846 100620514.50242  24572547.0474                   24572554.0664
 104545178.81648  81463925.50346  19894256.9694                   19894264.2504
 117801672.65647  91793537.41045  22416908.7584                   22416916.5984
 117326631.00046  91423280.18644  22326478.3204                   22326487.4304
 113790695.618 7  88668184.940 7  21653625.578
 115910252.40247  90319804.72144  22057011.8524                   22057020.5354
 114138255.79448  88938991.98945  21719766.9924                   21719773.1564
 119841902.89246  93383395.23444  22805139.7424                   22805148.5274
 11  7 24  0 39 30.0000000  0  9G12G20G04G27G28G17G09G02G10
 127426442.505 6  99293247.290 5  24248413.477
 129184875.50846 100663572.59343  24583061.4064                   24583070.1804
 104554771.76348  81471400.53246  19896082.3674                   19896090.4384
 117813051.89147  91802404.33145  22419073.9774                   22419082.2664
 117394036.56347  91475803.99944  22339305.5394                   22339313.8284
 113826083.794 7  88695760.144 7  21660360.180
 115911382.85947  90320685.58544  22057226.9304                   22057235.4844
 114072257.86948  88887565.06946  21707208.0084                   21707214.3754
 119752708.11547  93313892.90044  22788166.2194                   22788175.7234
 11  7 24  0 40  0.0000000  0  9G12G20G04G27G28G17G09G02G10
 127329496.207 6  99217704.751 6  24229965.242
 129240582.78546 100706980.82543  24593662.7034                   24593671.2344
 104564903.99848  81479295.78646  19898010.5084                   19898018.5124
 117824901.06947  91811637.41945  22421328.3914                   22421337.7074
 117461799.76146  91528606.43844  22352200.9304                   22352208.6884
 113861560.394 8  88723404.226 7  21667110.859
 115913147.46847  90322060.56344  22057563.2504                   22057571.1214
 114006599.68548  88836402.88046  21694713.0634                   21694720.3754
 119663698.79647  93244535.06844  22771228.5704                   22771238.1174
 11  7 24  0 40 30.0000000  0  9G12G20G04G27G28G17G09G02G10
 127232566.309 6  99142175.038 6  24211520.188
 129296738.25346 100750738.32843  24604349.2274                   24604356.5164
 104575574.54848  81487610.51946  19900040.9694                   19900049.0124
 117837219.33747  91821236.03244  22423673.0554                   22423681.8134
 117529920.07347  91581687.17444  22365163.5084                   22365171.4804
 113897125.178 7  88751117.039 7  21673878.547
 115915545.90046  90323929.49644  22058019.1484                   22058027.6914
 113941282.24948  88785506.22846  21682284.3444                   21682290.9924
 119574877.98947  93175324.11544  22754326.4694                   22754336.1524
 11  7 24  0 41  0.0000000  0  9G12G20G04G27G28G17G09G02G10
 127135654.203 6  99066659.212 5  24193078.063
 129353340.44346 100794843.94143  24615119.0864                   24615127.2974
 104586781.89148  81496343.53346  19902173.8594                   19902181.5204
 117850005.57247  91831199.32644  22426105.3134                   22426114.2274
 117598396.92947  91635045.72744  22378194.7424                   22378202.7854
 113932778.299 7  88778898.667 7  21680663.234
 115918577.19847  90326291.53444  22058596.8204                   22058604.6414
 113876306.33248  88734875.69146  21669919.4694                   21669926.1914
 119486249.29247  93106262.86644  22737460.7814                   22737469.9614
 11  7 24  0 41 30.0000000  0  9G12G20G04G27G28G17G09G02G10
 127038762.499 6  98991159.303 5  24174639.836
 129410387.59646 100839296.18043  24625975.1484                   24625983.2854
 104598524.82148  81505493.88146  19904408.4844                   19904415.8364
 117863258.64847  91841526.35845  22428627.6484                   22428636.1804
 117667229.47847  91688681.46344  22391293.1804                   22391300.5944
 113968519.678 7  88806749.093 7  21687464.594
 115922240.39346  90329145.97244  22059293.4694                   22059301.6254
 113811672.72348  88684511.89246  21657620.3914                   21657626.8794
 119397815.99647  93037353.86244  22720632.3364                   22720641.0594
 11  7 24  0 42  0.0000000  0  9G12G20G04G27G28G17G09G02G10
 126941892.624 6  98915676.339 5  24156206.031
 129467878.68046 100884094.41943  24636914.8204                   24636922.7424
 104610802.49948  81515060.91746  19906744.3674                   19906752.5164
 117876977.99947  91852216.72745  22431238.1254                   22431247.4414
 117736417.31847  91742594.03244  22404459.0234                   22404466.3634
 114004349.386 7  88834668.327 7  21694282.969
 115926534.95747  90332492.38244  22060110.3134                   22060119.0234
 113747382.73348  88634415.84846  21645386.0164                   21645392.6684
 119309581.62247  92968599.89944  22703841.9384                   22703850.5944
 11  7 24  0 42 30.0000000  0  9G12G20G04G27G28G17G09G02G10
 126845046.296 6  98840211.694 6  24137777.992
 129525811.73246 100929237.10143  24647940.4924                   24647947.2114
 104623613.23148  81525043.31646  19909182.3914                   19909189.6764
 117891162.18347  91863269.29545  22433937.6024                   22433946.4384
 117805959.53247  91796782.73344  22417692.3284                   22417700.2814
 114040267.379 7  88862656.344 7  21701117.859
 115931459.97847  90336329.99744  22061048.2344                   22061056.0554
 113683436.70948  88584587.82346  21633217.5394                   21633223.7504
 119221549.36647  92900003.39744  22687089.8284                   22687098.8984
 11  7 24  0 43  0.0000000  0  9G12G20G04G27G28G17G09G02G10
 126748225.393 6  98764766.887 6  24119352.578
 129584185.26246 100974722.91243  24659047.9454                   24659056.2154
 104636955.47948  81535439.87246  19911721.6094                   19911728.6994
 117905810.08147  91874683.20045  22436724.9614                   22436734.0084
 117875855.40247  91851247.02944  22430993.3204                   22431000.3444
 114076273.706 7  88890713.234 7  21707969.852
 115937014.58346  90340658.27344  22062104.0004                   22062113.5634
 113619835.49648  88535028.48946  21621114.9224                   21621120.8444
 119133722.38647  92831566.92944  22670377.4304                   22670386.1254
 11  7 24  0 43 30.0000000  0  9G12G20G04G27G28G17G09G02G10
 126651431.828 6  98689343.362 6  24100933.750
 129642997.55546 101020550.65142  24670240.0394                   24670248.1764
 104650827.65348  81546249.37646  19914361.1254                   19914368.8954
 117920920.46347  91886457.46845  22439601.1174                   22439608.7194
 117946104.03047  91905986.16244  22444360.7344                   22444368.8324
 114112368.270 7  88918838.872 7  21714838.078
 115943197.55346  90345476.18144  22063280.8524                   22063289.6414
 113556579.87148  88485738.42746  21609077.4844                   21609083.3284
 119046103.86447  92763292.89744  22653703.1484                   22653712.4384
 11  7 24  0 44  0.0000000  0  9G12G20G04G27G28G17G09G02G10
 126554667.716 6  98613942.801 6  24082520.500
 129702247.56746 101066719.56343  24681514.4304                   24681522.9494
 104665229.12048  81557471.30346  19917101.4384                   19917109.2504
 117936492.64248  91898591.57745  22442563.7894                   22442572.4344
 118016704.97447  91960999.88144  22457795.7734                   22457803.8164
 114148551.549 7  88947033.631 7  21721723.953
 115950008.45246  90350783.40744  22064577.3204                   22064585.5664
 113493670.78148  88436718.40046  21597106.0704                   21597112.1054
 118958697.47347  92695184.12544  22637070.5164                   22637079.8284
 11  7 24  0 44 30.0000000  0  9G12G20G04G27G28G17G09G02G10
 126457934.835 6  98538566.547 6  24064112.078
 129761933.02546 101113227.72942  24692871.4844                   24692881.1454
 104680157.90248  81569104.13346  19919942.4534                   19919950.4144
 117952525.07747  91911084.32345  22445614.7734                   22445623.2504
 118087657.53447  92016287.52444  22471297.6564                   22471306.5824
 114184823.103 7  88975297.150 7  21728626.398
 115957445.98746  90356578.89344  22065992.3914                   22066001.5204
 113431108.79048  88387968.84646  21585201.0164                   21585206.5394
 118871506.47547  92627243.22044  22620478.2664                   22620488.4654
 11  7 24  0 45  0.0000000  0  9G12G20G04G27G28G17G09G02G10
 126361235.278 6  98463216.269 5  24045712.070
 129822052.52546 101160074.03742  24704312.7424                   24704321.2464
 104695612.73848  81581146.86746  19922883.5784                   19922891.0004
 117969016.66447  91923934.84545  22448753.0944                   22448761.5744
 118158960.41047  92071848.18144  22484865.9384                   22484873.8554
 114221183.006 7  89003629.545 7  21735544.914
 115965509.37446  90362862.06644  22067526.7194                   22067535.7504
 113368894.78248  88339490.42746  21573362.0004                   21573368.2304
 118784534.30847  92559472.78744  22603927.7504                   22603937.6804
 11  7 24  0 45 30.0000000  0  9G12G20G04G27G28G17G09G02G10
 126264570.656 6  98387893.240 6  24027317.422
 129882604.59246 101207257.47542  24715835.0554                   24715842.9884
 104711592.22348  81593598.41546  19925924.4304                   19925931.7814
 117985966.40347  91937142.41245  22451978.3594                   22451987.4064
 118230613.22547  92127681.48944  22498501.7344                   22498509.4924
 114257631.333 7  89032030.832 7  21742480.797
 115974197.62746  90369632.13144  22069180.2584                   22069189.5904
 113307029.60148  88291283.85246  21561589.4924                   21561595.6134
 118697784.17547  92491875.35044  22587419.9844                   22587429.3754
 11  7 24  0 46  0.0000000  0  9G12G20G04G27G28G17G09G02G10
 126167942.932 6  98312598.948 6  24008928.688
 129943587.27745 101254776.36542  24727439.3134                   24727447.7974
 104728094.51448  81606457.34546  19929064.4224                   19929072.3204
 118003372.86947  91950705.83845  22455290.7344                   22455299.5314
 118302615.20347  92183786.88444  22512203.5164                   22512211.4384
 114294168.068 7  89060501.003 7  21749433.711
 115983509.32747  90376887.99044  22070952.7504                   22070961.1844
 113245513.83948  88243349.55546  21549883.1334                   21549889.3674
 118611259.29647  92424453.46044  22570955.5704                   22570963.7664
 11  7 24  0 46 30.0000000  0  9G12G20G04G27G28G17G09G02G10
 126071354.716 6  98237335.435 6  23990548.258
 130004999.33446 101302629.96142  24739127.2814                   24739134.0164
 104745119.11648  81619723.25146  19932304.0784                   19932311.9224
 118021235.12947  91964624.41245  22458690.0784                   22458699.3094
 118374965.58147  92240163.75145  22525971.0554                   22525979.1024
 114330793.654 8  89089040.414 7  21756403.352
 115993443.71847  90384629.04744  22072843.0944                   22072851.6884
 113184348.25148  88195688.10046  21538244.1724                   21538249.9024
 118524963.25647  92357209.86844  22554533.1094                   22554542.0514
 11  7 24  0 47  0.0000000  0  9G12G20G04G27G28G17G09G02G10
 125974807.805 6  98162104.152 6  23972176.164
 130066838.93545 101350816.65442  24750892.3204                   24750902.0824
 104762664.16948  81633394.71446  19935643.0864                   19935651.0784
 118039551.94247  91978897.22145  22462175.5394                   22462184.4614
 118447663.61747  92296811.53344  22539804.9924                   22539813.3244
 114367508.209 8  89117649.155 7  21763389.586
 116003999.83647  90392854.60744  22074851.7814                   22074859.7544
 113123533.69848  88148300.19746  21526671.1644                   21526677.5164
 118438899.66347  92290147.40544  22538156.0234                   22538164.8444
 11  7 24  0 47 30.0000000  0  9G12G20G04G27G28G17G09G02G10
 125878304.334 6  98086906.661 6  23953811.820
 130129104.69844 101399335.33542  24762740.0784                   24762751.8244
 104780728.20448  81647470.59646  19939080.3834                   19939088.0004
 118058322.33747  91993523.48645  22465747.1334                   22465756.4224
 118520708.55647  92353729.64444  22553704.4774                   22553713.2344
 114404311.836 8  89146327.312 7  21770393.250
 116015176.51347  90401563.66344  22076978.3754                   22076987.4064
 113063071.08148  88101186.51846  21515165.1644                   21515171.7624
 118353071.87147  92223268.70144  22521822.8754                   22521832.2074
 11  7 24  0 48  0.0000000  0  9G12G20G04G27G28G17G09G02G10
 125781845.265 6  98011743.829 6  23935456.727
 130191793.92146 101448184.09842  24774673.5474                   24774681.0744
 104799309.11548  81661949.23446  19942616.1414                   19942624.2504
 118077544.33847  92008501.64745  22469405.3754                   22469414.5474
 118594099.15147  92410917.06245  22567671.4454                   22567678.8244
 114441204.246 7  89175074.649 7  21777413.969
 116026972.04046  90410754.94444  22079222.4454                   22079231.8134
 113002960.44048  88054347.09946  21503726.3914                   21503732.6564
 118267482.37747  92156575.66544  22505536.5164                   22505544.9884
 11  7 24  0 48 30.0000000  0  9G12G20G04G27G28G17G09G02G10
 125685433.041 7  97936617.512 6  23917109.773
 130254905.33145 101497361.83942  24786679.7424                   24786690.5704
 104818405.46748  81676829.50546  19946250.1724                   19946257.5004
 118097216.78947  92023830.78145  22473148.8054                   22473157.8674
 118667834.29047  92468372.99344  22581701.7274                   22581710.3324
 114478185.276 8  89203891.041 7  21784450.961
 116039385.11146  90420427.48644  22081585.1094                   22081593.5234
 112943202.66748  88007782.66646  21492355.6644                   21492361.4614
 118182134.91847  92090071.21244  22489294.8914                   22489303.7074
 11  7 24  0 49  0.0000000  0  9G12G20G04G27G28G17G09G02G10
 125589070.047 6  97861529.522 6  23898772.969
 130318437.73445 101546867.48043  24798771.8594                   24798780.6724
 104838016.13748  81692110.53146  19949982.0314                   19949989.7544
 118117338.66347  92039510.14145  22476978.3984                   22476987.0984
 118741913.46847  92526096.98344  22595798.9384                   22595806.4414
 114515255.597 8  89232776.992 7  21791505.031
 116052415.41947  90430580.93144  22084064.6174                   22084073.5004
 112883798.86248  87961494.02546  21481051.3284                   21481056.9144
 118097033.15147  92023758.23044  22473101.0784                   22473109.0704
 11  7 24  0 49 30.0000000  0  9G12G20G04G27G28G17G09G02G10
 125492757.482 6  97786480.830 6  23880445.492
 130382388.44646 101596699.17343  24810941.1024                   24810950.9104
 104858138.81148  81707790.53846  19953811.0084                   19953818.3484
 118137907.58547  92055537.86745  22480892.1254                   22480901.2814
 118816335.25447  92584087.92144  22609961.1484                   22609968.7424
 114552414.422 7  89261731.909 7  21798576.055
 116066060.49246  90441213.43844  22086661.3134                   22086669.9694
 112824748.65348  87915480.94246  21469814.3444                   21469820.2814
 118012179.38447  91957638.47645  22456953.8364                   22456962.3554
 11  7 24  0 50  0.0000000  0  9G12G20G04G27G28G17G09G02G10
 125396498.016 7  97711473.565 6  23862127.055
 130446756.04745 101646855.71843  24823189.6254                   24823197.9734
 104878772.38148  81723868.64046  19957737.4774                   19957744.9184
 118158922.94247  92071913.46145  22484891.2974                   22484900.1524
 118891099.32547  92642345.61744  22624188.0474                   22624195.5274
 114589662.462 7  89290756.332 7  21805664.602
 116080319.67547  90452324.47144  22089374.7114                   22089383.7234
 112766053.07148  87869744.17046  21458644.6954                   21458650.5904
 117927577.71247  91891715.16845  22440854.4224                   22440863.6174
 11  7 24  0 50 30.0000000  0  9G12G20G04G27G28G17G09G02G10
 125300293.378 7  97636509.030 6  23843820.273
 130511538.87145 101697335.82843  24835518.0634                   24835526.0124
 104899915.39848  81740343.71946  19961761.4304                   19961768.8404
 118180383.43947  92088635.90245  22488975.2814                   22488984.1414
 118966204.85347  92700869.35544  22638479.6254                   22638487.8204
 114627000.140 7  89319850.627 7  21812769.531
 116095191.66447  90463913.01844  22092204.9694                   22092213.6604
 112707713.21048  87824284.58946  21447542.7344                   21447548.8054
 117843231.69047  91825991.04744  22424804.1254                   22424812.4924
 11  7 24  0 51  0.0000000  0  9G12G20G04G27G28G17G09G02G10
 125204145.889 7  97561589.028 6  23825524.672
 130576735.29346 101748138.20643  24847923.6804                   24847931.9494
 104921566.21048  81757214.49046  19965881.0634                   19965889.1374
 118202287.75547  92105704.18345  22493143.6024                   22493152.2504
 119041650.67747  92759658.27744  22652837.2734                   22652844.9304
 114664427.319 7  89349014.638 7  21819891.617
 116110675.20947  90475978.10044  22095151.6414                   22095160.0944
 112649729.70048  87779102.68546  21436508.8284                   21436515.3134
 117759144.45447  91760468.59644  22408802.3914                   22408810.8204
 11  7 24  0 51 30.0000000  0  9G12G20G04G27G28G17G09G02G10
 125108057.303 7  97486714.893 6  23807238.734
 130642343.19846 101799261.23143  24860409.3444                   24860416.2114
 104943722.80348  81774479.36946  19970097.6174                   19970105.1804
 118224634.37647  92123117.13445  22497396.4384                   22497404.8954
 119117435.53547  92818711.39144  22667258.3284                   22667266.0434
 114701943.693 8  89378248.162 7  21827030.547
 116126768.86047  90488518.56444  22098214.3594                   22098222.8714
 112592102.58648  87734198.49546  21425542.4384                   21425549.3134
 117675318.99947  91695150.11844  22392850.5474                   22392859.4614
 11  7 24  0 52  0.0000000  0  9G12G20G04G27G28G17G09G02G10
 125012030.013 7  97411888.471 6  23788965.164
 130708361.02446 101850703.67243  24872971.8754                   24872980.1214
 104966384.14748  81792137.56046  19974409.3914                   19974416.9414
 118247421.92447  92140873.65444  22501732.3914                   22501740.5984
 119193559.11447  92878028.42044  22681744.5864                   22681752.8094
 114739550.263 7  89407551.973 7  21834187.016
 116143471.44947  90501533.51944  22101392.6884                   22101401.3054
 112534833.03948  87689572.92546  21414644.6564                   21414650.1884
 117591759.06247  91630038.56644  22376949.8284                   22376958.9024
 11  7 24  0 52 30.0000000  0  9G12G20G04G27G28G17G09G02G10
 124916065.909 7  97337111.289 6  23770703.445
 130774786.67246 101902463.85743  24885612.5784                   24885621.3204
 104989547.83948  81810187.19546  19978817.4144                   19978825.1994
 118270648.92347  92158972.61544  22506151.8754                   22506160.7154
 119270019.87547  92937608.17144  22696294.8134                   22696302.8794
 114777246.336 8  89436925.527 7  21841360.773
 116160781.12447  90515021.50744  22104686.7344                   22104695.6374
 112477921.19448  87645226.10846  21403814.9774                   21403821.0004
 117508467.60447  91565136.23444  22361099.8834                   22361109.0944
 11  7 24  0 53  0.0000000  0 10G12G05G20G04G27G28G17G09G02G10
 124820167.025 7  97262384.996 6  23752455.219
                                  25151984.227
 130841618.33446 101954540.46843  24898330.1094                   24898338.1334
 105013212.74348  81828627.37546  19983320.9144                   19983328.5204
 118294313.74547  92177412.71044  22510655.3524                   22510664.4614
 119346817.49147  92997450.43944  22710908.5554                   22710916.5664
 114815032.663 7  89466369.385 7  21848551.211
 116178696.60447  90528981.58743  22108095.5084                   22108104.1374
 112421367.65548  87601158.45346  21393052.9454                   21393059.4454
 117425448.15747  91500445.81544  22345301.6254                   22345310.3954
 11  7 24  0 53 30.0000000  0  9G12G20G04G27G28G17G09G02G10
 124724335.603 7  97187711.137 6  23734218.656
 130908854.33646 102006932.19842  24911123.6484                   24911131.5864
 105037376.81348  81847456.52846  19987918.9304                   19987926.8634
 118318414.97847  92196192.89245  22515241.6334                   22515250.8594
 119423950.06447  93057553.69144  22725586.5784                   22725594.6294
 114852909.171 7  89495883.527 7  21855758.523
 116197216.31947  90543412.47044  22111620.3134                   22111627.1134
 112365173.08448  87557370.50846  21382359.6484                   21382365.1454
 117342704.30547  91435970.16845  22329555.8364                   22329565.3874
 11  7 24  0 54  0.0000000  0  9G12G20G04G27G28G17G09G02G10
 124628572.751 7  97113090.757 6  23715995.367
 130976491.70146 102059636.48243  24923996.6094                   24924003.7114
 105062038.07948  81866673.10946  19992611.5004                   19992619.5514
 118342950.54047  92215311.49745  22519910.5474                   22519919.5354
 119501416.41647  93117917.05344  22740327.4064                   22740336.1914
 114890875.528 8  89525467.670 7  21862983.141
 116216338.24447  90558312.59844  22115258.1884                   22115267.8404
 112309337.33548  87513862.18846  21371734.1644                   21371740.0824
 117260238.25647  91371711.00644  22313863.4144                   22313872.4414
 11  7 24  0 54 30.0000000  0  9G12G20G04G27G28G17G09G02G10
 124532882.668 7  97038527.103 6  23697786.414
 131044530.86346 102112653.96043  24936943.1804                   24936953.1764
 105087196.33948  81886276.94346  19997399.5474                   19997407.1914
 118367920.79747  92234768.82044  22524661.8594                   22524671.6994
 119579217.21047  93178541.01044  22755132.7034                   22755141.3634
 114928933.576 7  89555123.274 7  21870225.266
 116236062.82047  90573682.32144  22119012.5004                   22119020.8054
 112253862.93748  87470635.40646  21361177.8444                   21361183.5664
 117178055.39947  91307672.47845  22298224.4144                   22298233.3594
 11  7 24  0 55  0.0000000  0  9G12G20G04G27G28G17G09G02G10
 124437266.249 7  96964020.780 6  23679590.930
 131112968.58246 102165982.05842  24949964.9774                   24949974.4264
 105112848.64348  81906265.77146  20002280.1564                   20002288.3094
 118393322.91947  92254562.70844  22529495.9614                   22529504.5824
 119657350.22147  93239423.83944  22770001.2194                   22770008.9614
 114967082.013 8  89584849.295 7  21877485.023
 116256386.90747  90589519.25744  22122879.0394                   22122887.9924
 112198749.09547  87427689.58046  21350689.7894                   21350695.8834
 117096157.70647  91243856.17645  22282639.3134                   22282648.1454
 11  7 24  0 55 30.0000000  0  9G12G20G04G27G28G17G09G02G10
 124341725.581 6  96889573.534 6  23661410.133
 131181802.895 5                  24963064.625
 105138993.39648  81926638.30946  20007256.2424                   20007263.3404
 118419155.35447  92274691.89345  22534412.1564                   22534421.1764
 119735814.44947  93300564.75144  22784933.0554                   22784940.8594
 115005321.326 7  89614646.140 7  21884762.180
 116277309.21047  90605822.30144  22126861.1024                   22126870.3554
 112143996.25548  87385025.09946  21340270.7734                   21340276.7154
 117014548.73447  91180264.80745  22267110.6954                   22267118.2704
 11  7 24  0 56  0.0000000  0 10G12G05G20G04G27G28G17G09G02G10
 124246262.734 7  96815186.938 6  23643244.836
 131559412.75115 102513948.84615  25034938.547
 131251031.65746 102273556.54053  24976240.0634                   24976248.7664
 105165628.58348  81947393.00346  20012324.3834                   20012331.6414
 118445416.39347  92295155.04944  22539408.6254                   22539418.3674
 119814608.67147  93361962.83344  22799926.5234                   22799935.2304
 115043651.692 7  89644513.927 7  21892056.086
 116298827.90447  90622590.13144  22130955.6484                   22130965.0394
 112089604.66648  87342642.08746  21329920.4534                   21329926.2034
 116933231.64947  91116900.91445  22251635.5704                   22251644.8554
 11  7 24  0 56 30.0000000  0 10G12G05G20G04G27G28G17G09G02G10
 124150879.674 6  96740862.506 6  23625093.188
 131456425.320 5 102433699.248 5  25015342.016
 131320652.96146 102327806.78142  24989486.8134                   24989496.6214
 105192752.13448  81968528.24046  20017485.6564                   20017492.8834
 118472104.20747  92315950.74144  22544487.5004                   22544496.4804
 119893731.59347  93423617.04144  22814983.9534                   22814991.4494
 115082072.912 7  89674452.516 7  21899367.234
 116320941.03046  90639821.16044  22135163.4534                   22135172.6174
 112035574.53648  87300540.72246  21319638.9144                   21319644.8754
 116852209.19847  91053766.57845  22236217.7664                   22236226.5634
 11  7 24  0 57  0.0000000  0 10G12G05G20G04G27G28G17G09G02G10
 124055578.768 6  96666602.102 6  23606958.172
 131353307.959 5 102353348.472 5  24995718.602
 131390664.837 6                  25002810.664
 105220362.65048  81990042.93646  20022739.6024                   20022747.1954
 118499217.64847  92337078.10244  22549647.2974                   22549656.1804
 119973182.49147  93485526.83143  22830102.5084                   22830110.0784
 115120585.474 7  89704462.307 7  21906695.953
 116343647.35047  90657514.39445  22139484.9614                   22139493.6724
 111981906.99148  87258721.88446  21309426.5704                   21309431.9534
 116771485.42747  90990864.99944  22220856.7814                   22220864.9844
 11  7 24  0 57 30.0000000  0 10G12G05G20G04G27G28G17G09G02G10
 123960362.107 7  96592407.341 6  23588839.680
 131250063.189 5 102272898.232 5  24976071.180
 131461065.717 5                  25016206.984
 105248458.28448  82011935.64246  20028086.3204                   20028093.8444
 118526754.93447  92358535.67944  22554887.4924                   22554896.1954
 120052960.27347  93547691.29844  22845283.8444                   22845291.1524
 115159189.736 7  89734543.534 7  21914042.008
 116366945.13347  90675668.51944  22143917.9844                   22143927.4574
 111928602.27148  87217185.78346  21299282.3204                   21299288.6884
 116691063.25347  90928198.42344  22205552.7734                   22205560.9614
 11  7 24  0 58  0.0000000  0 10G12G05G20G04G27G28G17G09G02G10
 123865232.138 7  96518280.162 6  23570736.750
 131146693.585 5 102192350.827 5  24956401.125
 131531853.695 5                  25029677.406
 105277037.54048  82034205.20446  20033524.9694                   20033532.7194
 118554714.83947  92380322.63444  22560208.0944                   22560216.5824
 120133063.92446  93610109.70544  22860526.3914                   22860534.0514
 115197886.252 7  89764696.630 7  21921405.672
 116390833.05047  90694282.46844  22148464.0704                   22148472.4144
 111875661.22148  87175933.06746  21289208.4774                   21289213.9304
 116610946.40347  90865769.75444  22190307.4924                   22190315.3134
 11  7 24  0 58 30.0000000  0 10G12G05G20G04G27G28G17G09G02G10
 123770190.752 6  96444222.019 6  23552650.938
 131043201.031 6 102111707.583 5  24936707.578
 131603026.127 5                  25043222.586
 105306098.07948  82056849.78646  20039055.2734                   20039062.8594
 118583095.00247  92402437.02545  22565608.5554                   22565617.8244
 120213491.67147  93672780.65444  22875832.2194                   22875839.2664
 115236674.807 7  89794921.480 7  21928786.422
 116415308.64347  90713354.33645  22153122.2274                   22153130.7584
 111823083.59648  87134963.49946  21279202.9144                   21279208.3954
 116531137.64347  90803581.18144  22175119.4384                   22175127.7274
 11  7 24  0 59  0.0000000  0 10G12G05G20G04G27G28G17G09G02G10
 123675239.997 6  96370234.507 6  23534582.477
 130939588.380 6 102030970.801 5  24916990.094
 131674581.356 5                  25056837.188
 105335638.33148  82079868.16146  20044676.2974                   20044683.6604
 118611894.21547  92424877.92845  22571089.2194                   22571098.8674
 120294242.85447  93735703.61844  22891199.0234                   22891206.6454
 115275555.597 7  89825218.171 7  21936185.469
 116440370.38147  90732882.95545  22157891.0864                   22157898.9144
 111770869.95148  87094277.60046  21269266.6484                   21269272.9454
 116451640.68047  90741635.53345  22159992.0474                   22160000.1094
 11  7 24  0 59 30.0000000  0 10G12G05G20G04G27G28G17G09G02G10
 123580382.634 7  96296319.770 6  23516530.867
 130835858.263 6 101950142.387 6  24897249.188
 131746518.14015                  25070530.438
 105365656.35048  82103258.83346  20050388.2974                   20050395.5864
 118641110.86347  92447644.12844  22576648.5164                   22576657.5904
 120375316.44047  93798877.79744  22906626.2894                   22906633.8054
 115314528.804 7  89855586.883 7  21943601.992
 116466016.97847  90752867.35244  22162770.9144                   22162779.7274
 111719021.13948  87053875.96446  21259400.6804                   21259406.0314
 116372458.87347  90679935.48944  22144923.9774                   22144932.2384
 11  7 24  1  0  0.0000000  0 10G12G05G20G04G27G28G17G09G02G10
 123485620.168 7  96222478.984 6  23498498.805
 130732012.607 6 101869223.935 5  24877488.352
 131818832.844 5                  25084289.906
 105396149.88248  82127020.02846  20056191.0944                   20056198.9734
 118670742.58147  92470733.76745  22582287.5634                   22582296.2974
 120456710.45547  93862301.69944  22922114.9924                   22922122.9924
 115353594.267 7  89886027.488 7  21951035.844
 116492245.75646  90773305.34544  22167762.4384                   22167770.6764
 111667536.57348  87013758.13446  21249603.4064                   21249608.8164
 116293594.92147  90618483.11444  22129916.4614                   22129924.2854
 11  7 24  1  0 30.0000000  0 10G12G05G20G04G27G28G17G09G02G10
 123390955.294 7  96148714.227 6  23480484.547
 130628054.489 6 101788217.820 5  24857706.266
 131891524.95914                  25098119.813
 105427117.82048  82151150.90046  20062084.0164                   20062092.0084
 118700788.40147  92494146.06045  22588004.7344                   22588013.6054
 120538424.61446  93925975.06844  22937664.2194                   22937672.4884
 115392753.234 7  89916540.972 7  21958488.094
 116519055.52646  90794196.12944  22172863.7894                   22172872.5554
 111616417.81748  86973925.35146  21239875.4064                   21239881.5004
 116215052.71347  90557281.46545  22114970.0314                   22114979.0664
 11  7 24  1  1  0.0000000  0  9G12G05G04G27G28G17G09G02G10
 123296390.386 7  96075027.338 6  23462489.125
 130523986.120 6 101707125.784 5  24837901.383
 105458558.13148  82175649.84446  20068066.4384                   20068074.6844
 118731246.50147  92517879.60745  22593801.2664                   22593810.0984
 120620457.69946  93989896.92244  22953274.9064                   22953283.2974
 115432005.672 8  89947127.301 7  21965956.914
 116546444.35247  90815538.09345  22178076.4224                   22178084.1764
 111565664.62148  86934377.45246  21230217.4614                   21230223.1054
 116136835.33547  90496332.91845  22100085.9384                   22100094.6564
 11  7 24  1  1 30.0000000  0 10G12G05G20G04G27G28G17G09G02G10
 123201926.704 7  96001419.371 6  23444513.422
 130419809.091 6 101625949.124 5  24818077.773
 132038032.70315                  25126000.125
 105490467.62748  82200514.39746  20074139.0474                   20074147.0784
 118762113.98647  92541932.16044  22599674.8054                   22599683.6294
 120702807.25346  94054065.36343  22968944.9384                   22968954.0434
 115471350.901 7  89977785.908 7  21973444.820
 116574409.26547  90837328.95445  22183398.1024                   22183406.0084
 111515276.71348  86895114.15746  21220629.4774                   21220634.5274
 116058944.99847  90435639.20545  22085263.8134                   22085272.6994
 11  7 24  1  2  0.0000000  0  9G12G05G04G27G28G17G09G02G10
 123107567.781 7  95927893.039 6  23426557.828
 130315527.215 6 101544690.686 5  24798234.633
 105522845.96248  82225744.26146  20080300.5784                   20080308.5274
 118793390.45247  92566303.41945  22605626.4454                   22605635.4384
 120785473.61846  94118480.68243  22984676.1334                   22984684.4384
 115510790.427 7  90008518.020 7  21980949.289
 116602949.73347  90859568.28845  22188828.7974                   22188836.6724
 111465255.72948  86856136.80146  21211110.5394                   21211116.0704
 115981386.33147  90375203.97445  22070504.7814                   22070514.0124
 11  7 24  1  2 30.0000000  0  9G12G05G04G27G28G17G09G02G10
 123013315.431 7  95854449.782 6  23408621.039
 130211142.741 6 101463352.414 6  24778370.297
 105555690.90448  82251337.73246  20086550.5554                   20086558.6414
 118825074.03147  92590991.86844  22611656.0784                   22611664.6334
 120868455.07146  94183141.54743  23000466.9924                   23000474.6334
 115550324.217 7  90039323.592 7  21988472.188
 116632063.48047  90882254.31845  22194367.9304                   22194377.7894
 111415601.64848  86817445.35646  21201661.5394                   21201667.0664
 115904162.57347  90315029.69745  22055809.8054                   22055818.4884
 11  7 24  1  3  0.0000000  0 10G12G05G20G04G27G28G17G09G02G10
 122919171.099 7  95781090.610 6  23390706.977
 130106657.627 6 101381935.684 5  24758486.570
 132260442.48914                  25168346.188
 105588999.68748  82277292.62246  20092889.0784                   20092897.3634
 118857161.89447  92615995.39745  22617761.6884                   22617770.4734
 120951749.76446  94248046.49843  23016317.1954                   23016325.3284
 115589952.113 7  90070202.478 7  21996013.500
 116661748.04947  90905385.15045  22200017.6174                   22200026.1884
 111366313.97248  86779039.39046  21192282.1024                   21192287.9964
 115827276.19147  90255118.30445  22041179.3444                   22041187.4884
 11  7 24  1  3 30.0000000  0  9G12G05G04G27G28G17G09G02G10
 122825137.377 7  95707817.645 6  23372812.656
 130002074.615 6 101300442.735 5  24738584.125
 105622770.53448  82303607.55646  20099315.8984                   20099323.6054
 118889652.80247  92641312.92245  22623944.0234                   22623953.5784
 121035356.71746  94313194.73443  23032226.5164                   23032235.3594
 115629674.291 7  90101154.812 7  22003572.359
 116692001.68247  90928959.40945  22205774.8984                   22205782.7114
 111317393.14748  86740919.28846  21182972.5944                   21182979.0514
 115750730.80147  90195472.62845  22026613.0474                   22026621.4534
 11  7 24  1  4  0.0000000  0 10G12G05G20G04G27G28G17G09G02G10
 122731216.182 7  95634632.296 6  23354940.813
 129897395.487 6 101218874.884 5  24718664.906
 132410613.41615                  25196924.867
 105657001.02748  82330280.67146  20105829.1954                   20105837.0274
 118922544.12847  92666942.51645  22630204.0634                   22630213.0904
 121119273.97846  94378584.75743  23048195.9844                   23048204.3524
 115669490.591 7  90132180.502 7  22011149.023
 116722821.70447  90952975.03845  22211639.5394                   22211648.3674
 111268839.31548  86703085.15146  21173733.3594                   21173739.3204
 115674528.66947  90136094.43445  22012111.9144                   22012120.4924
 11  7 24  1  4 30.0000000  0 10G12G05G20G04G27G28G17G09G02G10
 122637410.155 7  95561536.693 6  23337089.789
 129792623.405 6 101137234.596 5  24698727.039
 132486243.846 4                  25211318.438
 105691689.70548  82357310.82046  20112430.3134                   20112438.1094
 118955834.64847  92692883.16645  22636539.0234                   22636547.9454
 121203500.87247  94444216.09043  23064224.7664                   23064232.3954
 115709402.062 7  90163280.363 7  22018744.023
 116754206.23547  90977430.51545  22217611.4694                   22217620.2114
 111220653.17448  86665537.55646  21164563.4224                   21164569.5204
 115598673.65747  90076986.69945  21997676.9924                   21997685.3914
 11  7 24  1  5  0.0000000  0  9G12G05G04G27G28G17G09G02G10
 122543722.771 7  95488533.565 6  23319261.273
 129687762.037 6 101055524.791 6  24678772.289
 105726835.94548  82384697.48846  20119118.0004                   20119126.3134
 118989523.78847  92719134.40645  22642949.9064                   22642958.4924
 121288037.30047  94510088.59644  23080310.8524                   23080319.5984
 115749409.609 7  90194455.076 7  22026357.141
 116786154.58347  91002325.36645  22223690.1174                   22223700.1254
 111172835.92048  86628277.36546  21155464.8674                   21155470.8094
 115523170.27847  90018152.96545  21983308.6804                   21983317.3014
 11  7 24  1  5 30.0000000  0  9G12G05G04G27G28G17G09G02G10
 122450154.869 6  95415623.547 6  23301455.398
 129582812.790 5 100973746.418 6  24658800.945
 105762436.11548  82412437.87446  20125893.0234                   20125900.9844
 119023608.18847  92745693.63945  22649435.8284                   22649444.7774
 121372880.44647  94576200.12244  23096455.8834                   23096464.9144
 115789512.757 7  90225704.281 7  22033988.523
 116818663.34647  91027656.87245  22229877.2974                   22229885.6254
 111125386.66848  86591303.94746  21146435.5234                   21146440.7734
 115448020.52247  89959594.77545  21969009.0394                   21969017.0044
 11  7 24  1  6  0.0000000  0 10G12G05G20G04G27G28G17G09G02G10
 122356708.458 7  95342808.208 6  23283673.320
 129477777.286 5 100891900.872 5  24638814.109
 132715348.90314                  25254900.148
 105798487.71648  82440530.01946  20132753.5634                   20132761.1764
 119058085.54147  92772559.07744  22655996.6334                   22656005.5744
 121458028.60047  94642549.28744  23112659.7114                   23112667.9734
 115829711.128 7  90257027.663 7  22041638.117
 116851730.06747  91053423.17045  22236170.1024                   22236177.3754
 111078305.11748  86554617.04546  21137476.3754                   21137482.3714
 115373227.00947  89901314.17145  21954776.0554                   21954784.0124
 11  7 24  1  6 30.0000000  0  9G12G05G04G27G28G17G09G02G10
 122263387.384 7  95270090.507 6  23265914.992
 129372659.904 5 100809991.570 5  24618809.500
 105834990.18648  82468973.49746  20139699.4224                   20139707.2814
 119092955.33846  92799730.33744  22662632.0634                   22662641.6094
 121543481.74247  94709136.14744  23128920.3984                   23128928.4104
 115870006.315 7  90288426.505 7  22049306.672
 116885354.08647  91079623.69245  22242568.1644                   22242576.6054
 111031592.87748  86518217.94546  21128587.0944                   21128592.5434
 115298794.21547  89843314.63845  21940611.7424                   21940619.9804
 11  7 24  1  7  0.0000000  0  9G12G05G04G27G28G17G09G02G10
 122170192.700 7  95197471.250 7  23248180.672
 129267462.491 6 100728019.821 5  24598791.352
 105871940.88148  82497766.23846  20146730.8834                   20146739.1994
 119128214.67147  92827205.11744  22669341.9534                   22669350.7154
 121629237.79347  94775959.02244  23145239.8524                   23145247.4614
 115910398.072 7  90319900.601 7  22056992.078
 116919532.40947  91106256.15045  22249072.0314                   22249080.6524
 110985249.27648  86482106.07546  21119768.0084                   21119773.0664
 115224724.53747  89785598.04345  21926516.6174                   21926525.2194
 11  7 24  1  7 30.0000000  0  9G12G05G04G27G28G17G09G02G10
 122077127.211 7  95124952.670 6  23230470.359
 129162187.643 6 100645987.728 6  24578757.734
 105909337.64248  82526906.57246  20153847.7734                   20153855.5314
 119163862.11347  92854982.29945  22676126.2424                   22676134.4264
 121715295.62047  94843017.04544  23161615.8364                   23161623.8794
 115950886.735 7  90351450.200 7  22064697.313
 116954262.85547  91133318.82345  22255681.1564                   22255689.3834
 110939274.91148  86446281.92746  21111019.5004                   21111025.1454
 115151021.15847  89728166.87845  21912491.1414                   21912499.7464
 11  7 24  1  8  0.0000000  0  9G12G05G04G27G28G17G09G02G10
 121984193.114 7  95052536.503 6  23212786.063
 129056837.814 6 100563897.199 6  24558708.836
 105947178.41948  82556392.89246  20161048.0314                   20161056.1994
 119199895.38947  92883060.15545  22682982.4304                   22682991.3164
 121801653.51446  94910308.89143  23178049.3364                   23178057.7034
 115991472.554 7  90383075.505 7  22072420.383
 116989543.19647  91160809.98645  22262395.1804                   22262402.5354
 110893669.63048  86410745.39646  21102341.1334                   21102346.9144
 115077687.15447  89671023.52745  21898536.2974                   21898544.4144
 11  7 24  1  8 30.0000000  0  9G12G05G04G27G28G17G09G02G10
 121891392.634 7  94980224.486 6  23195126.695
 128951415.048 6 100481749.885 6  24538648.852
 105985460.65048  82586223.21746  20168333.5864                   20168341.2544
 119236312.04547  92911436.74945  22689912.1564                   22689921.2934
 121888309.87846  94977833.25643  23194539.4224                   23194547.8164
 116032155.515 7  90414776.543 7  22080161.836
 117025370.82347  91188727.59145  22269212.7504                   22269220.8914
 110848433.07348  86375496.16546  21093732.6024                   21093738.4264
 115004725.57347  89614170.38745  21884652.2814                   21884660.3954
 11  7 24  1  9  0.0000000  0  9G12G05G04G27G28G17G09G02G10
 121798727.866 7  94908018.207 6  23177492.867
 128845922.554 6 100399548.254 6  24518573.961
 106024182.85248  82616396.37046  20175701.7194                   20175710.1254
 119273110.49647  92940110.84144  22696914.9224                   22696923.3834
 121975263.69347  95045589.42143  23211086.8444                   23211094.0124
 116072936.679 7  90446554.039 7  22087922.523
 117061743.73947  91217070.10545  22276133.9694                   22276143.0394
 110803566.02048  86340534.86046  21085194.9534                   21085200.6804
 114932139.81347  89557610.10045  21870839.2504                   21870847.9104
 11  7 24  1  9 30.0000000  0  9G12G05G04G27G28G17G09G02G10
 121706201.468 7  94835919.765 6  23159885.336
 128740362.915 6 100317294.262 6  24498486.563
 106063342.72348  82646910.56646  20183153.6414                   20183161.7154
 119310288.78547  92969080.92044  22703989.2114                   22703998.1724
 122062513.41546  95113576.14943  23227688.9224                   23227696.4304
 116113815.952 7  90478408.010 7  22095701.414
 117098659.71847  91245835.78844  22283158.9454                   22283167.3874
 110759068.55148  86305861.54346  21076727.0234                   21076732.3484
 114859932.95847  89501345.06045  21857099.0864                   21857106.7934
 11  7 24  1 10  0.0000000  0  9G12G05G04G27G28G17G09G02G10
 121613815.714 7  94763930.877 6  23142305.500
 128634738.673 6 100234989.969 6  24478386.352
 106102938.12947  82677764.13446  20190688.2734                   20190696.1134
 119347844.85846  92998345.38444  22711136.0554                   22711144.5234
 122150057.73346  95181792.44843  23244347.5394                   23244355.4064
 116154793.452 7  90510338.548 7  22103499.375
 117136116.42247  91275022.81445  22290286.5634                   22290295.6294
 110714940.73848  86271476.24146  21068330.1174                   21068335.2154
 114788108.51547  89445378.02145  21843430.9614                   21843439.9924
 11  7 24  1 10 30.0000000  0  9G12G05G04G27G28G17G09G02G10
 121521573.165 7  94692053.601 6  23124752.727
 128529052.204 6 100152637.190 6  24458274.313
 106142966.91548  82708955.40146  20198305.5784                   20198313.5164
 119385776.51846  93027902.48344  22718354.3914                   22718362.9924
 122237894.82546  95250236.87343  23261062.9614                   23261071.3134
 116195869.879 7  90542346.162 7  22111315.047
 117174111.49347  91304629.31245  22297517.1954                   22297525.9694
 110671182.69648  86237379.10846  21060003.4454                   21060009.2074
 114716669.09247  89389710.96945  21829836.1414                   21829845.2114
 11  7 24  1 11  0.0000000  0  9G12G05G04G27G28G17G09G02G10
 121429476.029 7  94620289.677 6  23107225.820
 128423306.697 6 100070238.381 6  24438151.789
 106183427.23848  82740482.92646  20206005.0314                   20206012.3714
 119424082.06847  93057750.93244  22725643.7504                   22725652.7114
 122326023.44647  95318908.49843  23277833.2814                   23277841.6604
 116237045.226 7  90574430.831 7  22119151.047
 117212642.54447  91334653.48745  22304849.3134                   22304857.5554
 110627794.48748  86203570.14746  21051746.4304                   21051751.7304
 114645618.29547  89334346.76345  21816316.0864                   21816324.2814
 11  7 24  1 11 30.0000000  0  9G12G05G04G27G28G17G09G02G10
 121337526.448 7  94548640.732 6  23089729.570
 128317504.427 6  99987795.361 6  24418018.414
 106224316.39148  82772344.61346  20213785.7664                   20213793.6884
 119462758.77546  93087888.62044  22733003.6334                   22733012.8364
 122414442.07047  95387806.05843  23294659.5394                   23294667.4224
 116278319.902 7  90606592.897 7  22127005.242
 117251707.03747  91365093.32645  22312282.9384                   22312291.7544
 110584775.92948  86170049.22246  21043560.5864                   21043565.5044
 114574958.55047  89279287.25945  21802869.8594                   21802878.3874
 11  7 24  1 12  0.0000000  0  9G12G05G04G27G28G17G09G02G10
 121245726.770 7  94477108.561 6  23072260.227
 128211648.029 6  99905310.127 6  24397873.703
 106265632.52748  82804539.01046  20221648.1724                   20221655.7894
 119501804.92647  93118314.15744  22740433.6024                   22740443.1844
 122503149.32047  95456928.57144  23311540.0864                   23311547.1374
 116319694.452 8  90638832.805 7  22134878.930
 117291302.58947  91395946.94445  22319817.8204                   22319827.1844
 110542127.27648  86136816.52646  21035444.4844                   21035449.9024
 114504693.32947  89224535.20045  21789498.7114                   21789507.2854
 11  7 24  1 12 30.0000000  0  9G12G05G04G27G28G17G09G02G10
 121154079.846 7  94405695.427 6  23054820.422
 128105740.229 6  99822784.811 6  24377721.672
 106307373.84648  82837064.71046  20229591.2974                   20229598.8204
 119541218.83147  93149026.28144  22747934.1484                   22747943.4734
 122592143.98547  95526275.00844  23328474.9694                   23328483.1684
 116361169.240 8  90671150.828 7  22142770.844
 117331427.22547  91427212.90745  22327453.0864                   22327462.2384
 110499849.16348  86103872.57246  21027399.2664                   21027404.4774
 114434826.08947  89170093.22145  21776203.8204                   21776211.7074
 11  7 24  1 13  0.0000000  0  9G12G05G04G27G28G17G09G02G10
 121062587.497 7  94334402.757 6  23037409.398
 127999783.364 6  99740221.308 6  24357557.203
 106349537.53348  82869919.53746  20237614.7504                   20237622.0554
 119580998.06147  93180023.05944  22755503.4534                   22755512.9454
 122681424.08347  95595843.86644  23345464.5234                   23345472.2424
 116402744.757 8  90703547.304 7  22150682.969
 117372077.95247  91458888.77845  22335188.7734                   22335198.0124
 110457940.96148  86071216.86246  21019423.7734                   21019429.6764
 114365359.09847  89115963.14945  21762984.8204                   21762992.5904
 11  7 24  1 13 30.0000000  0  9G12G05G04G27G28G17G09G02G10
 120971252.341 7  94263232.564 7  23020029.188
 127893780.485 6  99657621.937 5  24337385.125
 106392121.89348  82903102.16246  20245718.5314                   20245725.8094
 119621140.53347  93211302.87544  22763142.8674                   22763151.8554
 122770988.31047  95665634.16144  23362507.8524                   23362515.9574
 116444421.245 7  90736022.478 7  22158613.953
 117413252.76047  91490973.00545  22343023.6414                   22343032.7034
 110416402.84348  86038849.53146  21011519.6024                   21011525.7034
 114296295.98047  89062147.76445  21749842.6564                   21749850.5594
 11  7 24  1 14  0.0000000  0  9G12G05G04G27G28G17G09G02G10
 120880076.950 7  94192186.856 7  23002678.836
 127787734.177 6  99574988.779 6  24317204.859
 106435124.56948  82936610.76446  20253901.3524                   20253909.1254
 119661643.89247  93242863.92745  22770850.1024                   22770859.7074
 122860835.00847  95735644.54043  23379604.8204                   23379613.7034
 116486198.741 7  90768576.362 7  22166563.797
 117454948.95647  91523463.52844  22350958.7344                   22350967.4804
 110375234.74848  86006770.51546  21003685.7344                   21003690.9734
 114227639.41547  89008649.18545  21736777.3364                   21736785.4064
 11  7 24  1 14 30.0000000  0  9G12G05G04G27G28G17G09G02G10
 120789063.810 7  94121267.605 7  22985359.695
 127681647.133 6  99492323.774 6  24297017.773
 106478543.48248  82970443.68646  20262163.4614                   20262171.7504
 119702506.18747  93274704.67245  22778626.5944                   22778635.5274
 122950962.75546  95805873.95343  23396755.9694                   23396764.6844
 116528077.978 7  90801209.520 7  22174533.523
 117497164.18147  91556358.48344  22358991.9694                   22359000.4144
 110334437.05248  85974980.13046  20995922.0704                   20995927.8754
 114159392.71547  88955469.97645  21723790.3204                   21723798.1914
 11  7 24  1 15  0.0000000  0  9G12G05G04G27G28G17G09G02G10
 120698215.119 7  94050476.514 7  22968071.727
 127575521.878 6  99409629.005 6  24276822.266
 106522376.56048  83004599.34346  20270504.7974                   20270513.2384
 119743725.40647  93306823.53144  22786470.7274                   22786479.2344
 123041369.91046  95876321.06043  23413959.6334                   23413968.6764
 116570059.503 8  90833922.385 7  22182521.656
 117539895.75447  91589655.80244  22367122.5864                   22367131.2734
 110294009.64048  85943478.28446  20988229.0864                   20988235.0824
 114091558.87847  88902612.48545  21710882.0084                   21710889.6844
 11  7 24  1 15 30.0000000  0  9G12G05G04G27G28G17G09G02G10
 120607533.427 7  93979815.502 7  22950815.102
 127469361.364 6  99326906.801 6  24256619.625
 106566621.55548  83039075.95546  20278924.5004                   20278932.2464
 119785299.23746  93339218.70944  22794380.9774                   22794389.8634
 123132055.07146  95946984.80443  23431216.2894                   23431225.1724
 116612143.452 7  90866715.080 7  22190529.922
 117583141.35447  91623353.63545  22375353.0314                   22375361.4694
 110253952.39248  85912264.86346  20980606.3674                   20980612.3094
 114024140.92147  88850079.04045  21698052.7814                   21698060.5704
 11  7 24  1 16  0.0000000  0  9G12G05G04G27G28G17G09G02G10
 120517021.032 7  93909286.468 7  22933591.602
 127363168.245 6  99244159.138 6  24236412.289
 106611276.00748  83073871.62046  20287421.7814                   20287429.7704
 119827225.37747  93371888.38745  22802359.8914                   22802368.6564
 123223016.55446  96017863.83143  23448524.6954                   23448534.6024
 116654329.946 7  90899587.662 7  22198557.750
 117626898.08447  91657449.76545  22383679.0474                   22383688.6024
 110214265.14448  85881339.76246  20973054.2814                   20973059.7854
 113957141.61647  88797871.83845  21685302.7424                   21685310.9844
 11  7 24  1 16 30.0000000  0  9G12G05G04G27G28G17G09G02G10
 120426680.313 7  93838891.132 7  22916399.828
 127256944.862 6  99161387.911 6  24216198.563
 106656337.66248  83108984.59746  20295997.0084                   20296004.3444
 119869501.52747  93404830.80745  22810404.7114                   22810414.3014
 123314252.68746  96088956.89443  23465887.4064                   23465895.6524
 116696619.752 7  90932540.757 7  22206605.563
 117671163.64047  91691942.33744  22392103.2504                   22392111.2544
 110174947.87848  85850702.95346  20965572.3674                   20965578.0234
 113890563.86747  88745993.11045  21672633.8524                   21672641.4224
 11  7 24  1 17  0.0000000  0  9G12G05G04G27G28G17G09G02G10
 120336513.655 7  93768631.438 7  22899242.227
 127150693.836 6  99078595.152 6  24195978.156
 106701804.53148  83144413.32446  20304648.8914                   20304656.8914
 119912125.65546  93438044.36144  22818515.3754                   22818524.6564
 123405762.14946  96160262.92843  23483302.1174                   23483309.8524
 116739013.133 7  90965574.544 7  22214672.602
 117715934.98447  91726829.07544  22400622.9304                   22400630.6054
 110136000.38248  85820354.27746  20958160.7734                   20958165.9964
 113824410.91847  88694445.39845  21660045.4844                   21660053.4024
 11  7 24  1 17 30.0000000  0  9G12G05G04G27G28G17G09G02G10
 120246523.657 7  93698509.397 6  22882117.211
 127044418.663 6  98995783.578 6  24175755.203
 106747674.44548  83180156.10146  20313377.5234                   20313385.4774
 119955095.65647  93471527.43744  22826693.3054                   22826701.9064
 123497543.04646  96231780.44143  23500766.7034                   23500775.2034
 116781510.579 7  90998689.463 7  22222759.672
 117761210.23047  91762108.46644  22409238.2034                   22409246.9224
 110097423.20248  85790294.14846  20950819.8204                   20950825.7504
 113758685.92347  88643231.16345  21647538.3914                   21647546.2704
 11  7 24  1 18  0.0000000  0  9G12G05G04G27G28G17G09G02G10
 120156712.658 7  93628526.884 6  22865026.922
 126938121.445 6  98912954.746 6  24155527.992
 106793944.86048  83216210.96646  20322182.8284                   20322190.4804
 119998408.93547  93505278.02545  22834934.6954                   22834944.1174
 123589593.66946  96303508.15543  23518283.8134                   23518291.5704
 116824112.744 7  91031885.954 7  22230866.805
 117806986.29047  91797778.08345  22417949.3284                   22417957.8164
 110059215.78448  85760522.17646  20943549.1804                   20943555.3674
 113693391.50247  88592352.44145  21635112.9774                   21635120.9144
 11  7 24  1 18 30.0000000  0  9G12G05G04G27G28G17G09G02G10
 120067083.310 7  93558685.811 6  22847971.656
 126831804.976 6  98830110.894 6  24135296.258
 106840613.73948  83252576.32246  20331063.5944                   20331071.4344
 120042063.47147  93539294.49844  22843241.4844                   22843251.5474
 123681912.72047  96375445.01643  23535851.7974                   23535859.1024
 116866819.409 7  91065163.877 7  22238993.109
 117853260.62147  91833835.97844  22426754.6954                   22426763.8364
 110021378.13048  85731038.30746  20936349.1724                   20936354.0664
 113628530.91147  88541811.76145  21622770.6484                   21622778.6764
 11  7 24  1 19  0.0000000  0  9G12G05G04G27G28G17G09G02G10
 119977637.446 7  93488987.777 6  22830950.258
 126725472.184 6  98747254.328 6  24115061.828
 106887678.75348  83289250.33746  20340019.8204                   20340027.9574
 120086056.80147  93573574.96444  22851613.5234                   22851622.7934
 123774498.30146  96447589.60943  23553469.9534                   23553477.5004
 116909631.242 7  91098523.745 7  22247139.797
 117900030.33247  91870279.85944  22435655.3754                   22435664.3444
 109983909.78948  85701842.21246  20929218.8364                   20929224.7074
 113564106.31747  88491610.82445  21610510.7424                   21610519.2734
 11  7 24  1 19 30.0000000  0  9G12G05G04G27G28G17G09G02G10
 119888378.035 7  93419434.980 6  22813964.469
 126619125.580 6  98664386.992 6  24094825.289
 106935137.66648  83326231.30846  20349050.9614                   20349058.7704
 120130386.76146  93608117.79944  22860049.1804                   22860058.5004
 123867348.83147  96519940.62343  23571139.0234                   23571146.4454
 116952548.962 7  91131966.111 7  22255307.773
 117947292.60747  91907107.63044  22444648.3984                   22444657.5314
 109946811.01548  85672934.10646  20922159.3834                   20922164.5124
 113500121.06447  88441752.23445  21598334.4924                   21598342.6604
 11  7 24  1 20  0.0000000  0  9G12G05G04G27G28G17G09G02G10
 119799307.404 7  93350029.332 7  22797015.414
 126512768.236 6  98581511.302 6  24074585.359
 106982988.47448  83363517.64346  20358156.5864                   20358164.5904
 120175051.30446  93642921.27044  22868549.4924                   22868558.1374
 123960462.68346  96592496.85343  23588856.9774                   23588865.3634
 116995572.851 7  91165491.212 7  22263493.750
 117995045.34147  91944317.50544  22453735.9144                   22453745.1254
 109910081.72548  85644313.89346  20915169.8524                   20915175.5204
 113436578.48847  88392238.57945  21586242.9774                   21586250.9804
 11  7 24  1 20 30.0000000  0  9G12G05G04G27G28G17G09G02G10
 119710428.322 7  93280772.957 6  22780101.914
 126406402.511 6  98498629.048 6  24054344.898
 107031228.58148  83401107.33346  20367336.5394                   20367344.2974
 120220047.76946  93677983.44044  22877111.1484                   22877120.9064
 124053838.19846  96665257.00143  23606626.2664                   23606634.5044
 117038703.122 7  91199099.238 7  22271702.258
 118043285.38947  91981907.11745  22462915.0314                   22462923.9844
 109873721.75448  85615981.47046  20908251.1094                   20908256.8364
 113373481.05147  88343071.78445  21574235.6334                   21574243.8134
 11  7 24  1 21  0.0000000  0  9G12G05G04G27G28G17G09G02G10
 119621743.092 7  93211667.594 7  22763225.719
 126300031.472 6  98415742.624 6  24034102.398
 107079856.05648  83438998.85546  20376589.8594                   20376597.9144
 120265374.00846  93713302.56344  22885736.9144                   22885745.7074
 124147473.90446  96738219.84243  23624444.0234                   23624453.2814
 117081940.123 7  91232790.375 7  22279928.852
 118092010.44647  92019874.66344  22472187.9144                   22472196.5864
 109837731.01548  85587936.77046  20901401.9844                   20901407.2854
 113310831.80547  88294254.21645  21562314.2114                   21562322.0984
 11  7 24  1 21 30.0000000  0  9G12G05G04G27G28G17G09G02G10
 119533253.737 7  93142714.868 7  22746386.523
 126193657.589 6  98332854.011 6  24013860.172
 107128867.99648  83477189.97246  20385916.2974                   20385923.9654
 120311027.47746  93748876.66144  22894424.0314                   22894433.3714
 124241367.72546  96811383.86343  23642311.1644                   23642319.6604
 117125284.724 7  91266565.418 7  22288178.359
 118141217.10547  92058217.50245  22481551.9694                   22481560.2774
 109802108.89748  85560179.29846  20894623.5234                   20894628.6454
 113248633.28447  88245787.88845  21550478.3054                   21550485.7464
 11  7 24  1 22  0.0000000  0  9G12G05G04G27G28G17G09G02G10
 119444963.609 7  93073917.391 6  22729585.859
 126087284.438 6  98249965.952 6  23993618.414
 107178262.96048  83515679.54846  20395315.9534                   20395324.1374
 120357006.65547  93784704.55144  22903173.9694                   22903183.4024
 124335518.45046  96884748.02043  23660227.9924                   23660236.7194
 117168736.981 7  91300424.324 7  22296446.570
 118190903.29547  92096933.97844  22491006.8284                   22491015.3054
 109766856.34448  85532709.79346  20887915.2664                   20887920.3874
 113186889.01647  88197675.50645  21538728.5634                   21538736.0554
 11  7 24  1 22 30.0000000  0  9G12G05G04G27G28G17G09G02G10
 119356874.527 7  93005276.571 6  22712823.109
 125980913.832 7  98167079.844 5  23973376.656
 107228037.87848  83554465.19946  20404787.9384                   20404796.1884
 120403308.46046  93820783.85444  22911985.0004                   22911994.2544
 124429923.69646  96958310.53842  23678193.2034                   23678201.3094
 117212297.289 7  91334367.405 7  22304735.313
 118241065.42647  92136021.32544  22500551.5784                   22500561.1254
 109731971.72448  85505527.01446  20881276.9844                   20881282.1914
 113125601.11947  88149918.72445  21527065.1484                   21527073.6454
 11  7 24  1 23  0.0000000  0  9G12G05G04G27G28G17G09G02G10
 119268989.054 7  92936794.433 7  22696098.602
 125874548.852 7  98084198.082 6  23953136.156
 107278190.94348  83593545.50546  20414331.8054                   20414339.8324
 120449930.61846  93857112.81144  22920856.5394                   22920865.9104
 124524581.95546  97032070.22543  23696205.4534                   23696214.1414
 117255966.203 7  91368395.136 7  22313045.477
 118291700.95847  92175477.57044  22510187.5704                   22510195.9304
 109697455.31948  85478631.13446  20874708.7814                   20874713.7584
 113064772.45947  88102519.80645  21515490.4844                   21515498.5744
 11  7 24  1 23 30.0000000  0  9G12G05G04G27G28G17G09G02G10
 119181310.007 7  92868473.144 7  22679413.844
 125768192.375 6  98001323.030 6  23932896.609
 107328719.82048  83632918.65046  20423946.7114                   20423954.4384
 120496870.86847  93893689.59844  22929789.7194                   22929798.2274
 124619491.74146  97106025.83443  23714266.5704                   23714275.1414
 117299744.232 7  91402507.905 7  22321376.594
 118342807.39847  92215300.72444  22519912.9534                   22519921.0394
 109663307.31548  85452022.33646  20868210.2814                   20868215.1094
 113004406.11147  88055481.11045  21504003.5234                   21504010.8204
 11  7 24  1 24  0.0000000  0  9G12G05G04G27G28G17G09G02G10
 119093839.670 7  92800314.467 7  22662768.984
 125661847.236 6  97918456.856 6  23912659.734
 107379622.19148  83672582.81646  20433633.7344                   20433641.1024
 120544126.85947  93930512.42344  22938781.7894                   22938790.1454
 124714651.30546  97180176.10443  23732375.0944                   23732383.7194
 117343631.829 7  91436706.025 7  22329727.758
 118394381.56847  92255488.34845  22529726.7584                   22529735.8444
 109629527.20048  85425700.21446  20861781.8984                   20861787.8984
 112944504.76747  88008804.76845  21492604.5164                   21492612.2234
 11  7 24  1 24 30.0000000  0  9G12G05G04G27G28G17G09G02G10
 119006580.470 7  92732320.368 7  22646163.734
 125555516.043 6  97835601.508 6  23892424.492
 107430895.41548  83712535.97646  20443390.1954                   20443398.1254
 120591695.85247  93967579.15044  22947833.2814                   22947842.2384
 124810058.57746  97254519.45443  23750529.9064                   23750539.7344
 117387629.223 7  91470989.706 7  22338100.203
 118446420.55547  92296038.16645  22539630.1564                   22539638.0704
 109596114.49048  85399664.37646  20855423.6804                   20855429.2814
 112885070.81647  87962492.62945  21481294.9224                   21481301.8794
 11  7 24  1 25  0.0000000  0  9G12G05G04G27G28G17G09G02G10
 118919535.226 7  92664492.979 7  22629599.758
 125449201.813 6  97752759.396 6  23872194.477
 107482537.81348  83752776.79446  20453217.5004                   20453225.5394
 120639575.85246  94004888.21044  22956944.6804                   22956953.7704
 124905712.40646  97329054.84043  23768732.7274                   23768742.0744
 117431737.177 7  91505359.540 7  22346493.945
 118498921.74347  92336948.17344  22549620.2734                   22549628.9694
 109563069.47248  85373915.04746  20849135.5554                   20849141.1094
 112826107.76147  87916547.42245  21470074.3914                   21470080.9454
 11  7 24  1 25 30.0000000  0  9G12G05G04G27G28G17G09G02G10
 118832706.269 7  92596834.121 7  22613076.867
 125342907.544 6  97669932.811 6  23851967.805
 107534546.70948  83793303.20646  20463114.7504                   20463122.2384
 120687764.37446  94042437.65744  22966115.2194                   22966124.2894
 125001610.43246  97403780.54443  23786981.1484                   23786989.3984
 117475956.069 7  91539815.802 7  22354908.188
 118551882.09647  92378215.95845  22559698.5704                   22559707.1914
 109530391.68448  85348451.87446  20842917.0704                   20842922.8674
 112767617.92747  87870970.96445  21458943.6564                   21458951.3674
 11  7 24  1 26  0.0000000  0  9G12G05G04G27G28G17G09G02G10
 118746095.705 7  92529345.406 6  22596594.523
 125236635.596 6  97587123.651 6  23831744.695
 107586919.81448  83834113.39346  20473081.0784                   20473088.6054
 120736258.80547  94080225.45144  22975343.1414                   22975352.5044
 125097751.08546  97478695.29243  23805277.2504                   23805285.0864
 117520286.543 7  91574359.038 7  22363344.477
 118605298.80747  92419839.32844  22569862.7194                   22569872.5824
 109498080.58848  85323274.42046  20836768.0314                   20836773.6134
 112709603.91347  87825765.27745  21447904.0314                   21447911.6214
 11  7 24  1 26 30.0000000  0  9G12G05G04G27G28G17G09G02G10
 118659706.610 7  92462029.296 6  22580155.563
 125130389.006 6  97504334.224 6  23811526.766
 107639654.90148  83875205.65746  20483116.2344                   20483123.5084
 120785056.74146  94118249.74544  22984629.0474                   22984637.9384
 125194132.77146  97553797.86143  23823617.6954                   23823625.7584
 117564728.714 7  91608989.298 7  22371800.766
 118659168.93447  92461816.02945  22580114.5164                   22580123.5394
 109466136.27648  85298382.77646  20830689.5784                   20830694.9024
 112652068.61047  87780932.61445  21436955.0314                   21436963.1024
 11  7 24  1 27  0.0000000  0  9G12G05G04G27G28G17G09G02G10
 118573541.506 7  92394887.733 6  22563759.484
 125024170.722 6  97421566.902 6  23791313.359
 107692749.62448  83916578.15346  20493219.6954                   20493227.5944
 120834155.90847  94156508.76144  22993973.0084                   22993981.5514
 125290753.40446  97629086.67643  23842004.1254                   23842011.7974
 117609283.118 7  91643706.991 7  22380279.414
 118713489.26747  92504143.50144  22590451.6334                   22590460.5594
 109434558.38448  85273776.65646  20824680.6884                   20824685.5864
 112595014.61947  87736474.98645  21426097.9534                   21426106.4264
 11  7 24  1 27 30.0000000  0  9G12G05G04G27G28G17G09G02G10
 118487602.571 7  92327922.441 7  22547405.727
 124917983.375 6  97338823.681 6  23771106.836
 107746201.50148  83958228.96046  20503391.3914                   20503399.1174
 120883553.82046  94195000.57844  23003372.7814                   23003382.2114
 125387611.33246  97704560.37443  23860435.6094                   23860443.5784
 117653950.368 7  91678512.630 7  22388779.758
 118768256.82947  92546819.46644  22600873.6804                   22600882.6724
 109403346.37848  85249455.65646  20818741.1724                   20818745.9414
 112538444.50347  87692394.42045  21415333.5084                   21415341.1254
 11  7 24  1 28  0.0000000  0  9G12G05G04G27G28G17G09G02G10
 118401892.603 7  92261135.522 7  22531095.180
 124811830.005 6  97256106.916 6  23750907.148
 107800008.53048  84000156.49946  20513630.2274                   20513637.9884
 120933248.06646  94233723.28044  23012830.0704                   23012838.8324
 125484704.70746  97780217.43743  23878912.4454                   23878920.0084
 117698730.786 7  91713406.481 7  22397300.844
 118823469.25047  92589842.09444  22611379.6174                   22611387.8324
 109372500.09048  85225419.62146  20812871.2894                   20812876.1844
 112482361.30048  87648693.23945  21404660.6484                   21404668.9654
 11  7 24  1 28 30.0000000  0  9G12G05G04G27G28G17G09G02G10
 118316414.032 7  92194528.936 7  22514828.891
 124705713.191 6  97173418.653 6  23730712.563
 107854167.97748  84042358.66546  20523936.5004                   20523943.8874
 120983235.89747  94272674.76744  23022341.7734                   23022351.3594
 125582031.33846  97856056.36543  23897432.0234                   23897440.2464
 117743624.768 7  91748388.800 7  22405844.125
 118879123.09346  92633208.71344  22621970.7274                   22621979.4494
 109342018.74548  85201667.96046  20807071.0004                   20807075.9304
 112426767.44847  87605373.38045  21394081.9614                   21394089.5864
 11  7 24  1 29  0.0000000  0  9G12G05G04G27G28G17G09G02G10
 118231169.357 7  92128104.590 7  22498607.633
 124599636.071 7  97090761.286 6  23710526.266
 107908677.75248  84084833.80046  20534309.2734                   20534317.2304
 121033515.07247  94311853.26644  23031909.6254                   23031919.3794
 125679589.98646  97932076.09843  23915997.2974                   23916005.4654
 117788632.811 7  91783459.979 7  22414408.344
 118935215.46347  92676917.02144  22632645.4844                   22632654.0514
 109311902.43548  85178200.74246  20801339.7344                   20801344.9344
 112371665.64648  87562436.95445  21383595.7194                   21383603.8404
 11  7 24  1 29 30.0000000  0  9G12G05G04G27G28G17G09G02G10
 118146161.333 7  92061864.639 7  22482430.984
 124493601.397 7  97008136.986 5  23690349.164
 107963535.71448  84127580.25346  20544748.8594                   20544756.3754
 121084083.33247  94351257.03244  23041533.1174                   23041542.3324
 125777378.61946  98008274.99642  23934605.7344                   23934613.7734
 117833755.515 7  91818620.521 7  22422994.734
 118991743.62647  92720964.93745  22643401.2894                   22643410.1334
 109282150.92148  85155017.77746  20795677.9694                   20795683.5634
 112317058.60847  87519886.04845  21373204.9304                   21373213.0004
 11  7 24  1 30  0.0000000  0  9G12G05G04G27G28G17G09G02G10
 118061392.290 7  91995810.903 7  22466299.305
 124387612.003 7  96925547.973 6  23670179.805
 108018739.35148  84170596.07646  20555253.6804                   20555261.1604
 121134938.14246  94390884.09844  23051209.5314                   23051220.2774
 125875395.41246  98084651.65542  23953257.3204                   23953266.3134
 117878993.747 7  91853871.100 7  22431603.914
 119048704.40947  92765349.95245  22654241.5234                   22654249.1884
 109252763.95648  85132118.88246  20790085.8984                   20790091.2974
 112262948.94048  87477722.70045  21362908.3674                   21362915.7274
 11  7 24  1 30 30.0000000  0  9G12G05G04G27G28G17G09G02G10
 117976864.810 7  91929945.384 7  22450214.914
 124281670.787 7  96842996.468 6  23650020.063
 108074286.41848  84213879.50446  20565823.9774                   20565831.5634
 121186076.90646  94430732.43044  23060941.3594                   23060950.6484
 125973638.42846  98161204.64643  23971952.6884                   23971961.0394
 117924347.404 7  91889211.593 6  22440233.609
 119106094.73447  92810069.67344  22665161.5084                   22665170.7234
 109223740.86548  85109503.50846  20784563.0474                   20784568.2894
 112209338.62247  87435948.46345  21352706.2114                   21352714.0864
 11  7 24  1 31  0.0000000  0  9G12G05G04G27G28G17G09G02G10
 117892581.497 7  91864270.139 7  22434176.172
 124175780.543 7  96760484.724 6  23629869.117
 108130174.46748  84257428.62946  20576458.9064                   20576466.8594
 121237497.19746  94470800.14144  23070727.0554                   23070735.5234
 126072105.90146  98237932.53742  23990690.2114                   23990698.8554
 117969817.048 7  91924642.453 7  22448886.945
 119163911.52246  92855121.70644  22676164.4774                   22676172.8014
 109195081.37548  85087171.47246  20779109.1804                   20779114.8524
 112156230.59747  87394565.64345  21342600.0704                   21342607.6174
 11  7 24  1 31 30.0000000  0  9G12G05G04G27G28G17G09G02G10
 117808544.900 7  91798787.104 7  22418184.313
 124069944.143 7  96678014.948 6  23609728.555
 108186401.02648  84301241.52946  20587158.5634                   20587165.8674
 121289196.14146  94511084.98244  23080564.1724                   23080574.0274
 126170795.87346  98314833.72843  24009470.9304                   24009479.9774
 118015403.269 7  91960164.214 7  22457562.289
 119222151.54647  92900503.48245  22687246.3444                   22687255.7854
 109166784.90348  85065122.30246  20773724.3054                   20773730.1994
 112103627.36647  87353576.15045  21332590.3444                   21332597.7074
 11  7 24  1 32  0.0000000  0  9G12G05G04G27G28G17G09G02G10
 117724757.580 7  91733498.333 7  22402240.211
 123964164.247 7  96595589.214 6  23589599.016
 108242963.92248  84345316.51946  20597922.2034                   20597929.8134
 121341171.32247  94551585.07544  23090455.3284                   23090464.6024
 126269706.43346  98391906.84742  24028291.8524                   24028301.0824
 118061106.411 7  91995777.051 7  22466258.789
 119280811.92747  92946212.85845  22698409.8754                   22698418.1174
 109138851.08248  85043355.70446  20768409.1724                   20768414.4224
 112051531.19448  87312981.77845  21322676.1954                   21322684.4344
 11  7 24  1 32 30.0000000  0  9G12G05G04G27G28G17G09G02G10
 117641221.874 7  91668405.594 7  22386343.836
 123858444.142 7  96513210.001 6  23569482.008
 108299860.92648  84389651.85446  20608749.2034                   20608756.3444
 121393420.35947  94592298.60044  23100397.6174                   23100407.5084
 126368835.78046  98469150.43143  24047156.9924                   24047165.3714
 118106927.222 7  92031481.605 7  22474977.789
 119339889.64547  92992247.43645  22709652.2504                   22709660.9144
 109111279.57248  85021871.44546  20763162.1334                   20763167.8014
 111999945.03447  87272784.82645  21312859.9144                   21312868.4224
 11  7 24  1 33  0.0000000  0  9G12G05G04G27G28G17G09G02G10
 117557940.711 7  91603511.217 7  22370496.156
 123752786.890 7  96430879.796 6  23549375.578
 108357089.81448  84434245.78546  20619639.2814                   20619646.9654
 121445940.98946  94633223.72744  23110391.9534                   23110401.5004
 126468182.07346  98546563.11143  24066061.4064                   24066069.7584
 118152866.361 7  92067278.309 7  22483719.898
 119399381.58747  93038604.76244  22720971.9224                   22720981.8524
 109084070.36648  85000669.49146  20757984.5554                   20757989.9024
 111948871.43447  87232987.23845  21303140.6414                   21303149.3484
 11  7 24  1 33 30.0000000  0  9G12G05G04G27G28G17G09G02G10
 117474916.461 7  91538816.996 7  22354697.109
 123647195.160 7  96348600.684 6  23529282.844
 108414647.93248  84479096.25946  20630592.5704                   20630600.0004
 121498730.38347  94674358.31944  23120437.5634                   23120446.2034
 126567743.26846  98624143.18743  24085008.3754                   24085016.2934
 118198923.769 7  92103167.220 7  22492485.016
 119459284.30947  93085282.20244  22732371.9304                   22732380.6174
 109057222.45148  84979749.05446  20752875.4454                   20752880.8754
 111898312.48647  87193590.70945  21293520.0314                   21293528.0474
 11  7 24  1 34  0.0000000  0  9G12G05G04G27G28G17G09G02G10
 117392151.508 7  91474324.807 7  22338947.563
 123541671.593 7  96266374.661 6  23509201.766
 108472532.94548  84524201.46246  20641607.6174                   20641615.0084
 121551785.70547  94715700.11544  23130533.5234                   23130542.9384
 126667517.15346  98701889.05743  24103993.7504                   24104001.9184
 118245100.316 7  92139148.959 7  22501271.297
 119519594.74547  93132277.33644  22743847.9614                   22743856.5944
 109030735.22148  84959109.68546  20747835.0704                   20747840.2464
 111848270.54448  87154597.01545  21283997.3284                   21284005.1414
 11  7 24  1 34 30.0000000  0  9G12G05G04G27G28G17G09G02G10
 117309648.659 7  91410036.879 7  22323247.359
 123436219.376 6  96184204.226 6  23489134.406
 108530742.59148  84569559.62346  20652684.6724                   20652692.2464
 121605104.56046  94757247.24444  23140679.7114                   23140689.2034
 126767502.45446  98779799.62243  24123020.0164                   24123028.8324
 118291396.334 7  92175223.796 7  22510081.086
 119580310.15247  93179587.94444  22755402.0634                   22755411.1804
 109004608.67848  84938751.37046  20742863.2584                   20742868.6914
 111798748.13848  87116008.15046  21274573.6804                   21274581.4574
 11  7 24  1 35  0.0000000  0  9G12G05G04G27G28G17G09G02G10
 117227410.330 7  91345955.085 7  22307597.477
 123330841.086 6  96102091.450 6  23469081.508
 108589274.59548  84615168.98346  20663822.8674                   20663830.4614
 121658684.58847  94798997.87544  23150875.4224                   23150886.0744
 126867696.95446  98857873.21643  24142087.6334                   24142095.3874
 118337812.368 7  92211392.142 6  22518914.352
 119641427.35947  93227211.67944  22767033.2194                   22767041.3404
 108978842.23748  84918673.64746  20737960.5004                   20737965.6214
 111749747.45848  87077825.83745  21265248.9304                   21265256.7304
 11  7 24  1 35 30.0000000  0  9G12G05G04G27G28G17G09G02G10
 117145439.046 7  91282081.376 7  22291999.422
 123225539.835 6  96020038.680 6  23449043.547
 108648126.45948  84661027.57446  20675021.6414                   20675029.4964
 121712522.68047  94840949.59044  23161121.1564                   23161130.6054
 126968098.50946  98936108.14243  24161192.9924                   24161200.8754
 118384348.765 7  92247654.241 7  22527769.688
 119702942.91147  93275145.83244  22778738.8834                   22778747.1094
 108953434.89048  84898875.73346  20733125.4454                   20733131.4064
 111701270.98648  87040051.98445  21256023.9924                   21256031.9024
 11  7 24  1 36  0.0000000  0  9G12G05G04G27G28G17G09G02G10
 117063737.332 7  91218417.703 7  22276452.469
 123120318.089 6  95938047.839 6  23429021.313
 108707295.60048  84707133.39846  20686281.2894                   20686289.2424
 121766616.19547  94883100.34044  23171414.2974                   23171423.5554
 127068705.27946  99014502.93842  24180336.7584                   24180345.5004
 118431005.931 7  92284010.487 7  22536648.289
 119764853.47647  93323387.78644  22790519.9534                   22790528.3674
 108928386.18848  84879357.28346  20728358.7814                   20728364.5004
 111653320.90148  87002688.31545  21246899.7424                   21246907.5824
 11  7 24  1 36 30.0000000  0  9G12G05G04G27G28G17G09G02G10
 116982308.187 7  91154966.434 7  22260956.953
 123015179.375 7  95856121.721 6  23409012.414
 108766780.14948  84753485.00146  20697600.7424                   20697608.4024
 121820963.40947  94925448.78044  23181756.5234                   23181765.4104
 127169515.47446  99093056.30343  24199521.0164                   24199529.6914
 118477784.701 7  92320461.498 6  22545550.258
 119827156.32547  93371935.38944  22802375.6094                   22802385.0984
 108903696.46648  84860118.55146  20723660.3594                   20723666.0314
 111605900.04648  86965737.03345  21237875.5474                   21237882.8874
 11  7 24  1 37  0.0000000  0  9G12G05G04G27G28G17G09G02G10
 116901153.720 7  91091729.188 7  22245513.609
 122910126.355 7  95774262.372 6  23389021.977
 108826577.67948  84800080.47446  20708980.0864                   20708987.5084
 121875561.42447  94967992.67744  23192145.9224                   23192155.3364
 127270527.06646  99171766.52643  24218742.5004                   24218752.0744
 118524685.495 7  92357007.611 6  22554475.164
 119889848.08247  93420786.08244  22814305.4144                   22814314.5314
 108879364.77248  84841158.81146  20719030.1724                   20719035.7854
 111559010.41848  86929199.68345  21228952.5944                   21228960.2544
 11  7 24  1 37 30.0000000  0  9G12G05G04G27G28G17G09G02G10
 116820276.777 7  91028708.206 7  22230123.016
 122805162.284 7  95692472.288 6  23369047.672
 108886686.16148  84846918.25746  20720418.2894                   20720426.1054
 121930407.58047  95010729.87644  23202582.9384                   23202592.6764
 127371738.14846  99250632.23142  24238002.4844                   24238011.2304
 118571709.401 7  92393649.621 7  22563422.648
 119952925.81446  93469937.46044  22826309.0944                   22826318.3714
 108855390.94648  84822477.92746  20714468.0314                   20714473.5594
 111512654.88147  86893078.51145  21220131.7344                   21220139.0394
 11  7 24  1 38  0.0000000  0  9G12G05G04G27G28G17G09G02G10
 116739679.803 7  90965905.372 7  22214786.164
 122700289.992 7  95610753.718 6  23349090.977
 108947102.54648  84893995.95846  20731915.0944                   20731922.7934
 121985499.06147  95053658.24244  23213066.9224                   23213076.3364
 127473146.78945  99329651.86142  24257300.8594                   24257309.0354
 118618855.976 7  92430387.199 7  22572394.789
 120016386.08546  93519386.96744  22838384.3594                   22838394.2234
 108831773.95848  84804075.09346  20709974.2114                   20709979.4304
 111466835.07648  86857374.79745  21211412.0944                   21211419.6454
 11  7 24  1 38 30.0000000  0  9G12G05G04G27G28G17G09G02G10
 116659365.321 7  90903322.706 7  22199502.656
 122595511.928 6  95529108.638 6  23329152.617
 109007824.73148  84941311.94546  20743470.0634                   20743477.5664
 122040833.12346  95096775.63343  23223596.2504                   23223606.1094
 127574750.76646  99408823.72043  24276635.5164                   24276643.6724
 118666125.954 7  92467220.945 7  22581390.547
 120080225.62346  93569131.98144  22850533.5784                   22850542.5004
 108808513.14548  84785949.81646  20705547.6334                   20705553.2974
 111421553.13648  86822090.19545  21202795.4614                   21202803.2424
 11  7 24  1 39  0.0000000  0  9G12G05G04G27G28G17G09G02G10
 116579335.934 7  90840962.198 7  22184273.938
 122490831.158 7  95447539.350 6  23309232.344
 109068850.22048  84988864.27246  20755082.8204                   20755091.1024
 122096407.07146  95140079.93043  23234171.9844                   23234181.2814
 127676547.96646  99488146.09043  24296007.1564                   24296015.5474
 118713519.754 7  92504151.180 7  22590409.039
 120144441.15947  93619169.99644  22862753.5554                   22862762.4534
 108785607.96248  84768101.65146  20701188.8674                   20701194.2814
 111376811.16148  86787226.35045  21194281.2584                   21194288.7384
 11  7 24  1 39 30.0000000  0  9G12G05G04G27G28G17G09G02G10
 116499594.408 7  90778825.989 7  22169099.898
 122386251.050 7  95366048.506 6  23289330.711
 109130177.33148  85036651.64546  20766752.9064                   20766760.7734
 122152218.74746  95183569.48144  23244792.8054                   23244801.8954
 127778536.79345  99567617.82543  24315414.8134                   24315423.3094
 118761038.462 7  92541178.765 7  22599451.328
 120209029.83947  93669498.74144  22875044.4304                   22875053.2234
 108763058.37548  84750530.56946  20696897.9304                   20696902.9344
 111332612.23848  86752785.65145  21185870.5004                   21185878.2544
 11  7 24  1 40  0.0000000  0  9G12G05G04G27G28G17G09G02G10
 116420143.426 7  90716916.161 7  22153980.031
 122281774.174 7  95284638.098 6  23269449.898
 109191803.41448  85084671.96546  20778480.0474                   20778487.9454
 122208265.40047  95227242.10644  23255458.2974                   23255467.4104
 127880715.13546  99647237.26743  24334858.4844                   24334867.3404
 118808682.225 7  92578303.792 6  22608517.492
 120273988.27147  93720115.70344  22887405.4534                   22887414.6954
 108740863.74248  84733236.07046  20692674.5704                   20692679.7194
 111288958.33648  86718769.65245  21177562.8984                   21177570.8554
 11  7 24  1 40 30.0000000  0  9G12G05G04G27G28G17G09G02G10
 116340985.048 7  90655234.351 7  22138916.820
 122177403.666 7  95203310.554 6  23249588.875
 109253725.83248  85132923.20946  20790263.4924                   20790271.0394
 122264543.93446  95271095.46844  23266167.1334                   23266176.7194
 127983080.87446  99727002.72342  24354337.9384                   24354346.4304
 118856451.474 7  92615526.595 7  22617607.727
 120339312.74747  93771017.85744  22899836.1804                   22899845.1644
 108719022.79948  84716217.16446  20688517.8594                   20688523.5314
 111245850.90047  86685179.46645  21169360.1484                   21169367.9414
 11  7 24  1 41  0.0000000  0  9G12G05G04G27G28G17G09G02G10
 116262121.950 7  90593782.633 7  22123909.719
 122073142.213 7  95122068.019 6  23229748.406
 109315942.32348  85181403.58246  20802103.2814                   20802111.0434
 122321051.97647  95315127.64344  23276920.7274                   23276930.5944
 128085632.08346  99806912.66642  24373852.0394                   24373861.6684
 118904346.761 7  92652847.608 7  22626722.055
 120405000.26347  93822202.89644  22912335.6884                   22912345.6524
 108697535.16248  84699473.57346  20684429.6884                   20684435.0204
 111203292.39248  86652017.02445  21161261.6564                   21161269.4614
 11  7 24  1 41 30.0000000  0  9G12G05G04G27G28G17G09G02G10
 116183557.025 7  90532563.232 7  22108958.906
 121968993.158 7  95040913.003 6  23209929.578
 109378450.68448  85230111.40746  20813998.0234                   20814006.1644
 122377787.11046  95359336.77044  23287717.2664                   23287727.0784
 128188366.87146  99886965.65843  24393403.6804                   24393411.0984
 118952368.744 7  92690267.346 7  22635860.234
 120471047.91346  93873668.59244  22924903.4694                   22924913.8324
 108676400.49148  84683005.02746  20680407.3364                   20680413.1804
 111161285.50447  86619284.40845  21153267.6804                   21153275.2894
 11  7 24  1 42  0.0000000  0  9G12G05G04G27G28G17G09G02G10
 116105292.673 7  90471578.071 7  22094065.602
 121864959.324 7  94959847.797 6  23190132.930
 109441249.02748  85279045.18846  20825948.1884                   20825955.9264
 122434746.79746  95403720.88643  23298555.5084                   23298566.3594
 128291283.49846  99967160.33242  24412986.1254                   24412995.1954
 119000517.988 7  92727786.247 7  22645022.891
 120537452.21546  93925412.19644  22937540.6954                   22937550.1214
 108655618.43348  84666811.24046  20676452.1804                   20676458.1294
 111119832.10647  86586983.09445  21145379.7584                   21145387.7384
 11  7 24  1 42 30.0000000  0  9G12G05G04G27G28G17G09G02G10
 116027331.510 7  90410829.171 7  22079230.172
 121761043.610 7  94878874.640 6  23170358.016
 109504334.52848  85328202.72646  20837953.1024                   20837960.8404
 122491928.16746  95448277.72144  23309437.2584                   23309446.7974
 128394379.41946 100047494.61043  24432605.9224                   24432614.6844
 119048795.018 7  92765404.702 7  22654209.547
 120604210.04947  93977431.27544  22950243.7664                   22950253.3794
 108635188.15148  84650891.57046  20672564.5474                   20672570.1054
 111078933.92947  86555114.41645  21137597.1954                   21137604.5554
 11  7 24  1 43  0.0000000  0  9G12G05G04G27G28G17G09G02G10
 115949676.030 7  90350318.425 7  22064453.320
 121657249.079 7  94797995.908 6  23150606.117
 109567704.72248  85377582.10546  20850012.1024                   20850019.6054
 122549328.36246  95493005.09544  23320360.0084                   23320370.5204
 128497652.58346 100127967.07443  24452258.1804                   24452267.8874
 119097199.973 7  92803122.850 7  22663420.438
 120671317.63147  94029722.90144  22963014.4534                   22963024.1214
 108615108.50748  84635245.11246  20668743.8284                   20668748.8554
 111038593.10748  86523680.03845  21129920.3754                   21129927.9574
 11  7 24  1 43 30.0000000  0  9G12G05G04G27G28G17G09G02G10
 115872329.066 7  90290048.099 7  22049734.195
 121553578.608 7  94717213.827 6  23130878.477
 109631357.82648  85427181.92246  20862124.9534                   20862132.5164
 122606945.18346  95537901.28644  23331324.3914                   23331334.6884
 128601101.31946 100208576.40342  24471944.2034                   24471953.3134
 119145733.862 7  92840941.464 7  22672656.055
 120738772.25347  94082284.94344  22975850.7424                   22975860.3054
 108595379.83548  84619872.15546  20664989.2974                   20664994.5004
 110998812.05248  86492681.84745  21122350.5554                   21122358.3914
 11  7 24  1 44  0.0000000  0 10G12G05G25G04G27G28G17G09G02G10
 115795292.708 7  90230019.778 7  22035074.922
 121450034.685 7  94636530.373 7  23111175.016
 132011955.48615 102866589.52214  25121050.578
 109695291.00148  85476999.98646  20874290.6414                   20874298.1054
 122664775.45846  95582963.79944  23342328.7504                   23342339.8634
 128704723.23546 100289320.65142  24491663.0554                   24491670.8364
 119194396.873 7  92878860.705 7  22681916.219
 120806570.18047  94135114.50144  22988752.8524                   22988761.4024
 108576000.66148  84604771.53046  20661301.6414                   20661306.8404
 110959592.24748  86462121.00345  21114887.1414                   21114894.7344
 11  7 24  1 44 30.0000000  0 10G12G05G25G04G27G28G17G09G02G10
 115718569.503 7  90170235.502 7  22020475.133
 121346620.486 7  94555947.983 6  23091494.570
 131906771.183 4 102784627.816 4  25101033.820
 109759501.95548  85527034.50346  20886509.6884                   20886517.5984
 122722816.28046  95628190.35744  23353373.9924                   23353384.3554
 128808516.11646 100370198.10642  24511413.1644                   24511421.9774
 119243189.606 7  92916881.024 7  22691201.352
 120874708.04246  94188208.94244  23001718.1804                   23001727.8984
 108556970.23848  84589942.66246  20657680.4694                   20657685.3094
 110920935.43548  86431998.85245  21107530.7424                   21107538.2034
 11  7 24  1 45  0.0000000  0  9G12G05G04G27G28G17G09G02G10
 115642162.317 7  90110697.436 7  22005935.453
 121243339.263 7  94475469.184 6  23071841.328
 109823988.70048  85577283.92146  20898781.1724                   20898788.8404
 122781065.39546  95673579.17744  23364459.1174                   23364468.4304
 128912478.25845 100451207.38642  24531196.8984                   24531206.1914
 119292112.503 7  92955002.765 7  22700511.031
 120943182.67246  94241565.78344  23014749.6254                   23014758.1604
 108538288.08648  84575385.15846  20654125.1564                   20654130.1094
 110882843.99148  86402317.23245  21100282.6094                   21100289.9184
 11  7 24  1 45 30.0000000  0  9G12G05G04G27G28G17G09G02G10
 115566074.410 7  90051408.183 7  21991455.969
 121140194.009 7  94395096.336 6  23052213.898
 109888748.85248  85627746.36946  20911104.4304                   20911112.1564
 122839520.31746  95719128.42544  23375582.6724                   23375592.4104
 129016607.86746 100532347.18242  24551012.7274                   24551021.3324
 119341166.350 7  92993226.508 7  22709845.844
 121011991.02647  94295182.68144  23027842.9144                   23027852.1294
 108519954.17548  84561099.03046  20650636.2894                   20650641.8834
 110845320.23648  86373077.99345  21093141.6254                   21093149.1564
 11  7 24  1 46  0.0000000  0  9G12G05G04G27G28G17G09G02G10
 115490307.505 7  89992369.048 7  21977037.453
 121037187.641 7  94314831.741 7  23032611.609
 109953779.95048  85678419.95946  20923479.4774                   20923487.2154
 122898177.99146  95764835.68443  23386745.0864                   23386754.2384
 129120902.89445 100613615.86842  24570859.7424                   24570868.3914
 119390351.513 7  93031552.585 6  22719205.328
 121081129.47347  94349056.78144  23040999.5864                   23041008.2114
 108501967.10448  84547083.16346  20647213.3284                   20647218.6414
 110808365.56548  86344282.17645  21086109.4064                   21086116.7664
 11  7 24  1 46 30.0000000  0  9G12G05G04G27G28G17G09G02G10
 115414863.752 7  89933581.754 7  21962681.086
 120934323.180 7  94234677.714 6  23013037.211
 110019079.57948  85729302.77946  20935905.4924                   20935913.4184
 122957035.70346  95810698.79643  23397944.4924                   23397954.3014
 129225360.56246 100695011.26942  24590736.7504                   24590745.3714
 119439668.612 7  93069981.513 7  22728590.586
 121150594.60947  94403185.41244  23054218.0474                   23054227.1454
 108484326.25148  84533337.08646  20643856.5704                   20643862.4264
 110771982.17148  86315931.50446  21079185.7814                   21079193.5204
 11  7 24  1 47  0.0000000  0 10G12G05G25G04G27G28G17G09G02G10
 115339742.786 7  89875046.017 7  21948386.352
 120831599.749 7  94154633.527 7  22993489.359
                                  25001139.422
 110084642.08948  85780390.44646  20948381.6724                   20948389.3164
 123016087.18746  95856712.88943  23409181.7344                   23409191.3754
 129329975.38145 100776529.18542  24610644.2344                   24610652.9104
 119489114.456 7  93108510.756 7  22737999.828
 121220379.68747  94457563.40844  23067497.7194                   23067506.4964
 108467027.28448  84519857.39846  20640564.7424                   20640569.6294
 110736168.25048  86288024.59045  21072370.7814                   21072378.3674
 11  7 24  1 47 30.0000000  0 10G12G05G25G04G27G28G17G09G02G10
 115264951.755 7  89816767.323 7  21934154.555
 120729024.934 7  94074705.173 7  22973970.273
 131276859.27214 102293758.96914  24981185.945
 110150469.51648  85831684.53646  20960908.2974                   20960915.7344
 123075334.34446  95902879.43443  23420456.2344                   23420466.1254
 129434749.74145 100858171.35342  24630584.0394                   24630591.0004
 119538693.998 7  93147144.163 7  22747433.766
 121290485.87047  94512191.58444  23080838.6024                   23080847.7424
 108450074.28248  84506647.29946  20637338.7974                   20637343.6884
 110700930.04848  86260566.28245  21065665.0314                   21065672.6844
 11  7 24  1 48  0.0000000  0  9G12G05G04G27G28G17G09G02G10
 115190494.836 8  89758749.012 7  21919985.836
 120626603.667 7  93994896.472 7  22954480.266
 110216561.47448  85883184.78046  20973485.2664                   20973492.7234
 123134776.18946  95949197.69143  23431767.5704                   23431777.5984
 129539683.46355 100939937.73552  24650548.9694                   24650560.4614
 119588409.642 7  93185883.631 7  22756894.719
 121360911.44047  94567068.61744  23094239.9614                   23094249.1644
 108433468.20848  84493707.53546  20634178.5004                   20634183.9384
 110666270.89548  86233559.18445  21059069.2114                   21059077.0784
 11  7 24  1 48 30.0000000  0 10G12G05G25G04G27G28G17G09G02G10
 115116372.444 7  89700991.367 7  21905880.484
 120524336.795 7  93915208.113 7  22935019.641
                                  24941306.945
 110282913.35048  85934887.53846  20986111.3914                   20986118.8594
 123194407.92546  95995663.92343  23443114.9774                   23443125.0744
 129644772.83445 101021825.42942  24670549.4384                   24670558.8014
 119638260.014 7  93224728.075 7  22766380.813
 121431651.04947  94622190.31544  23107701.3674                   23107711.1684
 108417206.10448  84481035.78946  20631084.1644                   20631089.3954
 110632190.90648  86207003.37545  21052583.8054                   21052591.5274
 11  7 24  1 49  0.0000000  0 10G12G05G25G04G27G28G17G09G02G10
 115042586.362 7  89643495.771 7  21891839.648
 120422226.581 7  93835641.812 7  22915588.891
                                  24921396.414
 110349522.64848  85986790.87046  20998786.8054                   20998794.4384
 123254225.94346  96042275.33243  23454497.7734                   23454507.4414
 129750014.86055 101103832.10052  24690576.2034                   24690586.0824
 119688244.703 7  93263677.151 7  22775892.813
 121502700.65547  94677553.58044  23121221.5784                   23121231.1054
 108401286.55848  84468630.97346  20628054.7114                   20628060.1024
 110598691.10348  86180899.66645  21046209.3524                   21046216.8164
 11  7 24  1 49 30.0000000  0 10G12G05G25G04G27G28G17G09G02G10
 114969139.711 7  89586264.679 7  21877862.977
 120320276.213 7  93756200.042 6  22896187.969
                                  24901497.570
 110416387.13448  86038893.06846  21011510.8134                   21011517.9734
 123314228.00746  96089030.14343  23465916.4454                   23465926.0744
 129855407.64354 101185956.25952  24710629.2504                   24710642.3164
 119738364.763 7  93302731.719 7  22785430.773
 121574057.26347  94733156.05144  23134800.9774                   23134809.5004
 108385709.43848  84456492.99446  20625090.3204                   20625095.3714
 110565773.65248  86155249.75845  21039945.0004                   21039952.7934
 11  7 24  1 50  0.0000000  0  8G12G05G04G27G17G09G02G10
 114896035.182 7  89529300.198 7  21863951.313
 120218489.282 7  93676885.643 7  22876818.516
 110483505.01848  86091192.70946  21024283.1254                   21024290.8444
 123374411.81446  96135926.62343  23477369.0704                   23477378.9064
 119788621.144 7  93341892.588 7  22794994.234
 121645717.78947  94788995.34544  23148437.3914                   23148446.5554
 108370474.22448  84444621.42146  20622191.1174                   20622195.9574
 110533440.39948  86130055.04845  21033792.4064                   21033800.2544
 11  7 24  1 50 30.0000000  0 10G12G05G25G04G27G28G17G09G02G10
 114823274.733 7  89472603.809 7  21850105.734
 120116867.982 7  93597700.294 7  22857479.891
 130649360.57515 101804777.96514  24861756.945
 110550873.35148  86143687.51546  21037102.4224                   21037109.9304
 123434774.15046  96182962.09943  23488856.0394                   23488865.6644
 130066688.05215                  24750828.000
 119839013.401 7  93381159.315 6  22804583.141
 121717678.21747  94845068.38344  23162130.6724                   23162139.9804
 108355579.43248  84433015.10146  20619356.9614                   20619361.4774
 110501692.56647  86105316.49746  21027751.1644                   21027758.9144
 11  7 24  1 51  0.0000000  0 10G12G05G25G04G27G28G17G09G02G10
 114750859.257 7  89416176.231 7  21836325.156
 120015413.467 7  93518644.939 7  22838173.813
 130545045.967 5 101723493.801 4  24841903.672
 110618487.91548  86196374.19446  21049969.3204                   21049976.7384
 123495310.18446  96230133.00443  23500374.5084                   23500384.6914
 130172518.53115                  24770966.875
 119889540.332 7  93420530.943 6  22814198.211
 121789933.69747  94901371.31844  23175880.5164                   23175890.1564
 108341022.30548  84421671.89746  20616586.3524                   20616591.4774
 110470529.96548  86081033.99446  21021821.0164                   21021828.8834
 11  7 24  1 51 30.0000000  0 10G12G05G25G04G27G28G17G09G02G10
 114678793.120 7  89360020.854 7  21822611.047
 119914130.692 7  93439723.340 6  22818901.109
 130440814.579 5 101642274.511 4  24822068.414
 110686348.35148  86249252.44646  21062882.5944                   21062889.7424
 123556019.10846  96277438.60943  23511928.4694                   23511937.5704
 130278491.06915                  24791133.500
 119940204.183 7  93460009.282 7  22823838.766
 121862482.59747  94957902.88944  23189686.6024                   23189695.7734
 108326803.95248  84410592.68746  20613880.7734                   20613886.3634
 110439955.91248  86057210.08646  21016002.8754                   21016010.6174
 11  7 24  1 52  0.0000000  0 10G12G05G25G04G27G28G17G09G02G10
 114607078.980 7  89304139.762 7  21808965.070
 119813022.553 7  93360937.893 6  22799660.805
 130336669.32815 101561122.34514  24802251.000
 110754452.54048  86302320.62446  21075842.1564                   21075850.1684
 123616898.43946  96324877.00444  23523512.7734                   23523523.1644
 130384603.71015                  24811326.242
 119991006.202 7  93499595.265 7  22833506.234
 121935321.47147  95014660.35444  23203546.7034                   23203556.3524
 108312923.88548  84399777.05746  20611239.5004                   20611245.1134
 110409972.41348  86033846.35846  21010297.9614                   21010304.7664
 11  7 24  1 52 30.0000000  0 10G12G05G25G04G27G28G17G09G02G10
 114535718.767 7  89248534.475 7  21795385.555
 119712091.946 7  93282290.774 7  22780453.281
                                  24782448.922
 110822797.84748  86355576.71146  21088847.6414                   21088856.1054
 123677945.08147  96372445.75844  23535130.2344                   23535139.8244
 130490854.361 4                  24831546.016
 120041946.208 7  93539288.763 7  22843199.375
 122008446.49546  95071640.88744  23217462.0084                   23217472.1414
 108299381.22048  84389224.35146  20608661.8444                   20608667.8444
 110380580.59948  86010943.67246  21004704.5314                   21004711.6604
 11  7 24  1 53  0.0000000  0 10G12G05G25G04G27G28G17G09G02G10
 114464715.400 8  89193207.239 7  21781873.711
 119611341.921 7  93203784.365 6  22761281.273
 130128645.25316 101399025.65215  24762665.258
 110891382.16048  86409019.03846  21101899.0554                   21101906.5314
 123739156.18447  96420142.67144  23546777.8134                   23546787.6684
 130597240.75915                  24851791.867
 120093025.046 7  93579090.454 6  22852919.109
 122081854.47647  95128841.86144  23231431.8054                   23231441.2234
 108286174.85148  84378933.68846  20606149.6804                   20606154.5434
 110351781.96247  85988503.21246  20999224.3834                   20999231.4304
 11  7 24  1 53 30.0000000  0  9G12G05G25G04G27G17G09G02G10
 114394071.532 8  89138160.112 7  21768430.602
 119510775.666 7  93125421.129 6  22742143.961
 130024771.739 5 101318085.248 4  24742898.297
 110960203.45748  86462646.02346  21114995.4694                   21115002.5084
 123800529.31747  96467965.84344  23558456.7034                   23558466.6414
 120144243.272 7  93619000.775 6  22862666.523
 122155542.16947  95186260.79944  23245453.0864                   23245463.2624
 108273304.38048  84368904.75846  20603700.0784                   20603704.8984
 110323578.51347  85966526.51446  20993857.3054                   20993864.9414
 11  7 24  1 54  0.0000000  0  9G12G05G25G04G27G17G09G02G10
 114323790.000 7  89083395.311 7  21755056.547
 119410396.508 7  93047203.660 6  22723042.922
 129920993.988 5 101237219.454 4  24723150.820
 111029259.60748  86516456.00646  21128136.2194                   21128144.0554
 123862062.12746  96515913.42444  23570165.6884                   23570175.9734
 120195601.619 7  93659020.314 6  22872439.570
 122229506.51247  95243895.27444  23259528.9224                   23259537.5004
 108260769.38348  84359137.24546  20601314.8134                   20601320.0354
 110295971.87847  85945014.88846  20988603.7584                   20988611.3094
 11  7 24  1 54 30.0000000  0  9G12G05G25G04G27G17G09G02G10
 114253872.111 7  89028913.866 7  21741751.781
 119310206.143 7  92969133.331 6  22703977.320
 129817313.62515 101156429.49914  24703420.813
 111098547.83148  86570446.81946  21141321.1644                   21141329.2154
 123923750.92946  96563982.56444  23581904.8134                   23581915.4494
 120247099.667 7  93699148.677 6  22882239.055
 122303743.31847  95301742.09844  23273655.6094                   23273664.5744
 108248567.55648  84349629.34146  20598993.3204                   20598998.4454
 110268962.73947  85923968.84346  20983463.9774                   20983471.4184
 11  7 24  1 55  0.0000000  0 10G12G05G25G04G27G28G17G09G02G10
 114184320.502 8  88974717.840 7  21728516.484
 119210207.773 7  92891212.569 7  22684948.484
 129713732.808 5 101075707.19914  24683710.547
 111168065.52148  86624616.43346  21154550.3364                   21154558.0904
 123985592.97946  96612171.08644  23593673.8364                   23593683.7074
 131023829.86615                  24933019.266
 120298737.897 7  93739386.264 6  22892065.289
 122378249.10347  95359798.53544  23287832.7344                   23287843.4964
 108236698.28448  84340380.57546  20596734.3754                   20596739.4224
 110242552.45447  85903389.42046  20978438.5944                   20978445.6524
 11  7 24  1 55 30.0000000  0 10G12G05G25G04G27G28G17G09G02G10
 114115137.894 7  88920809.337 7  21715351.695
 119110404.619 7  92813444.010 7  22665956.570
 129610254.289 5 100995074.645 4  24664018.945
 111237810.55348  86678963.20546  21167822.5474                   21167830.0864
 124047585.56946  96660476.90744  23605469.9304                   23605480.8754
 131130862.42615                  24953388.734
 120350517.069 7  93779733.660 7  22901918.859
 122453020.65647  95418062.03543  23302062.7194                   23302071.6174
 108225161.13748  84331390.62346  20594538.7664                   20594543.5904
 110216742.72347  85883277.97046  20973527.0314                   20973534.1134
 11  7 24  1 56  0.0000000  0  9G12G05G25G04G27G17G09G02G10
 114046327.525 7  88867190.898 7  21702256.984
 119010799.965 7  92735830.076 7  22647001.461
 129506881.062 5 100914524.121 4  24644348.328
 111307781.50848  86733486.03846  21181137.2664                   21181144.8554
 124109726.47046  96708898.35444  23617295.0634                   23617305.4454
 120402438.221 7  93820191.713 7  22911799.398
 122528054.94447  95476530.29044  23316341.2734                   23316350.6764
 108213955.70548  84322659.12846  20592406.5704                   20592411.2774
 110191535.19547  85863635.77746  20968730.2584                   20968737.7934
 11  7 24  1 56 30.0000000  0  9G12G05G25G04G27G17G09G02G10
 113977891.341 7  88813864.019 7  21689234.063
 118911396.932 7  92658373.243 7  22628086.367
 129403615.322 5 100834057.310 4  24624696.297
 111377975.72948  86788182.82245  21194495.1484                   21194502.5824
 124172012.77446  96757433.00944  23629148.1174                   23629158.0274
 120454501.584 7  93860760.555 7  22921707.086
 122603348.50047  95535200.57144  23330668.6024                   23330678.0164
 108203080.67148  84314185.09246  20590337.0704                   20590342.1334
 110166931.20947  85844463.86146  20964047.5084                   20964055.5704
 11  7 24  1 57  0.0000000  0 10G12G05G25G04G27G28G17G09G02G10
 113909831.581 7  88760830.482 7  21676282.617
 118812197.909 7  92581075.366 7  22609209.227
 129300459.287 5 100753668.98813  24605067.695
 111448390.67148  86843051.61746  21207894.4534                   21207902.3404
 124234441.09946  96806078.41244  23641028.5634                   23641037.7274
 131452693.70715                  25014628.750
 120506707.344 7  93901440.369 7  22931641.273
 122678897.32247  95594069.73644  23345044.8594                   23345054.2894
 108192534.95748  84305967.68946  20588330.4064                   20588335.4534
 110142931.85848  85825763.08146  20959480.8364                   20959488.7384
 11  7 24  1 57 30.0000000  0 10G12G05G25G04G27G28G17G09G02G10
 113842151.068 8  88708092.411 7  21663403.836
 118713206.210 7  92503939.022 7  22590371.211
 129197415.711 5                  24585458.313
 111519024.68148  86898091.10946  21221335.5634                   21221343.5594
 124297009.03046  96854832.59844  23652934.0784                   23652944.6604
 131560205.26515                  25035091.484
 120559056.289 7  93942231.757 6  22941602.953
 122754698.18146  95653135.28544  23359468.8524                   23359479.0664
 108182318.07348  84298006.50246  20586386.1024                   20586391.6024
 110119538.52848  85807534.53246  20955029.1334                   20955036.7704
 11  7 24  1 58  0.0000000  0 10G12G05G25G04G27G28G17G09G02G10
 113774852.023 7  88655651.631 7  21650596.750
 118614424.854 7  92426966.629 7  22571574.031
 129094486.921 5 100593164.18314  24565872.188
 111589875.26748  86953299.36846  21234818.0394                   21234826.0984
 124359714.04946  96903693.54743  23664866.3674                   23664876.6844
                                  25055572.969
 120611549.014 7  93983135.187 6  22951591.469
 122830747.71847  95712394.67243  23373941.2344                   23373950.6884
 108172429.08048  84290300.82346  20584503.8914                   20584509.6214
 110096752.63448  85789779.31646  20950693.6174                   20950701.1254
 11  7 24  1 58 30.0000000  0  9G12G05G25G04G27G17G09G02G10
 113707937.676 8  88603510.607 7  21637863.234
 118515857.207 7  92350160.722 7  22552817.281
 128991675.825 6 100513051.717 5  24546306.711
 111660940.63547  87008674.98046  21248341.1254                   21248349.6564
 124422553.74446  96952659.49643  23676824.3134                   23676834.3914
 120664186.404 7  94024151.351 6  22961608.602
 122907043.21147  95771845.65243  23388460.3834                   23388468.6994
 108162867.35448  84282850.16746  20582684.6484                   20582689.5514
 110074575.86548  85772498.74345  20946473.1094                   20946480.1484
 11  7 24  1 59  0.0000000  0  9G12G05G25G04G27G17G09G02G10
 113641410.049 7  88551670.905 7  21625203.539
 118417505.988 7  92273523.454 7  22534101.211
 128888984.692 6 100433032.743 4  24526765.750
 111732218.24547  87064215.98646  21261904.8984                   21261913.0004
 124485524.89546  97001727.85443  23688808.0164                   23688817.5704
 120716968.712 7  94065280.439 6  22971652.102
 122983580.63147  95831485.16344  23403024.8364                   23403034.1684
 108153631.85348  84275653.68646  20580927.5004                   20580931.8404
 110053009.20147  85755693.57045  20942369.1414                   20942376.4694
 11  7 24  1 59 30.0000000  0  9G12G05G25G04G27G17G09G02G10
 113575271.574 7  88500134.459 7  21612617.945
 118319373.823 7  92197056.890 7  22515427.930
 128786415.721 6 100353108.920 5  24507247.250
 111803705.97547  87119920.70645  21275508.6804                   21275516.3754
 124548624.59746  97050896.47443  23700814.5394                   23700825.0274
 120769896.283 7  94106522.702 7  22981723.852
 123060356.56047  95891310.54143  23417634.9384                   23417644.0904
 108144721.45448  84268710.53546  20579231.3594                   20579236.5634
 110032053.65348  85739364.60846  20938381.4144                   20938388.6724
 11  7 24  2  0  0.0000000  0  9G12G05G25G04G27G17G09G02G10
 113509524.371 7  88448902.903 7  21600106.563
 118221463.784 7  92120763.433 7  22496795.836
 128683971.494 6 100273282.353 5  24487752.922
 111875401.50847  87175787.35945  21289151.7504                   21289159.6724
 124611850.17946  97100163.09043  23712846.9614                   23712857.1844
 120822969.564 7  94147878.502 7  22991823.688
 123137367.61647  95951319.06944  23432290.0164                   23432298.3714
 108136135.20148  84262019.97546  20577597.5234                   20577602.8164
 110011710.09048  85723512.49645  20934509.7974                   20934517.6374
 11  7 24  2  0 30.0000000  0  9G12G05G25G04G27G17G09G02G10
 113444171.457 7  88397978.577 7  21587670.188
 118123778.910 7  92044645.388 7  22478207.195
 128581654.681 6 100193555.062 5  24468282.625
 111947302.96147  87231814.46746  21302834.1884                   21302841.8874
 124675198.95446  97149525.76143  23724901.1484                   23724911.8794
 120876189.371 7  94189348.465 7  23001950.570
 123214610.50947  96011508.30244  23446988.6094                   23446997.3204
 108127872.55048  84255581.58046  20576025.4224                   20576030.5394
 109991980.18747  85708138.56745  20930755.8134                   20930762.8444
 11  7 24  2  1  0.0000000  0  9G12G05G25G04G27G17G09G02G10
 113379214.812 8  88347363.040 7  21575310.133
 118026322.395 7  91968705.341 7  22459661.492
 128479467.532 6 100113928.795 5  24448835.719
 112019407.85047  87288000.08446  21316555.4304                   21316563.2274
 124738668.22646  97198982.23643  23736979.1174                   23736989.6844
 120929556.015 7  94230932.853 6  23012105.227
 123292081.51746  96071875.29843  23461730.2424                   23461738.9924
 108119932.22148  84249394.34146  20574514.2344                   20574519.0274
 109972864.81147  85693243.49445  20927117.9064                   20927125.7934
 11  7 24  2  1 30.0000000  0  9G12G05G25G04G27G17G09G02G10
 113314657.020 7  88297058.323 7  21563024.680
 117929097.270 7  91892945.590 7  22441160.078
 128377412.844 5 100034405.719 5  24429416.305
 112091714.14947  87344342.66145  21330314.9454                   21330322.2584
 124802255.07546  97248530.42943  23749079.4144                   23749089.0784
 120983069.789 7  94272631.915 6  23022289.789
 123369777.45947  96132417.59644  23476515.6564                   23476524.8014
 108112313.40248  84243457.63646  20573064.0084                   20573069.7154
 109954365.10847  85678828.17045  20923597.7424                   20923605.0164
 11  7 24  2  2  0.0000000  0  9G12G05G25G04G27G17G09G02G10
 113250500.385 8  88247066.173 7  21550816.445
 117832106.041 7  91817368.083 7  22422703.133
 128275492.841 6  99954987.549 5  24410021.836
 112164219.73247  87400840.52245  21344112.3444                   21344120.0394
 124865956.72646  97298167.95843  23761201.3984                   23761212.0274
 121036731.400 7  94314446.180 6  23032500.391
 123447694.81147  96193132.38744  23491343.0164                   23491352.0904
 108105015.10948  84237770.66546  20571675.6414                   20571680.1414
 109936482.05547  85664893.35446  20920194.6884                   20920201.6764
 11  7 24  2  2 30.0000000  0  9G12G05G25G04G27G17G09G02G10
 113186747.498 8  88197388.649 7  21538684.148
 117735351.719 7  91741975.158 7  22404291.227
 128173710.183 6  99875676.312 5  24390653.500
 112236922.27948  87457491.85245  21357947.3444                   21357955.1954
 124929770.34747  97347892.78143  23773345.5634                   23773355.8914
 121090541.210 7  94356375.936 6  23042740.883
 123525829.95846  96254016.86043  23506211.1414                   23506221.2074
 108098036.35748  84232332.70346  20570347.4384                   20570352.3524
 109919216.58148  85651439.75946  20916909.1094                   20916916.1294
 11  7 24  2  3  0.0000000  0  9G12G05G25G04G27G17G09G02G10
 113123400.632 7  88148027.503 7  21526629.961
 117638837.361 7  91666769.220 7  22385925.531
 128072067.351 5  99796474.118 5  24371310.563
 112309819.66048  87514295.00845  21371818.8594                   21371826.8554
 124993693.41647  97397702.91344  23785509.7344                   23785519.4344
 121144499.857 7  94398421.637 6  23053009.242
 123604179.56447  96315068.39544  23521120.7424                   23521130.4804
 108091376.38748  84227143.14046  20569080.0944                   20569084.6294
 109902569.88048  85638468.32846  20913741.3444                   20913748.5594
 11  7 24  2  3 30.0000000  0  9G12G05G25G04G27G17G09G02G10
 113060462.127 7  88098984.570 7  21514652.867
 117542566.233 7  91591752.818 7  22367605.586
 127970566.818 6  99717382.898 5  24351994.523
 112382909.78047  87571248.34745  21385727.1414                   21385735.6724
 125057722.97947  97447596.00044  23797693.8754                   23797703.9734
 121198607.832 7  94440583.717 6  23063305.219
 123682740.21947  96376284.48144  23536070.5704                   23536079.9884
 108085034.13248  84222201.13346  20567873.2344                   20567878.3204
 109886542.90347  85625979.79246  20910691.6954                   20910698.9734
 11  7 24  2  4  0.0000000  0  9G12G05G25G04G27G17G09G02G10
 112997934.319 8  88050261.669 7  21502754.266
 117446540.536 7  91516927.674 7  22349332.688
 127869211.156 6  99638404.551 5  24332708.352
 112456190.35147  87628350.07445  21399671.9844                   21399680.1484
 125121856.07446  97497569.77843  23809898.0634                   23809908.8014
 121252865.471 7  94482862.409 6  23073629.773
 123761508.45946  96437662.28143  23551059.2664                   23551068.9654
 108079008.36448  84217505.74946  20566726.8204                   20566731.6374
 109871136.30648  85613974.66745  20907760.0394                   20907767.3714
 11  7 24  2  4 30.0000000  0  9G12G05G25G04G27G17G09G02G10
 112935819.806 8  88001860.805 7  21490934.258
 117350763.702 7  91442296.430 7  22331106.398
 127768002.940 6  99559541.024 6  24313448.703
 112529659.50248  87685598.75745  21413652.9614                   21413660.6844
 125186090.06546  97547622.10943  23822120.7344                   23822132.2074
 121307273.231 7  94525258.092 6  23083982.656
 123840480.97447  96499199.26243  23566087.0394                   23566096.7384
 108073298.15448  84213056.25246  20565639.9384                   20565645.2584
 109856351.60748  85602454.13746  20904946.1334                   20904954.0554
 11  7 24  2  5  0.0000000  0  9G12G05G25G04G27G17G09G02G10
 112874120.676 8  87953783.619 7  21479193.508
 117255238.559 7  91367861.337 7  22312928.797
 127666944.646 6  99480794.264 6  24294217.805
 112603314.81647  87742992.49745  21427669.6414                   21427677.4574
 125250422.06846  97597750.87443  23834362.8754                   23834374.5434
 121361831.690 7  94567771.174 6  23094365.438
 123919653.95047  96560892.46544  23581153.8524                   23581163.9264
 108067902.59348  84208851.94546  20564613.4694                   20564618.0554
 109842189.07947  85591418.41846  20902251.2894                   20902258.5044
 11  7 24  2  5 30.0000000  0  9G12G05G25G04G27G17G09G02G10
 112812839.496 8  87906032.091 7  21467531.773
 117159968.225 7  91293624.783 7  22294799.094
 127566038.864 6  99402166.438 6  24275015.961
 112677154.41547  87800529.86145  21441720.3984                   21441728.3754
 125314849.58446  97647954.03443  23846623.2194                   23846634.4734
 121416541.038 7  94610401.874 6  23104776.898
 123999024.41447  96622739.52744  23596257.6254                   23596266.5664
 108062820.72748  84204892.05746  20563646.5394                   20563650.9414
 109828649.70748  85580868.29046  20899675.0084                   20899682.0434
 11  7 24  2  6  0.0000000  0  9G12G05G25G04G27G17G09G02G10
 112751978.827 8  87858608.247 7  21455950.430
 117064955.995 7  91219589.343 7  22276718.555
 127465288.366 6  99323659.628 6  24255843.883
 112751176.41148  87858209.33045  21455806.2734                   21455813.8164
 125379369.87246  97698229.50743  23858901.0474                   23858911.8984
 121471402.221 7  94653150.855 6  23115215.945
 124078588.93646  96684737.80444  23611398.3674                   23611407.9804
 108058052.00148  84201176.18246  20562738.5164                   20562743.3134
 109815734.66248  85570804.64046  20897217.3364                   20897224.3794
 11  7 24  2  6 30.0000000  0  9G12G05G25G04G27G17G09G02G10
 112691540.659 8  87811513.620 7  21444449.391
 116970204.151 7  91145756.785 7  22258688.484
 127364695.301 6  99245275.482 6  24236702.070
 112825378.03547  87916028.79445  21469926.5864                   21469934.0594
 125443979.70147  97748574.74643  23871196.6484                   23871206.7194
 121526415.461 7  94696018.359 6  23125684.578
 124158343.83346  96746884.37343  23626575.2114                   23626585.1524
 108053594.68148  84197702.97646  20561890.1334                   20561895.2194
 109803444.33648  85561227.78746  20894878.3204                   20894885.6054
 11  7 24  2  7  0.0000000  0  9G12G05G25G04G27G17G09G02G10
 112631526.989 8  87764749.783 7  21433028.844
 116875715.607 7  91072129.409 7  22240707.211
 127264262.479 6  99167016.155 6  24217590.125
 112899757.55048  87973986.86045  21484080.5004                   21484088.1294
 125508676.51946  97798987.84043  23883508.1024                   23883517.3984
 121581581.267 7  94739004.754 6  23136182.133
 124238285.40246  96809176.46843  23641788.5004                   23641797.6094
 108049447.96848  84194471.78146  20561101.3754                   20561106.3874
 109791779.69448  85552138.49246  20892659.1484                   20892665.8754
 11  7 24  2  7 30.0000000  0  9G12G05G25G04G27G17G09G02G10
 112571940.515 8  87718318.802 7  21421689.789
 116781493.254 7  90998709.446 7  22222777.734
 127163992.452 6  99088883.721 6  24198509.336
 112974312.88248  88032081.94145  21498267.1954                   21498275.0434
 125573457.52246  97849466.53343  23895835.3204                   23895845.6414
 121636900.126 7  94782110.399 6  23146709.188
 124318410.72646  96871611.70244  23657035.4144                   23657044.7074
 108045610.98548  84191481.93946  20560371.2664                   20560376.6524
 109780741.66948  85543537.47046  20890558.0864                   20890566.1094
 11  7 24  2  8  0.0000000  0  9G12G05G25G04G27G17G09G02G10
 112512783.938 8  87672222.808 7  21410432.789
 116687540.569 7  90925499.604 7  22204898.664
 127063888.036 7  99010880.368 6  24179460.383
 113049042.14847  88090312.53145  21512488.4224                   21512495.8054
 125638320.20746  97900008.83943  23908178.2894                   23908189.3014
 121692372.573 7  94825335.686 6  23157265.367
 124398716.25746  96934187.42743  23672316.4064                   23672326.6994
 108042083.08048  84188732.94846  20559699.6884                   20559704.9574
 109770330.82748  85535425.14446  20888576.8134                   20888584.2934
 11  7 24  2  8 30.0000000  0  9G12G05G25G04G27G17G09G02G10
 112454059.328 8  87626463.400 7  21399257.547
 116593860.483 7  90852502.189 7  22187072.570
 126963951.712 7  98933008.018 6  24160442.445
 113123943.13347  88148676.94545  21526741.4924                   21526749.3954
 125703261.74846  97950612.63444  23920536.7034                   23920546.3524
 121747999.173 7  94868681.102 7  23167850.953
 124479198.54146  96996900.80043  23687631.0784                   23687641.8954
 108038863.15748  84186223.93046  20559086.6484                   20559092.0784
 109760548.05748  85527802.23546  20886715.6254                   20886722.4384
 11  7 24  2  9  0.0000000  0  9G12G05G25G04G27G17G09G02G10
 112395768.998 8  87581042.389 7  21388165.844
 116500455.704 7  90779719.273 7  22169298.273
 126864185.969 7  98855268.539 6  24141457.492
 113199013.79847  88207173.59045  21541027.2114                   21541034.8094
 125768279.25846  98001275.59043  23932908.0704                   23932919.4574
 121803780.135 7  94912146.802 6  23178465.672
 124559853.90346  97059749.02643  23702980.8134                   23702989.1804
 108035949.74448  84183953.74646  20558532.9384                   20558537.5984
 109751393.61248  85520668.92546  20884973.5084                   20884980.3674
 11  7 24  2  9 30.0000000  0  9G12G05G25G04G27G17G09G02G10
 112337915.056 8  87535961.436 7  21377156.203
 116407328.927 7  90707153.012 7  22151576.555
 126764593.484 6  98777664.068 5  24122505.953
 113274251.93547  88265800.72245  21555344.3444                   21555351.9494
 125833369.88446  98051995.57243  23945295.3284                   23945305.2304
 121859715.978 7  94955733.196 6  23189109.500
 124640679.21046  97122729.74243  23718360.9924                   23718369.4574
 108033341.99748  84181921.74946  20558036.3204                   20558041.6054
 109742868.17148  85514025.76445  20883351.1644                   20883358.2034
 11  7 24  2 10  0.0000000  0  9G12G05G25G04G27G17G09G02G10
 112280499.865 8  87491222.346 7  21366230.555
 116314483.223 7  90634805.761 7  22133908.688
 126665176.555 6  98700196.442 5  24103587.039
 113349655.45347  88324556.71945  21569693.1564                   21569700.1214
 125898530.66046  98102770.11342  23957694.3204                   23957704.8754
 121915807.383 7  94999440.822 6  23199783.445
 124721671.14046  97185840.37543  23733772.7114                   23733781.9264
 108031038.71948  84180126.99246  20557598.2114                   20557602.8244
 109734972.27648  85507873.14346  20881848.3524                   20881855.7894
 11  7 24  2 10 30.0000000  0  9G12G05G25G04G27G17G09G02G10
 112223525.736 8  87446826.959 7  21355388.820
 116221921.442 7  90562679.731 7  22116294.688
 126565938.143 6  98622867.904 5  24084702.367
 113425222.58948  88383440.21945  21584072.8524                   21584080.3984
 125963759.27046  98153597.58743  23970107.6254                   23970117.4574
 121972054.744 7  95043269.949 6  23210487.188
 124802826.23246  97249078.10243  23749215.9774                   23749226.0634
 108029039.38948  84178569.09046  20557217.5084                   20557222.6844
 109727707.02548  85502211.92446  20880465.6724                   20880473.2854
 11  7 24  2 11  0.0000000  0  9G12G05G25G04G27G17G09G02G10
 112166994.866 8  87402776.963 7  21344631.188
 116129646.702 7  90490777.397 7  22098734.953
 126466880.833 6  98545680.550 6  24065851.766
 113500951.32348  88442449.61845  21598484.0164                   21598491.6684
 126029053.02745  98204475.77643  23982532.0164                   23982542.6764
 122028458.419 6  95087220.917 6  23221219.703
 124884140.89646  97312440.11443  23764689.9454                   23764700.2424
 108027342.83248  84177247.11746  20556894.9384                   20556899.9924
 109721072.62348  85497042.28646  20879203.4144                   20879210.4804
 11  7 24  2 11 30.0000000  0  9G12G05G25G04G27G17G09G02G10
 112110909.635 8  87359074.232 7  21333958.602
 116037661.818 7  90419100.926 7  22081231.039
 126368007.257 7  98468636.329 6  24047038.086
 113576839.54047  88501583.32845  21612924.5314                   21612932.8134
 126094409.06246  98255402.45743  23994969.4454                   23994979.3984
 122085018.704 6  95131293.921 6  23231983.328
 124965611.92346  97375923.95143  23780193.7894                   23780202.8874
 108025947.78748  84176160.08846  20556629.2734                   20556634.0744
 109715069.45248  85492364.51246  20878061.1724                   20878068.2974
 11  7 24  2 12  0.0000000  0  9G12G05G25G04G27G17G09G02G10
 112055272.210 8  87315720.399 7  21323370.969
 115945969.551 7  90347652.453 7  22063782.492
 126269319.786 7  98391737.113 6  24028257.773
 113652885.02047  88560839.57245  21627395.1024                   21627403.3364
 126159824.46046  98306375.46643  24007417.9144                   24007427.8524
 122141736.349 6  95175489.492 6  23242776.422
 125047235.51746  97439526.74443  23795725.9844                   23795735.2384
 108024853.27448  84175307.21946  20556420.9224                   20556425.8984
 109709698.06448  85488179.02946  20877039.1254                   20877045.9844
 11  7 24  2 12 30.0000000  0  9G12G05G25G04G27G17G09G02G10
 112000084.816 8  87272717.262 7  21312869.219
 115854572.792 7  90276434.261 7  22046390.797
 126170821.157 7  98314985.076 6  24009514.367
 113729086.06947  88620217.01945  21641896.1334                   21641903.8364
 126225296.49646  98357392.59243  24019876.9924                   24019886.3484
 122198611.767 6  95219807.999 6  23253599.305
 125129008.54846  97503245.93943  23811286.9064                   23811296.3794
 108024058.35747  84174687.81946  20556269.8984                   20556274.4844
 109704959.13647  85484486.38546  20876137.3054                   20876144.6174
 11  7 24  2 13  0.0000000  0  9G12G05G25G04G27G17G09G02G10
 111945349.491 8  87230066.386 7  21302453.172
 115763474.439 7  90205448.569 7  22029054.805
 126072513.818 6  98238382.053 6  23990806.875
 113805440.16447  88679713.71045  21656426.1484                   21656434.0434
 126290822.35047  98408451.66343  24032345.4614                   24032355.5944
 122255645.136 6  95264249.614 7  23264452.859
 125210927.69346  97567078.97543  23826876.1564                   23826885.9264
 108023561.49048  84174300.64346  20556175.2734                   20556180.2584
 109700852.31248  85481286.29046  20875355.5394                   20875362.8094
 11  7 24  2 13 30.0000000  0  9G12G05G25G04G27G17G09G02G10
 111891068.701 8  87187769.690 7  21292123.414
 115672677.661 7  90134697.892 7  22011776.617
 125974400.517 6  98161930.234 6  23972136.781
 113881945.88447  88739328.56845  21670984.6884                   21670991.9344
 126356399.44346  98459550.62343  24044824.8754                   24044834.2624
 122312837.013 6  95308814.718 6  23275335.219
 125292989.40146  97631023.13343  23842491.8134                   23842501.8244
 108023362.14347  84174145.31546  20556137.1334                   20556142.0204
 109697378.83447  85478579.71346  20874694.5004                   20874701.9144
 11  7 24  2 14  0.0000000  0  9G12G05G25G04G27G17G09G02G10
 111837244.706 8  87145828.933 7  21281881.664
 115582185.082 7  90064184.256 7  21994556.383
 125876484.026 7  98085631.730 6  23953503.484
 113958601.13647  88799059.93345  21685571.9614                   21685578.6334
 126422024.94246  98510687.33942  24057311.2734                   24057322.5824
 122370187.900 7  95353503.765 6  23286249.406
 125375190.24546  97695075.68543  23858133.9774                   23858144.7624
 108023459.10747  84174220.87546  20556155.6334                   20556160.3834
 109694539.00847  85476366.88246  20874154.1954                   20874161.2974
 11  7 24  2 14 30.0000000  0  9G12G05G25G04G27G17G09G02G10
 111783879.320 8  87104245.545 7  21271726.070
 115491999.520 7  89993909.814 7  21977394.625
 125778766.839 6  98009488.532 6  23934908.102
 114035403.80048  88858906.18145  21700186.6334                   21700194.1564
 126487696.15746  98561859.58043  24069808.2814                   24069819.8674
 122427698.168 6  95398316.951 6  23297193.141
 125457527.01446  97759234.16643  23873802.1174                   23873812.3714
 108023851.37448  84174526.55646  20556230.2274                   20556235.4694
 109692332.81848  85474647.80246  20873734.5314                   20873741.6094
 11  7 24  2 15  0.0000000  0  9G12G05G25G04G27G17G09G02G10
 111730974.608 8  87063021.135 7  21261659.258
 115402123.783 7  89923876.818 7  21960292.148
 125681251.539 6  97933502.633 6  23916351.813
 114112351.96947  88918865.80345  21714829.5164                   21714837.0004
 126553410.12846  98613065.19243  24082315.3674                   24082324.4224
 122485368.207 6  95443254.679 6  23308166.969
 125539996.42046  97823495.92943  23889496.0004                   23889505.2154
 108024537.75348  84175061.41046  20556360.8674                   20556366.4734
 109690760.40848  85473422.57746  20873434.9454                   20873443.0314
 11  7 24  2 15 30.0000000  0  9G12G05G25G04G27G17G09G02G10
 111678533.076 8  87022157.624 7  21251679.492
 115312560.510 7  89854087.291 7  21943248.711
 125583940.800 6  97857676.076 6  23897833.688
 114189443.68647  88978937.28045  21729499.2974                   21729507.6524
 126619164.17846  98664302.07543  24094828.0164                   24094837.4774
 122543198.420 6  95488317.191 6  23319171.742
 125622594.82747  97887858.28143  23905214.4694                   23905222.9614
 108025517.12548  84175824.55946  20556547.2344                   20556552.2624
 109689822.38748  85472691.67846  20873256.2114                   20873264.0634
 11  7 24  2 16  0.0000000  0  9G12G05G25G04G27G17G09G02G10
 111626556.806 8  86981656.648 7  21241789.047
 115223313.132 7  89784543.927 7  21926265.195
 125486837.374 7  97782011.109 6  23879355.727
 114266677.15848  89039119.20445  21744196.7974                   21744204.0314
 126684955.79446  98715568.25043  24107346.7344                   24107357.7854
 122601189.432 6  95533505.030 6  23330206.898
 125705319.10147  97952318.72043  23920955.7664                   23920966.0664
 108026788.73348  84176815.44546  20556789.3054                   20556794.3954
 109689519.26847  85472455.50646  20873199.1884                   20873205.7384
 11  7 24  2 16 30.0000000  0  9G12G05G25G04G27G17G09G02G10
 111575047.932 8  86941519.910 7  21231987.109
 115134384.299 7  89715248.792 7  21909343.141
 125389943.826 7  97706509.671 6  23860918.055
 114344049.95347  89099409.69845  21758919.8674                   21758927.9064
 126750781.97446  98766861.28843  24119872.9454                   24119883.6804
 122659341.669 6  95578818.461 6  23341273.102
 125788165.58146  98016874.40943  23936719.2114                   23936731.2344
 108028351.29248  84178033.03846  20557086.4614                   20557091.4844
 109689850.74348  85472713.82546  20873261.6484                   20873269.2234
 11  7 24  2 17  0.0000000  0  9G12G05G25G04G27G17G09G02G10
 111524008.638 8  86901749.060 7  21222274.508
 115045776.992 7  89646204.201 7  21892481.602
 125293262.851 7  97631173.831 6  23842519.945
 114421560.61248  89159807.63645  21773669.6954                   21773677.3404
 126816640.07646  98818179.22143  24132406.5864                   24132415.9344
 122717655.144 7  95624257.558 6  23352370.344
 125871131.10845  98081522.73742  23952507.8754                   23952519.2034
 108030203.55148  84179476.36046  20557439.5394                   20557444.4384
 109690816.91748  85473466.71046  20873446.0234                   20873452.9264
 11  7 24  2 17 30.0000000  0  9G12G05G25G04G27G17G09G02G10
 111473440.794 8  86862345.567 7  21212652.211
 114957493.369 7  89577411.825 7  21875681.422
 125196797.077 7  97556005.721 6  23824162.227
 114499206.99448  89220311.31345  21788445.5554                   21788453.0124
 126882527.32546  98869519.94543  24144943.8204                   24144952.9414
 122776130.484 6  95669822.802 6  23363497.391
 125954212.07346  98146261.07342  23968317.9144                   23968328.3834
 108032344.52748  84181144.67246  20557846.7114                   20557851.6374
 109692418.12048  85474714.41646  20873750.3754                   20873757.9734
 11  7 24  2 18  0.0000000  0  9G12G05G25G04G27G17G09G02G10
 111423346.456 8  86823311.035 7  21203119.273
 114869536.612 7  89508874.131 7  21858943.875
 125100549.006 7  97481007.210 6  23805847.672
 114576987.05948  89280919.16245  21803246.8754                   21803253.8984
 126948440.91646  98920881.17043  24157486.5944                   24157497.8054
 122834768.164 7  95715514.497 6  23374655.406
 126037404.93046  98211086.65143  23984149.4144                   23984159.3404
 108034772.72248  84183036.77946  20558308.8204                   20558313.4414
 109694654.55048  85476457.11946  20874175.9454                   20874183.4804
 11  7 24  2 18 30.0000000  0  9G12G05G25G04G27G17G09G02G10
 111373728.019 8  86784647.362 7  21193677.438
 114781909.683 7  89440593.474 7  21842268.914
 125004521.540 7  97406180.606 6  23787574.180
 114654899.20148  89341629.93245  21818072.6954                   21818080.3324
 127014378.19946  98972260.79943  24170034.7274                   24170044.9614
 122893568.648 7  95761333.060 6  23385845.695
 126120706.73647  98275997.08043  24000001.9924                   24000011.5784
 108037487.86248  84185152.48246  20558825.2424                   20558830.0904
 109697526.24648  85478694.82646  20874722.7504                   20874729.4614
 11  7 24  2 19  0.0000000  0  9G12G05G25G04G27G17G09G02G10
 111324587.477 8  86746356.057 7  21184326.430
 114694615.418 7  89372572.008 7  21825657.039
 124908717.378 7  97331528.086 6  23769342.383
 114732941.58648  89402442.18145  21832923.2974                   21832931.2734
 127080336.71946  99023656.98843  24182585.3204                   24182596.2704
 122952532.275 7  95807278.734 6  23397065.297
 126204114.09647  98340989.74643  24015873.8284                   24015883.3404
 108040488.65948  84187490.78246  20559396.1564                   20559401.5204
 109701033.57548  85481427.83046  20875390.0314                   20875397.0204
 11  7 24  2 19 30.0000000  0  9G12G05G25G04G27G17G09G02G10
 111275926.770 8  86708438.652 7  21175066.188
 114607656.758 7  89304812.055 7  21809109.625
 124813139.130 7  97257051.575 6  23751155.094
 114811112.15748  89463354.31545  21847799.1564                   21847806.9414
 127146313.70346  99075067.50343  24195140.1094                   24195151.1914
 123011659.407 7  95853351.776 6  23408316.820
 126287623.62747  98406062.06143  24031764.1724                   24031773.9884
 108043773.95048  84190050.76746  20560021.1174                   20560026.4534
 109705176.38248  85484656.01446  20876177.9774                   20876185.3874
 11  7 24  2 20  0.0000000  0  9G12G05G25G04G27G17G09G02G10
 111227747.855 8  86670896.663 7  21165898.336
 114521036.203 7  89237315.557 7  21792626.039
 124717789.332 7  97182752.994 6  23733011.789
 114889408.92847  89524364.78745  21862698.5474                   21862706.5274
 127212306.11546  99126490.06943  24207698.7274                   24207709.0164
 123070950.324 7  95899552.471 6  23419599.984
 126371231.96447  98471211.40144  24047673.9144                   24047685.0474
 108047342.43048  84192831.41646  20560700.5004                   20560705.3954
 109709954.45347  85488379.18746  20877087.3914                   20877094.4144
 11  7 24  2 20 30.0000000  0  9G12G05G25G04G27G17G09G02G10
 111180052.688 8  86633731.630 7  21156822.023
 114434756.266 7  89170084.502 7  21776207.789
 124622670.477 7  97108634.441 6  23714910.766
 114967829.96748  89585472.10045  21877620.7504                   21877628.4024
 127278311.33746  99177922.62643  24220259.4144                   24220268.9104
 123130405.429 7  95945881.128 6  23430913.484
 126454935.66147  98536434.97844  24063603.1884                   24063612.9924
 108051192.77748  84195831.69146  20561433.1334                   20561437.8914
 109715367.58748  85492597.23746  20878117.3364                   20878124.0904
 11  7 24  2 21  0.0000000  0  9G12G05G25G04G27G17G09G02G10
 111132843.419 8  86596945.221 7  21147838.070
 114348819.943 7  89103121.187 7  21759854.336
 124527785.506 7  97034698.150 6  23696854.477
 115046373.53848  89646674.87745  21892568.1024                   21892575.4964
 127344326.64545  99229363.02642  24232821.0004                   24232832.0164
 123190025.081 7  95992337.963 6  23442258.555
 126538731.45447  98601730.31144  24079549.1884                   24079559.0514
 108055324.12248  84199050.94346  20562219.0704                   20562223.9924
 109721415.88948  85497310.20646  20879268.1564                   20879275.3094
 11  7 24  2 21 30.0000000  0  9G12G05G25G04G27G17G09G02G10
 111086121.925 8  86560538.884 7  21138947.188
 114263230.059 7  89036427.832 7  21743567.070
 124433136.960 7  96960946.129 6  23678843.766
 115125037.65348  89707971.61745  21907536.6254                   21907544.4774
 127410349.21545  99280809.19242  24245385.3054                   24245396.0204
 123249809.804 7  96038923.470 6  23453635.477
 126622616.00646  98667094.89043  24095511.1954                   24095521.7894
 108059735.10447  84202488.09346  20563058.5704                   20563063.5474
 109728099.47447  85502518.22446  20880540.3594                   20880547.5704
 11  7 24  2 22  0.0000000  0  9G12G05G25G04G27G17G09G02G10
 111039890.649 8  86524514.536 7  21130150.148
 114177989.682 7  88970006.796 7  21727346.055
 124338727.755 7  96887380.564 6  23660877.875
 115203820.83647  89769361.08345  21922528.7424                   21922536.0314
 127476376.72155  99332259.10852  24257949.8364                   24257961.1884
 123309760.048 7  96085637.939 6  23465043.375
 126706586.05646  98732526.05843  24111489.9694                   24111501.2274
 108064425.28047  84206142.77946  20563951.1484                   20563955.9804
 109735418.25747  85508221.17446  20881932.8754                   20881940.4614
 11  7 24  2 22 30.0000000  0  9G12G05G25G04G27G17G09G02G10
 110994150.879 8  86488873.195 7  21121445.922
 114093101.180 7  88903859.955 7  21711192.430
 124244560.343 7  96814003.480 6  23642958.125
 115282720.97947  89830841.72745  21937542.9844                   21937550.9574
 127542406.48056  99383710.64052  24270515.4534                   24270525.9264
 123369875.981 7  96132481.499 6  23476483.078
 126790638.24147  98798021.19043  24127485.5084                   24127494.6294
 108069393.04848  84210013.79046  20564896.2424                   20564900.9844
 109743372.03647  85514418.94146  20883446.9144                   20883453.5904
 11  7 24  2 23  0.0000000  0  9G12G05G25G04G27G17G09G02G10
 110948904.464 8  86453616.279 7  21112835.891
 114008566.911 7  88837989.133 7  21695106.203
 124150637.150 7  96740816.731 6  23625085.047
 115361735.97747  89892411.84045  21952578.9384                   21952586.5744
 127608435.28746  99435161.65342  24283079.4384                   24283090.9844
 123430157.867 6  96179454.391 6  23487954.898
 126874768.94047  98863577.53543  24143494.6024                   24143504.3014
 108074637.15048  84214100.11146  20565894.4384                   20565899.3524
 109751960.16448  85521111.00046  20885081.0474                   20885087.7584
 11  7 24  2 23 30.0000000  0  9G12G05G25G04G27G17G09G02G10
 110904153.763 8  86418745.630 7  21104319.859
 113924390.269 7  88772397.005 7  21679087.516
 124056961.201 7  96667822.635 6  23607258.813
 115440864.39247  89954070.33145  21967636.9064                   21967644.5984
 127674460.84046  99486610.02542  24295645.2974                   24295655.8954
 123490606.165 7  96226556.922 6  23499458.008
 126958975.32246  98929192.84243  24159518.5084                   24159528.0594
 108080156.79547  84218401.15746  20566944.6884                   20566950.2074
 109761182.91547  85528297.56846  20886835.3914                   20886842.7154
 11  7 24  2 24  0.0000000  0  9G12G05G25G04G27G17G09G02G10
 110859900.812 8  86384262.840 7  21095898.906
 113840573.792 7  88707085.508 7  21663137.984
 123963535.181 6  96595023.267 6  23589480.844
 115520104.33747  90015815.73645  21982715.5704                   21982723.2664
 127740480.33446  99538053.76543  24308207.4614                   24308218.2624
 123551221.344 6  96273789.492 6  23510992.391
 127043253.71147  98994864.22043  24175556.9614                   24175566.3444
 108085950.64748  84222915.86146  20568047.1174                   20568052.3404
 109771039.83348  85535978.28446  20888711.7974                   20888718.6334
 11  7 24  2 24 30.0000000  0  9G12G05G25G04G27G17G09G02G10
 110816147.904 8  86350169.696 7  21087573.102
 113757120.345 8  88642056.890 7  21647257.773
 123870361.696 6  96522420.755 6  23571749.227
 115599454.26247  90077646.84145  21997816.0084                   21997823.1214
 127806491.47146  99589490.93343  24320768.6484                   24320780.6724
 123612003.663 6  96321152.304 6  23522558.359
 127127600.87446  99060589.19243  24191607.2664                   24191617.1294
 108092017.75548  84227643.50446  20569201.3754                   20569206.7074
 109781531.07248  85544153.29046  20890707.9384                   20890714.8674
 11  7 24  2 25  0.0000000  0  9G12G05G25G04G27G17G09G02G10
 110772895.781 7  86316466.776 7  21079342.344
 113674032.329 8  88577313.005 7  21631446.320
 123777443.396 7  96450017.001 6  23554067.922
 115678912.09947  90139562.04045  22012936.0164                   22012943.2424
 127872491.42146  99640919.35543  24333328.7814                   24333339.1564
 123672953.534 7  96368645.672 6  23534156.898
 127212013.56147  99126365.26844  24207671.0164                   24207680.7274
 108098356.89348  84232583.10146  20570408.5394                   20570413.0664
 109792656.04848  85552822.10346  20892824.7814                   20892832.0314
 11  7 24  2 25 30.0000000  0  9G12G05G25G04G27G17G09G02G10
 110730146.710 8  86283155.835 7  21071206.820
 113591312.500 7  88512856.043 7  21615705.195
 123684782.938 7  96377814.211 6  23536435.531
 115758476.03547  90201559.92545  22028076.2274                   22028084.0044
 127938477.25546  99692336.88443  24345885.1024                   24345896.0164
 123734071.353 7  96416269.939 6  23545787.438
 127296488.57446  99192189.82843  24223745.9144                   24223755.5434
 108104967.08648  84237733.91146  20571666.1724                   20571670.9414
 109804414.49948  85561984.55146  20895062.6884                   20895069.9844
 11  7 24  2 26  0.0000000  0  9G12G05G25G04G27G17G09G02G10
 110687902.301 7  86250238.138 7  21063168.148
 113508963.311 7  88448687.891 7  21600034.500
 123592382.749 7  96305814.140 6  23518852.523
 115838144.21347  90263639.00945  22043236.6804                   22043244.4614
 128004446.05446  99743741.00843  24358440.0474                   24358449.5664
 123795357.317 7  96464025.226 6  23557450.352
 127381022.46346  99258060.30343  24239833.0704                   24239842.4304
 108111846.65948  84243094.64146  20572975.1644                   20572980.1564
 109816805.85148  85571640.14846  20897420.3364                   20897427.6724
 11  7 24  2 26 30.0000000  0  9G12G05G25G04G27G17G09G02G10
 110646165.144 7  86217715.709 7  21055226.047
 113426987.951 7  88384811.042 7  21584434.859
 123500245.886 7  96234019.325 7  23501318.695
 115917915.11947  90325798.14945  22058416.6724                   22058423.9884
 128070395.54646  99795130.20743  24370989.2114                   24370999.3014
 123856811.854 7  96511911.874 6  23569144.336
 127465612.39146  99323974.51243  24255928.4144                   24255939.6524
 108118995.14748  84248664.90546  20574335.2034                   20574340.3364
 109829829.86248  85581788.74846  20899899.0004                   20899905.9734
 11  7 24  2 27  0.0000000  0  9G12G05G25G04G27G17G09G02G10
 110604936.797 7  86185589.736 7  21047380.508
 113345388.922 8  88321227.409 7  21568907.172
 123408374.835 7  96162431.577 6  23483836.500
 115997786.93947  90388035.91045  22073615.7034                   22073623.4454
 128136323.00745  99846502.15443  24383533.7274                   24383545.2194
 123918435.090 6  96559929.972 6  23580870.883
 127550254.68846  99389929.46143  24272035.0944                   24272045.6954
 108126410.93348  84254443.46146  20575746.2504                   20575751.4304
 109843485.95348  85592429.86646  20902497.4144                   20902504.4144
 11  7 24  2 27 30.0000000  0  9G12G05G25G04G27G17G09G02G10
 110564218.857 7  86153861.486 7  21039632.180
 113264168.707 8  88257938.976 7  21553451.633
 123316772.317 7  96091053.104 6  23466405.125
 116077757.89747  90450350.97745  22088833.8524                   22088841.7274
 128202225.75045  99897854.87943  24396074.8754                   24396086.1994
 123980227.677 7  96608080.049 6  23592629.641
 127634945.98646  99455922.60743  24288152.5634                   24288162.4774
 108134093.12048  84260429.59946  20577208.5944                   20577213.1844
 109857773.87948  85603563.33546  20905215.8134                   20905223.3954
 11  7 24  2 28  0.0000000  0  9G12G05G25G04G27G17G09G02G10
 110524013.423 8  86122532.591 7  21031981.156
 113183330.084 8  88194947.883 7  21538068.344
 123225441.070 7  96019885.973 6  23449024.820
 116157826.32447  90512741.94845  22104070.4534                   22104077.7624
 128268101.36846  99949186.40543  24408611.7194                   24408621.7894
 124042189.958 7  96656362.349 6  23604420.195
 127719683.35946  99521951.68243  24304278.0554                   24304287.6914
 108142040.83348  84266622.63746  20578721.0554                   20578725.7424
 109872693.58048  85615189.08945  20908054.6884                   20908062.3794
 11  7 24  2 28 30.0000000  0  9G12G05G25G04G27G17G09G02G10
 110484322.113 8  86091604.317 7  21024428.336
 113102875.864 8  88132256.338 7  21522758.609
 123134383.865 7  95948932.362 6  23431697.234
 116237990.52947  90575207.57545  22119325.0864                   22119332.4384
 128333947.17345 100000494.70543  24421140.9614                   24421151.8134
 124104321.959 6  96704776.879 6  23616243.445
 127804463.38146  99588013.96043  24320409.0394                   24320421.0944
 108150252.73248  84273021.52946  20580283.8834                   20580288.0204
 109888243.95448  85627306.29446  20911014.2734                   20911021.6804
 11  7 24  2 29  0.0000000  0  9G12G05G25G04G27G17G09G02G10
 110445146.497 8  86061077.867 7  21016973.688
 113022808.686 7  88069866.371 7  21507522.172
 123043603.232 7  95878194.270 6  23414422.570
 116318248.71047  90637746.42845  22134597.1414                   22134604.8984
 128399760.38146 100051777.61643  24433664.8674                   24433676.2114
 124166623.940 6  96753323.858 6  23628099.648
 127889283.06746  99654107.06443  24336551.6954                   24336562.1764
 108158727.49748  84279625.27546  20581895.8594                   20581900.8874
 109904424.84248  85639914.78246  20914093.3364                   20914100.6484
 11  7 24  2 29 30.0000000  0  9G12G05G25G04G27G17G09G02G10
 110406488.710 8  86030954.932 7  21009617.109
 112943131.072 8  88007779.969 7  21492360.164
 122953101.881 7  95807673.833 6  23397200.070
 116398599.12947  90700357.16445  22149888.0474                   22149895.4184
 128465538.44845 100103033.14242  24446182.1024                   24446193.4024
 124229096.239 6  96802003.592 6  23639987.047
 127974139.17746  99720228.68143  24352699.0394                   24352709.8164
 108167464.09748  84286433.04546  20583558.6094                   20583563.4734
 109921235.69048  85653014.15746  20917292.9304                   20917299.9694
 11  7 24  2 30  0.0000000  0  9G12G05G25G04G27G17G09G02G10
 110368349.480 8  86001236.068 7  21002359.578
 112863845.113 7  87945998.739 7  21477272.305
 122862882.225 7  95737372.870 6  23380031.688
 116479039.96647  90763038.32545  22165195.0474                   22165202.4494
 128531278.53045 100154259.06542  24458692.1174                   24458703.7234
 124291739.263 6  96850816.296 6  23651907.500
 128059027.98446  99786375.74243  24368852.5084                   24368863.3164
 108176461.08948  84293443.71446  20585270.4304                   20585275.3134
 109938675.33248  85666603.50146  20920611.2114                   20920618.4774
 11  7 24  2 30 30.0000000  0  9G12G05G25G04G27G17G09G02G10
 110330731.246 8  85971923.167 7  20995200.961
 112784953.679 8  87884524.951 7  21462260.203
 122772947.280 7  95667293.781 6  23362918.539
 116559569.84147  90825788.88345  22180519.5084                   22180526.5664
 128596978.34845 100205453.63242  24471194.9924                   24471205.3834
 124354553.302 6  96899762.321 6  23663861.477
 128143946.61046  99852546.05943  24385012.9924                   24385022.9454
 108185717.72748  84300656.69046  20587032.5314                   20587037.0164
 109956743.55047  85680682.66346  20924049.1804                   20924056.5824
 11  7 24  2 31  0.0000000  0  9G12G05G25G04G27G17G09G02G10
 110293635.641 8  85943017.513 7  20988142.000
 112706459.570 7  87823360.758 7  21447322.633
 122683299.534 7  95597438.453 6  23345859.211
 116640186.76847  90888607.26745  22195860.5314                   22195868.2034
 128662635.05945 100256614.45642  24483687.7894                   24483700.3284
 124417538.549 7  96948841.728 6  23675846.969
 128228891.56746  99918736.87543  24401177.3054                   24401186.8324
 108195232.77448  84308071.01846  20588842.9614                   20588847.8714
 109975439.34447  85695250.83645  20927606.9694                   20927614.2154
 11  7 24  2 31 30.0000000  0  9G12G05G25G04G27G17G09G02G10
 110257064.127 8  85914520.253 7  20981182.813
 112628365.097 8  87762507.981 7  21432462.078
 122593941.684 7  95527809.025 6  23328855.047
 116720889.24347  90951492.29945  22211218.2424                   22211225.4414
 128728245.91245 100307739.67642  24496174.1094                   24496185.7304
 124480695.218 6  96998054.705 6  23687866.047
 128313859.81246  99984945.85043  24417345.3984                   24417356.0634
 108205004.74048  84315685.56246  20590702.2424                   20590706.7584
 109994762.15247  85710307.59946  20931283.8914                   20931291.1334
 11  7 24  2 32  0.0000000  0  9G12G05G25G04G27G17G09G02G10
 110221018.423 8  85886432.720 7  20974323.359
 112550672.717 7  87701968.506 7  21417677.570
 122504876.377 7  95458407.605 6  23311905.688
 116801675.36447  91014442.53645  22226590.3984                   22226598.4304
 128793808.34045 100358827.15442  24508649.8284                   24508662.0354
 124544023.644 6  97047401.537 6  23699916.563
 128398848.04746 100051170.35043  24433518.0634                   24433528.9964
 108215032.70748  84323499.58546  20592610.3914                   20592615.0744
 110014711.60547  85725852.63446  20935080.2034                   20935087.4804
 11  7 24  2 32 30.0000000  0  9G12G05G25G04G27G17G09G02G10
 110185500.389 7  85858756.322 7  20967564.344
 112473385.483 7  87641744.739 7  21402970.195
 122416106.422 7  95389236.268 6  23295013.398
 116882543.89047  91077456.96245  22241979.1334                   22241986.7034
 128859320.06946 100409875.25942  24521117.0394                   24521128.8834
 124607524.120 6  97096882.365 6  23712000.789
 128483853.19846 100117408.02343  24449694.0554                   24449704.8324
 108225315.67548  84331512.31146  20594567.6564                   20594572.1994
 110035287.11147  85741885.52146  20938995.6024                   20939003.0704
 11  7 24  2 33  0.0000000  0  9G12G05G25G04G27G17G09G02G10
 110150511.315 8  85831492.145 7  20960906.211
 112396505.496 8  87581838.304 7  21388340.531
 122327634.455 7  95320297.179 6  23278177.484
 116963492.88947  91140534.11645  22257383.5704                   22257390.4184
 128924778.11546 100460881.39742  24533573.2664                   24533585.7974
 124671196.810 6  97146497.465 6  23724116.602
 128568872.48346 100183656.75642  24465873.0234                   24465883.0634
 108235852.43248  84339722.78646  20596572.6484                   20596577.2034
 110056487.56348  85758405.37346  20943029.9844                   20943037.6484
 11  7 24  2 33 30.0000000  0  9G12G05G25G04G27G17G09G02G10
 110116053.028 8  85804641.565 7  20954349.125
 112320035.404 7  87522251.251 7  21373788.664
 122239463.063 7  95251592.280 7  23261399.414
 117044520.91147  91203672.82245  22272802.0864                   22272809.7234
 128990179.95546 100511843.79442  24546019.4064                   24546031.1254
 124735042.200 6  97196247.133 6  23736265.602
 128653902.36346 100249913.67943  24482053.8204                   24482064.3164
 108246641.94148  84348130.20846  20598625.8674                   20598630.2624
 110078312.33648  85775411.70246  20947183.2504                   20947190.7854
 11  7 24  2 34  0.0000000  0  9G12G05G25G04G27G17G09G02G10
 110082127.157 8  85778205.842 7  20947893.305
 112243977.668 8  87462985.521 7  21359315.586
 122151594.923 7  95183123.719 7  23244678.297
 117125626.16247  91266871.70545  22288236.2194                   22288244.4064
 129055523.06446 100562760.46342  24558453.3754                   24558464.8444
 124799060.702 6  97246131.620 6  23748448.234
 128738939.39946 100316176.23343  24498236.4144                   24498246.4024
 108257682.79348  84356733.48646  20600726.2344                   20600731.1844
 110100760.37848  85792903.70646  20951455.0704                   20951462.5704
 11  7 24  2 34 30.0000000  0  9G12G05G25G04G27G17G09G02G10
 110048734.674 8  85752185.749 7  20941538.891
 112168334.789 8  87404043.081 7  21344921.398
 122064032.664 7  95114893.470 7  23228016.625
 117206807.32847  91330129.74745  22303684.5394                   22303692.4224
 129120804.82846 100613629.19042  24570876.2424                   24570887.7114
 124863252.181 6  97296150.922 6  23760663.305
 128823980.44346 100382441.92742  24514418.4534                   24514428.9614
 108268973.97848  84365531.84246  20602875.0784                   20602880.0514
 110123830.78948  85810880.67646  20955844.8754                   20955852.3954
 11  7 24  2 35  0.0000000  0  9G12G05G25G04G27G17G09G02G10
 110015877.561 8  85726582.829 7  20935286.320
 112093109.493 8  87345426.020 7  21330605.938
 121976779.087 7  95046903.712 6  23211411.805
 117288062.65347  91393445.62345  22319146.9534                   22319154.1564
 129186022.98446 100664448.47842  24583286.8674                   24583298.7424
 124927616.841 6  97346305.208 6  23772911.977
 128909022.82446 100448708.65142  24530602.7114                   24530611.7974
 108280514.25748  84374524.28446  20605071.4774                   20605076.0164
 110147523.04748  85829342.19146  20960353.4384                   20960360.3954
 11  7 24  2 35 30.0000000  0  9G12G05G25G04G27G17G09G02G10
 109983557.100 8  85701398.084 7  20929135.945
 112018303.909 8  87287135.986 7  21316370.820
 121889836.684 7  94979156.475 6  23194867.305
 117369390.48147  91456818.00545  22334623.1334                   22334631.3954
 129251174.77646 100715216.02643  24595684.3134                   24595696.9264
 124992155.155 6  97396594.794 6  23785192.734
 128994062.83046 100514973.54943  24546784.4534                   24546794.7274
 108292302.52648  84383709.96946  20607314.6954                   20607319.2934
 110171836.08947  85848287.44845  20964980.0164                   20964986.9964
 11  7 24  2 36  0.0000000  0  9G12G05G25G04G27G17G09G02G10
 109951775.151 8  85676632.950 7  20923088.180
 111943920.807 8  87229175.179 7  21302216.039
 121803208.195 7  94911653.810 6  23178382.727
 117450789.46547  91520245.79045  22350113.2274                   22350120.7194
 129316257.74946 100765929.97642  24608069.6804                   24608081.9804
 125056867.285 7  97447019.803 6  23797507.492
 129079097.86346 100581234.52343  24562966.2814                   24562977.2544
 108304337.93548  84393088.22346  20609604.7974                   20609609.1954
 110196769.07147  85867715.75845  20969724.5864                   20969731.3794
 11  7 24  2 36 30.0000000  0  9G12G05G25G04G27G17G09G02G10
 109920533.041 8  85652288.468 7  20917143.070
 111869962.187 8  87171545.133 7  21288142.352
 121716896.143 7  94844397.703 7  23161958.109
 117532257.60647  91583727.45045  22365615.5784                   22365623.6134
 129381269.22346 100816588.14143  24620441.5234                   24620452.8014
 125121753.354 7  97497580.384 6  23809854.516
 129164124.48946 100647488.98043  24579146.1334                   24579157.1524
 108316618.77248  84402657.71746  20611941.4384                   20611946.2894
 110222320.93447  85887626.31946  20974587.3674                   20974593.5044
 11  7 24  2 37  0.0000000  0  9G12G05G25G04G27G17G09G02G10
 109889832.124 8  85628365.706 7  20911300.844
 111796430.951 8  87114248.122 7  21274149.742
 121630903.402 7  94777390.408 7  23145593.656
 117613793.59847  91647262.00545  22381131.7114                   22381138.7274
 129446206.74146 100867188.67342  24632798.4304                   24632809.4264
 125186813.727 6  97548276.785 6  23822235.648
 129249139.75646 100713734.56443  24595324.3204                   24595334.7424
 108329144.15848  84412417.77046  20614325.3674                   20614329.7814
 110248490.86347  85908018.48846  20979567.2504                   20979573.4734
 11  7 24  2 37 30.0000000  0  9G12G05G25G04G27G17G09G02G10
 109859673.297 8  85604865.339 7  20905561.711
 111723329.354 8  87057285.874 7  21260238.750
 121545232.536 7  94710633.918 6  23129291.266
 117695395.87147  91710848.16344  22396660.3984                   22396666.5664
 129511067.72846 100917729.57943  24645141.0164                   24645152.8244
 125252048.374 7  97599108.983 6  23834648.992
 129334140.21946 100779968.68743  24611499.7584                   24611510.0204
 108341912.95348  84422367.49246  20616755.0704                   20616759.5354
 110275277.62747  85928891.30045  20984664.6254                   20984670.8484
 11  7 24  2 38  0.0000000  0  9G12G05G25G04G27G17G09G02G10
 109830058.545 8  85581788.934 7  20899926.461
 111650659.858 8  87000660.348 7  21246410.328
 121459886.113 7  94644130.280 6  23113049.750
 117777063.00247  91774484.92345  22412200.7504                   22412208.5004
 129575849.65145 100968208.84242  24657468.7504                   24657480.8404
 125317457.717 6  97650077.285 6  23847096.906
 129419122.99746 100846188.97043  24627670.6564                   24627681.4494
 108354924.23948  84432506.16046  20619231.0394                   20619235.4534
 110302680.36247  85950244.10146  20989878.8134                   20989885.8244
 11  7 24  2 38 30.0000000  0  9G12G05G25G04G27G17G09G02G10
 109800989.356 8  85559137.647 7  20894394.086
 111578424.779 8  86944373.298 7  21232664.508
 121374867.063 7  94577881.748 7  23096871.195
 117858793.60947  91838171.10044  22427752.9384                   22427761.2424
 129640550.08754 101018624.76152  24669780.7584                   24669792.9224
 125383042.170 6  97701182.017 6  23859575.930
 129504085.41846 100912393.42543  24643839.2814                   24643849.1644
 108368176.63648  84442832.71546  20621752.6954                   20621757.3634
 110330697.93747  85972076.00146  20995210.2194                   20995217.2194
 11  7 24  2 39  0.0000000  0  8G12G05G25G04G17G09G02G10
 109772467.131 8  85536912.558 7  20888967.195
 111506626.438 8  86888426.572 7  21219001.867
 121290177.919 7  94511890.240 6  23080755.703
 117940586.00047  91901905.41445  22443317.8204                   22443325.5664
 125448801.700 6  97752423.235 6  23872089.500
 129589023.99646 100978579.31643  24660001.2664                   24660013.0944
 108381669.15148  84453346.36846  20624320.4144                   20624325.0124
 110359329.48547  85994386.30346  21000658.9844                   21000666.1054
 11  7 24  2 39 30.0000000  0  8G12G05G25G04G17G09G02G10
 109744493.342 8  85515114.819 7  20883643.766
 111435267.556 8  86832822.303 7  21205422.172
 121205821.447 7  94446158.048 6  23064702.078
 118022438.79947  91965686.83644  22458893.7974                   22458901.6374
 125514736.848 6  97803801.208 6  23884636.367
 129673935.74746 101044744.28143  24676160.5554                   24676170.8484
 108395400.87348  84464046.41346  20626933.4144                   20626938.1054
 110388574.20748  86017174.41245  21006224.0474                   21006230.7624
 11  7 24  2 40  0.0000000  0  8G12G05G25G04G17G09G02G10
 109717068.677 8  85493744.965 7  20878424.781
 111364349.783 8  86777561.742 7  21191927.047
 121121799.901 7  94380686.784 6  23048714.906
 118104350.38647  92029514.08244  22474481.4614                   22474488.5824
 125580847.239 6  97855315.784 6  23897217.453
 129758817.07146 101110885.58143  24692313.5084                   24692323.4804
 108409370.06848  84474931.50646  20629591.8984                   20629596.3754
 110418430.38947  86040438.98146  21011905.3674                   21011912.1374
 11  7 24  2 40 30.0000000  0  8G12G05G25G04G17G09G02G10
 109690194.704 8  85472804.222 7  20873311.352
 111293876.007 8  86722647.160 7  21178516.281
 121038115.963 7  94315478.614 7  23032789.805
 118186319.09047  92093385.80945  22490079.9064                   22490087.0704
 125647133.272 6  97906967.211 6  23909832.008
 129843665.35746 101177001.12443  24708458.8834                   24708469.8204
 108423575.80048  84486000.92746  20632294.8674                   20632299.4024
 110448896.80948  86064179.04945  21017702.5474                   21017709.9144
 11  7 24  2 41  0.0000000  0  8G12G05G25G04G17G09G02G10
 109663872.227 8  85452293.230 7  20868301.711
 111223847.816 8  86668079.783 7  21165190.555
 120954771.913 7  94250535.312 7  23016929.898
 118268343.02747  92157300.58944  22505688.2274                   22505695.4344
 125713594.351 6  97958755.100 6  23922478.680
 129928476.90146 101243087.93443  24724598.5234                   24724608.6294
 108438016.51448  84497253.45646  20635042.6414                   20635047.5634
 110479972.00647  86088393.50346  21023616.1884                   21023623.5394
 11  7 24  2 41 30.0000000  0  9G12G05G25G04G27G17G09G02G10
 109638103.534 8  85432213.729 7  20863398.344
 111154268.310 8  86613862.024 7  21151949.859
 120871770.847 7  94185859.240 7  23001135.453
 118350421.48247  92221257.82345  22521306.7664                   22521315.0944
 130026894.33415                  24743301.758
 125780231.451 6  98010680.118 6  23935158.727
 130013249.41746 101309144.43143  24740729.8054                   24740740.5314
 108452691.68748  84508688.67846  20637835.6254                   20637839.8554
 110511655.20247  86113081.70746  21029645.3364                   21029652.4414
 11  7 24  2 42  0.0000000  0  9G12G05G25G04G27G17G09G02G10
 109612888.617 8  85412565.773 7  20858599.703
 111085138.973 8  86559995.045 7  21138795.078
 120789115.007 7  94121452.173 7  22985406.547
 118432552.34547  92285255.87345  22536935.6644                   22536944.1024
 130090952.67015                  24755489.531
 125847044.375 6  98062742.126 6  23947873.148
 130097979.23245 101375167.61343  24756853.8524                   24756863.8404
 108467599.41748  84520305.09846  20640672.2034                   20640676.6454
 110543944.73047  86138242.38946  21035789.9064                   21035796.6764
 11  7 24  2 42 30.0000000  0  9G12G05G25G04G27G17G09G02G10
 109588229.627 8  85393350.991 7  20853907.469
 111016462.799 8  86506481.199 7  21125726.320
 120706807.373 7  94057316.430 6  22969743.242
 118514734.82147  92349294.16444  22552575.1414                   22552581.7544
 130154909.79815                  24767662.422
 125914033.708 6  98114941.583 6  23960620.383
 130182663.87145 101441155.58343  24772967.9924                   24772979.1884
 108482739.39348  84532102.49846  20643553.2814                   20643557.9144
 110576839.92647  86163875.02645  21042049.3674                   21042056.8364
 11  7 24  2 43  0.0000000  0  9G12G05G25G04G27G17G09G02G10
 109564126.867 8  85374569.626 7  20849320.813
 110948241.392 8  86453321.689 7  21112744.398
 120624850.071 7  93993453.725 7  22954146.805
 118596966.93147  92413371.14844  22568223.0234                   22568230.2234
 130218762.528 5                  24779811.383
 125981199.049 6  98167278.218 6  23973401.281
 130267300.00745 101507105.70442  24789073.9614                   24789084.8914
 108498109.71648  84544079.39846  20646477.9614                   20646482.8444
 110610338.96747  86189978.17645  21048424.5234                   21048431.2814
 11  7 24  2 43 30.0000000  0  9G12G05G25G04G27G17G09G02G10
 109540582.423 8  85356223.302 7  20844840.531
 110880477.494 8  86400518.693 7  21099848.836
 120543246.266 7  93929866.445 7  22938617.672
 118679247.73147  92477486.06444  22583880.3914                   22583888.1054
 130282508.943 5                  24791942.602
 126048540.928 6  98219752.438 6  23986216.727
 130351884.95246 101573015.98843  24805170.1564                   24805180.7504
 108513709.94048  84556235.44246  20649446.6884                   20649451.1954
 110644440.88347  86216551.10145  21054913.3524                   21054920.5084
 11  7 24  2 44  0.0000000  0  9G12G05G25G04G27G17G09G02G10
 109517597.081 8  85338312.658 7  20840466.227
 110813173.622 8  86348074.165 7  21087041.234
 120461998.458 7  93866556.508 7  22923157.398
 118761575.79547  92541637.80144  22599547.1954                   22599554.3914
 130346146.392 5                  24804054.094
 126116059.360 6  98272364.205 6  23999064.594
 130436415.36546 101638883.79142  24821255.5474                   24821266.2154
 108529538.90948  84568569.73246  20652458.4144                   20652463.2734
 110679144.43947  86243592.84445  21061516.7504                   21061524.1764
 11  7 24  2 44 30.0000000  0  9G12G05G25G04G27G17G09G02G10
 109495172.351 8  85320838.852 7  20836198.992
 110746331.805 8  86295989.645 7  21074322.148
 120381109.414 7  93803526.111 6  22907764.898
 118843949.82147  92605825.36044  22615222.8284                   22615229.8094
                                  24816140.359
 126183754.896 6  98325113.982 6  24011946.695
 130520888.48346 101704706.97742  24837330.8134                   24837340.7274
 108545595.44848  84581081.34946  20655514.0234                   20655518.6334
 110714448.43547  86271102.45846  21068235.6174                   21068242.6684
 11  7 24  2 45  0.0000000  0  8G12G05G25G04G17G09G02G10
 109473309.488 8  85303802.842 7  20832038.773
 110679954.247 8  86244266.920 7  21061690.617
 120300581.833 7  93740777.405 7  22892441.102
 118926368.59147  92670047.80544  22630905.9384                   22630913.2934
 126251627.957 5  98378002.044 6  24024863.195
 130605301.83446 101770483.55143  24853393.7664                   24853404.0204
 108561878.67548  84593769.59046  20658612.5394                   20658617.2814
 110750351.42647  86299078.81346  21075067.8204                   21075074.9064
 11  7 24  2 45 30.0000000  0  8G12G05G25G04G17G09G02G10
 109452008.367 8  85287204.579 7  20827985.055
 110614042.408 8  86192907.077 7  21049148.094
 120220417.223 7  93678311.565 7  22877186.047
 119008829.53547  92734303.08644  22646598.2114                   22646605.8754
 126319677.278 5  98431027.529 6  24037812.414
 130689651.47445 101836210.49743  24869445.1804                   24869455.8164
 108578386.40048  84606632.77346  20661753.8914                   20661758.5474
 110786851.22748  86327520.24246  21082013.3914                   21082020.1454
 11  7 24  2 46  0.0000000  0  9G12G05G25G04G27G17G09G02G10
 109431270.797 8  85271045.450 7  20824039.211
 110548598.595 8  86141911.951 7  21036694.281
 120140618.647 7  93616130.871 7  22862001.297
 119091331.97647  92798590.70744  22662297.4924                   22662305.8134
 130599549.52015                  24852275.992
 126387903.12015  98484190.46416  24050795.938
 130773934.56246 101901885.47442  24885482.6174                   24885494.6914
 108595117.81748  84619670.25846  20664938.0084                   20664943.0824
 110823946.73547  86356425.83246  21089072.4694                   21089079.2034
 11  7 24  2 46 30.0000000  0  9G12G05G25G04G27G17G09G02G10
 109411097.696 8  85255326.152 7  20820200.500
 110483625.547 8  86091283.657 7  21024330.242
 120061188.933 7  93554237.629 7  22846886.141
 119173874.58547  92862909.63645  22678004.7734                   22678013.3244
 130662605.448 5                  24864275.844
 126456306.368 6  98537491.747 6  24063810.594
 130858148.41746 101967506.61942  24901509.2274                   24901520.0824
 108612072.20648  84632881.49946  20668164.1564                   20668168.9344
 110861636.46248  86385794.45946  21096244.5164                   21096251.1954
 11  7 24  2 47  0.0000000  0  8G12G05G25G04G17G09G02G10
 109391489.942 8  85240047.388 7  20816468.984
 110419124.936 8  86041023.493 7  21012056.125
 119982130.324 7  93492633.577 7  22831841.281
 119256455.92747  92927258.73244  22693719.5314                   22693727.4654
 126524886.57715  98590930.85916  24076860.695
 130942289.92646 102033071.41852  24917519.7664                   24917531.2154
 108629248.04548  84646265.28546  20671432.7814                   20671437.1564
 110899918.90748  86415624.95446  21103529.6094                   21103536.3484
 11  7 24  2 47 30.0000000  0  8G12G05G25G04G17G09G02G10
 109372449.360 8  85225210.573 7  20812845.750
 110355099.625 8  85991133.707 7  20999872.641
 119903446.148 7  93431321.293 7  22816868.492
 119339075.22547  92991637.41944  22709441.7504                   22709449.1454
 126593644.681 6  98644508.583 6  24089946.867
 131026356.88745 102098578.07242  24933517.9694                   24933529.0984
 108646645.29848  84659821.59946  20674743.0164                   20674747.9184
 110938793.19547  86445916.61845  21110927.0164                   21110934.1454
 11  7 24  2 48  0.0000000  0  8G12G05G25G04G17G09G02G10
 109353976.196 8  85210815.912 7  20809330.336
 110291551.103 8  85941615.414 7  20987780.063
 119825138.459 7  93370302.320 7  22801967.234
 119421730.63447  93056044.25544  22725170.1644                   22725177.6094
 126662580.435 6  98698224.777 6  24103064.398
 131110345.68646 102164023.87642  24949501.4694                   24949512.5434
 108664262.07048  84673548.98446  20678095.3834                   20678100.1994
 110978257.29547  86476667.87746  21118436.4844                   21118443.6024
 11  7 24  2 48 30.0000000  0  8G12G05G25G04G17G09G02G10
 109336071.227 8  85196863.995 7  20805923.023
 110228481.124 8  85892470.017 7  20975778.500
 119747209.381 7  93309578.409 7  22787137.367
 119504420.64447  93120478.06544  22740905.1414                   22740913.2974
 126731693.117 6  98752078.855 6  24116216.766
 131194253.09746 102229406.19142  24965468.6414                   24965479.9144
 108682096.75448  84687446.13946  20681489.2504                   20681494.3794
 111018309.26547  86507877.22946  21126058.1724                   21126065.3834
 11  7 24  2 49  0.0000000  0  9G12G05G25G04G27G17G09G02G10
 109318735.129 8  85183355.358 7  20802624.383
 110165891.794 8  85843699.145 7  20963867.766
 119669661.457 7  93249151.467 7  22772380.539
 119587143.72147  93184937.62044  22756647.3204                   22756654.6174
 130976208.79214                  24923909.375
 126800983.020 6  98806070.983 6  24129401.828
 131278076.29145 102294722.97042  24981418.4844                   24981429.6024
 108700148.28648  84701512.28846  20684924.6094                   20684929.3134
 111058947.43847  86539543.35245  21133791.5004                   21133798.2894
 11  7 24  2 49 30.0000000  0  8G12G05G25G04G17G09G02G10
 109301969.702 8  85170291.388 7  20799434.148
 110103786.001 8  85795305.074 7  20952049.242
 119592498.124 7  93189024.240 7  22757697.242
 119669899.57447  93249422.73044  22772395.0704                   22772402.5124
 126870451.148 6  98860201.999 6  24142620.633
 131361813.40346 102359972.58243  24997354.0314                   24997365.3794
 108718416.45148  84715747.23346  20688400.5554                   20688405.5474
 111100171.24247  86571665.79645  21141636.1644                   21141643.1994
 11  7 24  2 50  0.0000000  0  8G12G05G25G04G17G09G02G10
 109285775.387 8  85157672.450 7  20796352.070
 110042165.139 8  85747288.875 7  20940323.141
 119515721.166 7  93129198.084 7  22743086.727
 119752686.22647  93313931.83244  22788148.7344                   22788156.6214
 126940096.687 6  98914471.253 6  24155874.109
 131445460.60345 102425152.12443  25013271.2584                   25013282.1994
 108736899.56848  84730149.67346  20691918.1724                   20691922.3484
 111141978.42747  86604242.83645  21149591.8204                   21149599.2734
 11  7 24  2 50 30.0000000  0  9G12G05G25G04G29G17G09G02G10
 109270153.051 8  85145499.223 7  20793379.258
 109981031.290 8  85699652.160 7  20928689.828
 119439333.363 7  93069675.164 7  22728550.500
 119835502.60747  93378464.13644  22803908.6254                   22803915.7234
 130097921.75015 101375076.51614  24756819.078
 127009919.890 6  98968878.993 6  24169160.656
 131529015.17946 102490259.47543  25029170.2974                   25029181.9924
 108755596.70048  84744718.88246  20695476.2194                   20695480.6414
 111184367.22447  86637273.07446  21157657.7584                   21157664.7504
 11  7 24  2 51  0.0000000  0  9G12G05G25G04G29G17G09G02G10
 109255103.671 8  85133772.438 7  20790515.516
 109920386.520 8  85652396.545 7  20917149.227
 119363337.164 7  93010457.415 7  22714088.633
 119918347.38647  93443018.51344  22819673.1024                   22819680.6454
 130018213.417 6 101312966.321 4  24741650.484
 127079920.872 6  99023425.229 5  24182481.711
 131612474.41046 102555292.57343  25045053.7734                   25045063.6094
 108774506.72548  84759453.96746  20699074.2194                   20699079.5784
 111227336.16147  86670755.36645  21165834.4694                   21165841.5784
 11  7 24  2 51 30.0000000  0  9G12G05G25G04G29G17G09G02G10
 109240627.718 8  85122492.496 7  20787760.430
 109860232.550 8  85605523.355 7  20905702.609
 119287734.988 7  92951546.697 7  22699702.281
 120001219.40347  93507594.10144  22835442.9534                   22835451.2894
 129938434.402 5 101250800.999 5  24726468.656
 127150099.400 6  99078109.790 6  24195837.344
 131695835.23146 102620248.95443  25060915.8204                   25060926.7664
 108793628.39148  84774353.98846  20702713.2424                   20702718.4184
 111270883.79748  86704688.62045  21174121.6254                   21174128.6524
 11  7 24  2 52  0.0000000  0  9G12G05G25G04G29G17G09G02G10
 109226726.193 8  85111660.134 7  20785115.883
 109800571.706 8  85559034.409 7  20894348.977
 119212529.475 7  92892945.065 7  22685390.672
 120084117.26447  93572189.86744  22851217.5084                   22851225.7934
 129858585.279 6 101188580.999 5  24711273.133
 127220455.793 6  99132932.957 5  24209224.273
 131779094.67746 102685126.34243  25076760.0084                   25076771.2734
 108812960.99248  84789418.36146  20706392.2664                   20706396.1254
 111315007.85848  86739071.00445  21182518.5704                   21182525.3204
 11  7 24  2 52 30.0000000  0  9G12G05G25G04G29G17G09G02G10
 109213400.009 8  85101276.102 7  20782579.680
 109741405.703 8  85512931.074 7  20883090.719
 119137722.958 7  92834654.338 7  22671155.563
 120167039.76047  93636804.76844  22866997.4304                   22867005.7734
 129778666.319 5 101126306.647 5  24696063.906
 127290989.860 7  99187894.571 6  24222647.102
 131862250.23446 102749922.77443  25092583.0634                   25092595.1174
 108832502.72548  84804645.70046  20710110.8364                   20710115.0124
 111359706.88747  86773901.43945  21191023.6564                   21191031.2274
 11  7 24  2 53  0.0000000  0  9G12G05G25G04G29G17G09G02G10
 109200649.565 8  85091340.709 7  20780152.953
 109682736.328 8  85467214.711 7  20871926.141
 119063317.792 7  92776676.347 7  22656997.023
 120249985.31846  93701437.69844  22882781.6254                   22882789.7774
 129698677.723 5 101063978.030 5  24680844.539
 127361701.545 6  99242994.682 5  24236102.656
 131945298.82145 102814635.81742  25108388.7424                   25108398.6254
 108852252.46548  84820035.12946  20713869.0084                   20713873.5274
 111404978.82347  86809178.25745  21199639.0234                   21199646.3984
 11  7 24  2 53 30.0000000  0  9G12G05G25G04G29G17G09G02G10
 109188475.223 7  85081854.226 7  20777836.266
 109624565.406 8  85421886.743 7  20860856.148
 118989316.452 7  92719013.013 7  22642915.016
 120332953.03447  93766087.86244  22898570.2344                   22898578.3244
 129618620.277 5 101001595.679 5  24665609.156
 127432590.953 6  99298233.139 5  24249592.695
 132028237.55046 102879263.35042  25124171.2424                   25124180.9384
 108872209.69947  84835586.23946  20717666.5234                   20717671.3524
 111450822.00348  86844900.21445  21208362.7814                   21208370.0204
 11  7 24  2 54  0.0000000  0  9G12G05G25G04G29G17G09G02G10
 109176878.063 7  85072817.467 7  20775629.586
 109566894.768 8  85376948.635 7  20849881.953
 118915721.390 7  92661666.269 7  22628910.102
 120415941.69247  93830754.33844  22914362.2344                   22914370.0234
 129538494.360 5 100939159.967 5  24650361.063
 127503657.975 6  99353610.031 6  24263116.047
 132111063.84645 102943803.17442  25139932.1644                   25139942.6374
 108892372.88048  84851297.82846  20721503.5004                   20721507.9144
 111497234.82747  86881066.06245  21217194.6094                   21217201.9654
 11  7 24  2 54 30.0000000  0  9G12G05G25G04G29G17G09G02G10
 109165859.236 8  85064231.387 7  20773532.609
 109509726.812 8  85332402.227 7  20839003.211
 118842535.532 7  92604638.390 7  22614983.375
 120498950.60747  93895436.60944  22930158.0314                   22930166.2664
 129458300.992 5 100876671.655 5  24635100.953
 127574902.913 6  99409125.558 6  24276673.719
 132193775.15944 103008253.47442  25155669.8834                   25155682.4104
 108912741.57648  84867169.55246  20725379.8834                   20725384.2504
 111544215.61848  86917674.49045  21226135.1254                   21226141.8914
 11  7 24  2 55  0.0000000  0  9G12G05G25G04G29G17G09G02G10
 109155418.999 8  85056096.148 7  20771546.094
 109453063.260 8  85288248.829 7  20828220.484
 118769760.941 7  92547930.988 7  22601134.391
 120581977.96947  93960133.24744  22945958.0234                   22945965.4574
 129378040.285 5 100814130.958 5  24619828.625
 127646325.783 6  99464779.763 6  24290264.641
 132276368.42845 103072611.64152  25171388.6094                   25171399.9384
 108933314.18648  84883200.19546  20729294.3914                   20729299.3834
 111591762.24247  86954723.84745  21235182.8444                   21235189.6954
 11  7 24  2 55 30.0000000  0  9G12G05G25G04G29G17G09G02G10
 109145557.303 8  85048411.709 7  20769669.734
 109396905.115 8  85244489.287 7  20817533.766
 118697399.661 7  92491545.609 7  22587364.211
 120665022.12747  94024842.98544  22961761.2974                   22961767.9804
 129297712.254 5 100751537.708 5  24604542.414
 127717926.130 6  99520572.166 6  24303890.539
 132358840.54655 103136875.62152  25187081.7664                   25187093.8954
 108954089.26248  84899388.58646  20733247.5784                   20733252.4804
 111639872.38747  86992212.29245  21244337.6644                   21244344.9964
 11  7 24  2 56  0.0000000  0  9G12G05G25G04G29G17G09G02G10
 109136274.597 7  85041178.449 7  20767903.023
 109341254.174 8  85201124.955 8  20806943.578
 118625453.914 7  92435484.056 7  22573674.063
 120748081.98247  94089564.96744  22977566.1954                   22977573.9024
 129217317.266 5 100688892.285 5  24589243.672
 127789703.331 6  99576502.493 6  24317548.516
 132441188.38545 103201042.64142  25202751.5164                   25202764.2074
 108975065.76248  84915733.91646  20737239.4924                   20737244.2344
 111688543.93147  87030138.16345  21253599.1174                   21253606.5784
 11  7 24  2 56 30.0000000  0  9G12G05G25G04G29G17G09G02G10
 109127572.749 8  85034397.794 7  20766247.352
 109286113.230 8  85158158.013 7  20796450.602
 118553927.054 7  92379748.882 7  22560062.836
 120831157.32147  94154298.99244  22993375.6644                   22993383.0434
 129136856.771 5 100626195.871 5  24573932.516
 127861658.569 6  99632571.448 6  24331241.680
 132523410.36345 103265111.64742  25218399.8984                   25218409.7774
 108996243.23648  84932235.86446  20741269.8524                   20741273.7774
 111737776.04447  87068500.85745  21262968.1334                   21262975.3324
 11  7 24  2 57  0.0000000  0  9G12G05G25G04G29G17G09G02G10
 109119451.457 8  85028069.526 7  20764701.602
 109231483.677 8  85115589.576 7  20786055.063
 118482821.094 7  92324341.710 7  22546532.156
 120914246.52147  94219043.81144  23009186.7114                   23009194.2704
 129056330.869 5 100563448.593 5  24558609.711
 127933791.209 6  99688778.682 6  24344968.344
 132605503.03746 103329079.88742  25234021.1564                   25234032.1724
 109017620.71448  84948893.65046  20745337.3834                   20745341.8054
 111787566.19047  87107298.37945  21272443.1484                   21272449.9224
 11  7 24  2 57 30.0000000  0  9G12G05G25G04G29G17G09G02G10
 109111911.000 8  85022193.851 7  20763266.703
 109177366.891 8  85073420.690 7  20775757.313
 118412138.189 7  92269264.116 7  22533081.555
 120997348.26547  94283798.43844  23025000.5394                   23025006.9614
 128975739.985 5 100500650.547 5  24543272.938
 128006101.207 6  99745124.095 6  24358727.898
 132687463.60356 103392945.16252  25249617.8364                   25249629.1454
 109039196.59548  84965706.04146  20749442.8674                   20749447.3714
 111837912.44747  87146529.26745  21282023.0474                   21282030.0744
 11  7 24  2 58  0.0000000  0  9G12G05G25G04G29G17G09G02G10
 109104952.308 8  85016771.499 7  20761942.438
 109123764.780 8  85031652.848 7  20765557.227
 118341880.858 7  92214518.197 7  22519711.914
 121080461.60447  94348562.09844  23040816.2734                   23040823.7624
 128895084.930 5 100437802.680 5  24527926.875
 128078588.567 6  99801607.792 6  24372521.734
 132769289.54445 103456705.54643  25265188.0784                   25265201.0084
 109060969.91948  84982672.27446  20753586.5634                   20753590.9264
 111888813.15047  87186192.16545  21291709.2424                   21291716.1524
 11  7 24  2 58 30.0000000  0  9G12G05G25G04G29G17G09G02G10
 109098575.955 8  85011802.930 7  20760729.313
 109070679.113 8  84990287.439 8  20755455.391
 118272051.731 7  92160105.940 7  22506423.313
 121163585.47446  94413333.91244  23056633.9224                   23056641.9104
 128814366.263 5 100374905.130 5  24512562.703
 128151253.283 6  99858229.590 6  24386350.508
 132850978.26256 103520359.01252  25280734.4694                   25280744.4924
 109082939.64948  84999791.55246  20757767.3674                   20757771.7624
 111940266.40247  87226285.61245  21301500.9224                   21301507.7774
 11  7 24  2 59  0.0000000  0 10G12G05G25G04G29G27G17G09G02G10
 109092781.487 8  85007287.749 7  20759626.672
 109018110.989 8  84949325.299 8  20745451.648
 118202652.368 7  92106028.547 7  22493217.219
 121246718.30346  94478112.73844  23072453.0634                   23072461.4654
 128733584.050 5 100311958.038 4  24497189.695
                                  25155460.367
 128224094.626 6  99914989.025 6  24400210.305
 132932526.18945 103583902.77643  25296250.5084                   25296263.0084
 109105103.86948  85017062.37546  20761984.6954                   20761989.5434
 111992269.30147  87266807.37045  21311396.7344                   21311403.4344
 11  7 24  2 59 30.0000000  0  9G12G05G25G04G29G17G09G02G10
 109087570.756 7  85003227.453 7  20758634.930
 108966063.625 8  84908768.945 8  20735546.984
 118133686.361 7  92052288.852 7  22480093.156
 121329860.05047  94542898.50544  23088275.3284                   23088282.4804
 128652740.41215 100248963.11514  24481806.953
 128297113.687 7  99971886.947 6  24414105.664
 133013931.87446 103647335.67643  25311742.7894                   25311753.9884
 109127463.48947  85034485.49146  20766239.7584                   20766244.4304
 112044820.78547  87307756.60045  21321396.9844                   21321403.2544
 11  7 24  3  0  0.0000000  0  9G12G05G25G04G29G17G09G02G10
 109082943.481 8  84999621.813 7  20757754.508
 108914537.666 8  84868618.886 8  20725742.180
 118065155.569 7  91998888.235 7  22467052.484
 121413009.10246  94607689.97444  23104098.5084                   23104106.0434
 128571834.38116 100185919.59015  24466411.336
 128370310.113 6 100028923.133 6  24428034.656
 133095192.04345 103710655.20342  25327205.5004                   25327217.2734
 109150016.66048  85052059.38546  20770531.5474                   20770535.5164
 112097918.44847  87349131.41445  21331501.0864                   21331507.9654
 11  7 24  3  0 30.0000000  0  9G12G05G25G04G29G17G09G02G10
 109078899.807 8  84996470.897 8  20756984.797
 108863534.580 8  84828876.270 7  20716036.539
 117997062.154 7  91945828.444 7  22454094.828
 121496164.36646  94672486.30244  23119922.0394                   23119929.4804
 128490867.111 6 100122828.269 4  24451004.523
 128443683.424 6 100086097.122 6  24441997.039
 133176304.04946 103773859.36342  25342641.8594                   25342652.6054
 109172762.11348  85069783.12446  20774859.6094                   20774863.7814
 112151560.29047  87390930.27245  21341708.7034                   21341715.4774
 11  7 24  3  1  0.0000000  0  9G12G05G25G04G29G17G09G02G10
 109075440.286 8  84993775.180 8  20756326.531
 108813055.791 8  84789542.175 7  20706431.117
 117929408.255 7  91893111.150 7  22441220.078
 121579324.32447  94737286.25844  23135746.9384                   23135754.7034
 128409838.944 6 100059689.563 5  24435584.148
 128517233.190 6 100143408.605 5  24455993.617
 133257265.52246 103836946.07543  25358048.0394                   25358060.0044
 109195698.49348  85087655.62846  20779224.5234                   20779228.5664
 112205743.95347  87433151.32945  21352019.3594                   21352025.7894
 11  7 24  3  1 30.0000000  0  9G12G05G25G04G29G17G09G02G10
 109072565.140 8  84991534.830 8  20755779.461
 108763103.254 8  84750618.133 8  20696925.578
 117862196.460 7  91840738.363 7  22428430.398
 121662488.41247  94802089.45044  23151571.8054                   23151580.4304
 128328750.427 6  99996503.889 6  24420154.055
 128590959.715 6 100200857.809 6  24470023.430
 133338073.70046 103899913.38343  25373425.2974                   25373436.6414
 109218825.19248  85105676.43646  20783625.0234                   20783630.0594
 112260467.85047  87475793.33045  21362433.3984                   21362439.6454
 11  7 24  3  2  0.0000000  0  9G12G05G25G04G29G17G09G02G10
 109070274.425 8  84989749.849 8  20755343.406
 108713678.040 8  84712105.025 8  20687520.195
 117795428.553 8  91788711.456 7  22415725.289
 121745655.19147  94866894.71144  23167398.2194                   23167406.3284
 128247602.335 5  99933271.784 5  24404711.906
 128664862.676 6 100258444.469 6  24484086.305
 133418725.54245 103962758.87742  25388772.7584                   25388784.5984
 109242140.53448  85123844.22146  20788061.9144                   20788066.3834
 112315729.04947  87518854.01545  21372949.1484                   21372955.6214
 11  7 24  3  2 30.0000000  0  9G12G05G25G04G29G17G09G02G10
 109068568.601 7  84988420.652 8  20755018.719
 108664782.151 8  84674004.370 8  20678215.070
 117729107.183 8  91737032.512 7  22403104.531
 121828824.03146  94931701.62543  23183224.2734                   23183232.2774
 128166395.257 6  99869993.693 6  24389258.852
 128738942.026 6 100316168.636 6  24498183.172
 133499218.60845 104025480.70042  25404090.4454                   25404102.4264
 109265644.00748  85142158.61346  20792534.6414                   20792538.8094
 112371525.93247  87562332.13445  21383566.6724                   21383572.7304
 11  7 24  3  3  0.0000000  0  9G12G05G25G04G29G17G09G02G10
 109067447.356 7  84987546.977 8  20754805.102
 108616416.945 8  84636317.231 7  20669011.398
 117663234.462 8  91685703.125 7  22390569.367
 121911993.53647  94996509.01644  23199051.3914                   23199058.6524
 128085129.939 6  99806670.182 6  24373793.320
 128813197.304 6 100374029.854 5  24512313.828
 133579550.02545 104088076.57843  25419376.1804                   25419388.4184
 109289334.23848  85160618.54446  20797042.5314                   20797047.0474
 112427855.64447  87606225.43145  21394286.1174                   21394292.1374
 11  7 24  3  3 30.0000000  0  9G12G05G25G04G29G17G09G02G10
 109066911.344 8  84987129.308 7  20754703.602
 108568584.012 8  84599044.835 7  20659909.688
 117597812.818 8  91634725.257 7  22378120.313
 121995162.88547  95061316.28944  23214878.3524                   23214885.7624
 128003806.962 5  99743301.766 6  24358317.695
 128887629.068 7 100432028.668 6  24526477.336
 133659717.49346 104150544.61542  25434632.4384                   25434643.6374
 109313210.79548  85179223.66646  20801586.4304                   20801591.1484
 112484716.75647  87650532.79945  21405106.3834                   21405112.8204
 11  7 24  3  4  0.0000000  0  9G12G05G25G04G29G17G09G02G10
 109066960.831 8  84987167.886 8  20754712.773
 108521284.591 8  84562188.179 7  20650908.711
 117532844.514 8  91584100.651 7  22365756.930
 122078331.16047  95126122.75544  23230704.8674                   23230712.2814
 127922427.027 6  99679888.950 6  24342832.703
 128962236.731 6 100490164.531 6  24540674.680
 133739718.42145 104212882.85142  25449854.5864                   25449867.9304
 109337272.43748  85197973.04246  20806165.1094                   20806169.5664
 112542106.75747  87695252.28645  21416027.2584                   21416033.8204
 11  7 24  3  4 30.0000000  0  9G12G05G25G04G29G17G09G02G10
 109067596.069 8  84987662.870 7  20754833.781
 108474520.152 8  84525748.383 7  20642009.398
 117468331.604 7  91533830.901 7  22353480.836
 122161497.20747  95190927.48944  23246530.5554                   23246537.4694
 127840990.818 6  99616432.277 6  24327336.203
 129037020.204 6 100548437.321 6  24554906.305
 133819549.71015                  25465048.102
 109361517.76648  85216865.50446  20810778.5084                   20810783.4884
 112600023.61447  87740382.32045  21427047.9304                   21427054.8324
 11  7 24  3  5  0.0000000  0  9G12G05G25G04G29G17G09G02G10
 109068817.429 7  84988614.577 7  20755066.078
 108428292.311 8  84489726.721 8  20633212.438
 117404276.565 7  91483917.926 7  22341291.055
 122244660.23147  95255729.85944  23262355.2344                   23262362.7934
 127759498.868 6  99552932.182 6  24311828.992
 129111979.460 6 100606847.170 5  24569170.375
 133899209.54914                  25480205.898
 109385946.22948  85235900.67046  20815427.3134                   20815432.1724
 112658464.90647  87785921.00345  21438168.9774                   21438176.5204
 11  7 24  3  5 30.0000000  0  8G12G05G25G04G29G17G02G10
 109070624.271 8  84990022.515 7  20755410.094
 108382602.738 8  84454124.480 8  20624518.531
 117340681.688 7  91434363.506 7  22329189.445
 122327819.55447  95320529.32344  23278180.7194                   23278187.8794
 127677952.319 6  99489389.541 5  24296310.391
 129187114.347 6 100665393.822 5  24583467.609
 109410556.82248  85255077.78046  20820110.6484                   20820115.6844
 112717428.85747  87831866.93345  21449390.0314                   21449396.7974
 11  7 24  3  6  0.0000000  0  9G12G05G25G04G29G17G09G02G10
 109073016.243 8  84991886.413 7  20755865.008
 108337451.649 8  84418941.831 8  20615925.914
 117277548.268 7  91385168.698 7  22317175.148
 122410973.08347  95385324.31744  23294004.5004                   23294011.4304
 127596350.826 6  99425804.094 5  24280782.047
 129262423.859 6 100724076.595 5  24597798.781
 134058003.31315                  25510424.750
 109435347.77248  85274395.40546  20824828.2114                   20824832.9384
 112776912.32347  87878217.69345  21460708.7114                   21460716.1414
 11  7 24  3  6 30.0000000  0  9G12G05G25G04G29G17G09G02G10
 109075994.316 8  84994206.992 7  20756432.063
 108292841.421 8  84384180.646 7  20607437.164
 117214879.106 7  91336335.621 7  22305249.758
 122494120.49647  95450114.51344  23309826.5474                   23309833.6024
 127514695.902 6  99362176.997 6  24265243.313
 129337908.216 6 100782895.509 6  24612162.094
 134137132.296 5                  25525480.156
 109460318.60048  85293853.19946  20829579.5164                   20829584.4614
 112836913.50647  87924971.87445  21472127.1564                   21472133.8914
 11  7 24  3  7  0.0000000  0  9G12G05G25G04G29G17G09G02G10
 109079558.478 8  84996984.283 7  20757110.172
 108248773.100 8  84349841.721 8  20599051.023
 117152676.429 7  91287866.045 7  22293413.227
 122577260.94946  95514899.30544  23325648.2424                   23325654.8404
 127432988.202 6  99298508.730 5  24249695.922
 129413567.485 6 100841850.747 6  24626559.578
 134216079.550 5                  25540504.820
 109485468.38148  85313450.43346  20834365.7584                   20834370.4454
 112897430.33347  87972127.86145  21483643.0234                   21483649.8404
 11  7 24  3  7 30.0000000  0  9G12G05G25G04G29G17G09G02G10
 109083708.186 8  85000217.818 7  20757899.867
 108205247.663 8  84315925.849 8  20590768.570
 117090942.131 7  91239761.396 7  22281665.859
 122660393.51146  95579677.94044  23341467.4064                   23341474.9844
 127351228.208 6  99234799.722 5  24234137.234
 129489401.245 6 100900941.998 5  24640990.992
 134294842.390 5                  25555492.844
 109510796.08648  85333186.31846  20839185.3134                   20839190.0004
 112958460.04647  88019683.48945  21495256.1024                   21495263.0204
 11  7 24  3  8  0.0000000  0  9G12G05G25G04G29G17G09G02G10
 109088443.651 8  85003907.793 7  20758801.086
 108162266.462 8  84282434.028 8  20582589.664
 117029678.454 7  91192023.478 7  22270007.047
 122743516.91646  95644449.46144  23357285.1564                   23357292.4574
 127269416.650 6  99171050.579 5  24218568.672
 129565409.432 6 100960169.164 6  24655454.109
 134373417.950 5                  25570447.719
 109536300.60148  85353059.97246  20844038.6644                   20844042.8524
 113020000.54947  88067637.13645  21506967.1094                   21506974.0944
 11  7 24  3  8 30.0000000  0  9G12G05G25G04G29G17G09G02G10
 109093765.289 8  85008054.540 7  20759813.727
 108119831.382 8  84249367.750 8  20574514.117
 116968887.658 7  91144654.067 7  22258438.977
 122826630.58746  95709213.37744  23373100.3914                   23373108.7344
 127187554.646 6  99107262.149 5  24202990.148
 129641591.851 6 101019532.024 6  24669951.922
 134451803.99715                  25585361.469
 109561981.23248  85373070.86046  20848925.6564                   20848929.9104
 113082049.54347  88115987.01345  21518774.4924                   21518781.6484
 11  7 24  3  9  0.0000000  0  8G12G05G25G04G29G17G02G10
 109099672.373 8  85012657.479 7  20760937.773
 108077943.406 8  84216727.792 8  20566543.375
 116908571.702 7  91097654.664 7  22246961.445
 122909733.52847  95773968.92143  23388914.5704                   23388922.0784
 127105642.771 6  99043434.775 5  24187403.008
 129717948.062 6 101079030.379 6  24684482.148
 109587836.72248  85393218.01146  20853845.6334                   20853850.1174
 113144604.49647  88164731.13845  21530678.1724                   21530685.5354
 11  7 24  3  9 30.0000000  0  8G12G05G25G04G29G17G02G10
 109106165.383 8  85017716.978 7  20762173.406
 108036603.911 8  84184515.227 7  20558676.148
 116848733.030 7  91051027.097 7  22235574.773
 122992825.14846  95838715.60744  23404726.2734                   23404733.8874
 127023682.071 6  98979569.425 5  24171806.914
 129794478.126 6 101138664.214 5  24699045.023
 109613866.40648  85413500.88546  20858799.0004                   20858803.1604
 113207663.71447  88213868.20045  21542678.4064                   21542685.4224
 11  7 24  3 10  0.0000000  0  8G12G05G25G04G29G17G02G10
 109113244.058 8  85023232.844 7  20763520.469
 107995814.042 8  84152730.954 8  20550914.398
 116789373.681 7  91004773.073 6  22224278.430
 123075904.68046  95903452.93543  23420536.0634                   23420543.6094
 126941673.261 6  98915666.540 5  24156200.375
 129871181.864 6 101198433.365 5  24713640.773
 109640069.66048  85433919.01346  20863785.2894                   20863790.0314
 113271224.37547  88263395.99845  21554773.0314                   21554780.5434
 11  7 24  3 10 30.0000000  0  8G12G05G25G04G29G17G02G10
 109120907.728 8  85029204.552 7  20764978.555
 107955574.725 8  84121375.695 8  20543256.906
 116730495.419 7  90958893.926 7  22213075.164
 123158970.78346  95968179.79144  23436343.5944                   23436350.9614
 126859616.935 6  98851726.616 6  24140585.992
 129948058.859 6 101258337.521 6  24728271.539
 109666444.92548  85454471.17146  20868804.3594                   20868809.6374
 113335284.11047  88313312.67845  21566963.9454                   21566970.4454
 11  7 24  3 11  0.0000000  0  9G12G05G25G04G29G26G17G02G10
 109129156.629 8  85035632.267 7  20766548.055
 107915886.784 8  84090450.069 8  20535704.695
 116672100.027 7  90913391.075 7  22201962.047
 123242022.22346  96032895.23243  23452146.8364                   23452155.2934
 126777513.683 6  98787750.202 6  24124961.750
 135526696.73015                  25789883.336
 130025108.887 5 101318376.511 6  24742931.516
 109692991.16248  85475156.55446  20873855.9304                   20873860.3674
 113399839.98347  88363615.95845  21579248.3054                   21579255.1214
 11  7 24  3 11 30.0000000  0  9G12G05G25G04G29G26G17G02G10
 109137990.188 8  85042515.572 7  20768229.414
 107876751.817 8  84059955.328 8  20528257.797
 116614189.995 7  90868266.367 7  22190942.055
 123325058.59946  96097598.89643  23467948.5864                   23467956.0904
 126695364.424 6  98723737.921 6  24109329.023
 135442637.77315                  25773886.984
 130102331.481 5 101378549.912 6  24757627.281
 109719707.65648  85495974.60546  20878940.0944                   20878944.3164
 113464889.87247  88414304.21545  21591626.7424                   21591633.7194
 11  7 24  3 12  0.0000000  0  8G12G05G25G04G29G17G02G10
 109147408.709 8  85049854.681 7  20770021.977
 107838171.075 8  84029892.458 8  20520915.688
 116556767.429 7  90823521.533 7  22180015.484
 123408079.48647  96162290.52343  23483746.6174                   23483754.4414
 126613169.827 6  98659690.297 6  24093688.594
 130179726.425 6 101438857.697 6  24772355.563
 109746593.74148  85516924.82846  20884055.8754                   20884060.5394
 113530431.53747  88465375.63745  21604098.9614                   21604105.8754
 11  7 24  3 12 30.0000000  0  9G12G05G25G04G29G17G09G02G10
 109157409.912 8  85057647.833 7  20771924.797
 107800143.536 8  84000260.647 8  20513679.477
 116499832.353 7  90779156.585 7  22169180.672
 123491081.94747  96226967.78643  23499541.6884                   23499548.6024
 126530929.455 6  98595607.028 6  24078038.094
 130257291.757 6 101499298.268 6  24787114.766
 135071960.67215                  25703340.234
 109773646.35048  85538004.80146  20889203.9774                   20889208.9304
 113596460.43447  88516826.73545  21616663.5314                   21616670.9734
 11  7 24  3 13  0.0000000  0  9G12G05G25G04G29G17G09G02G10
 109167995.872 8  85065896.639 7  20773939.047
 107762672.636 8  83971062.594 8  20506548.883
 116443388.968 7  90735174.760 6  22158440.102
 123574067.31247  96291631.71943  23515333.2734                   23515340.5864
 126448646.233 6  98531490.359 5  24062379.930
 130335029.133 6 101559872.826 5  24801907.820
 135148530.00514                  25717912.984
 109800867.17648  85559215.84346  20894384.0164                   20894388.8054
 113662976.48647  88568657.43345  21629321.3204                   21629328.3834
 11  7 24  3 13 30.0000000  0  9G12G05G25G04G29G17G09G02G10
 109179165.252 8  85074600.060 7  20776064.898
 107725758.631 8  83942298.488 8  20499524.281
 116387438.584 8  90691577.106 7  22147793.602
 123657034.17447  96356281.25643  23531121.7894                   23531129.2974
 126366320.312 6  98467340.376 6  24046714.063
 130412937.946 6 101620580.935 5  24816734.297
 135224885.13115                  25732440.852
 109828254.09948  85580556.29746  20899595.9064                   20899600.1764
 113729976.51247  88620865.25645  21642070.8914                   21642077.7464
 11  7 24  3 14  0.0000000  0  8G12G05G25G04G29G17G02G10
 109190918.217 8  85083758.218 7  20778301.258
 107689403.133 8  83913969.554 8  20492606.047
 116331983.545 8  90648365.404 7  22137240.766
 123739981.70147  96420915.75144  23546906.6804                   23546913.0314
 126283952.713 6  98403157.932 6  24031040.047
 130491018.260 6 101681422.833 5  24831592.133
 109855806.51148  85602025.72046  20904838.6884                   20904843.2704
 113797458.73647  88673448.82045  21654912.4224                   21654919.5594
 11  7 24  3 14 30.0000000  0  9G12G05G25G04G29G26G17G02G10
 109203255.158 8  85093371.427 7  20780648.938
 107653607.332 8  83886076.755 8  20485794.734
 116277026.282 8  90605541.581 7  22126782.891
 123822910.12347  96485535.31743  23562686.9924                   23562693.9534
 126201544.840 6  98338944.140 6  24015358.328
 134932816.39315                  25676866.055
 130569270.182 6 101742398.315 5  24846484.172
 109883524.21448  85623623.94746  20910113.2504                   20910117.6214
 113865420.78747  88726406.27545  21667845.5004                   21667852.1374
 11  7 24  3 15  0.0000000  0  9G12G05G25G04G29G26G17G02G10
 109216174.503 8  85103438.443 7  20783107.539
 107618371.552 8  83858620.336 8  20479088.992
 116222567.954 8  90563106.579 7  22116418.836
 123905817.63846  96550138.61843  23578463.8594                   23578470.4184
 126119096.871 6  98274699.084 6  23999668.359
 134846952.129 5                  25660525.133
 130647692.175 6 101803506.380 5  24861406.258
 109911405.65848  85645349.77246  20915418.4844                   20915423.2734
 113933859.53547  88779735.17645  21680868.9774                   21680875.8794
 11  7 24  3 15 30.0000000  0  9G12G05G25G04G29G26G17G02G10
 109229675.957 8  85113959.070 7  20785676.391
 107583696.418 8  83831600.787 8  20472490.883
 116168610.396 8  90521061.799 7  22106151.453
 123988703.36547  96614724.95243  23594235.7664                   23594243.6804
 126036609.405 6  98210423.257 6  23983970.930
 134760838.895 5                  25644139.063
 130726284.360 6 101864747.036 5  24876363.352
 109939449.89948  85667202.45646  20920755.8054                   20920760.0314
 114002772.27347  88833433.41045  21693982.3754                   21693989.5234
 11  7 24  3 16  0.0000000  0  9G12G05G25G04G29G26G17G02G10
 109243758.940 8  85124932.835 7  20788356.281
 107549582.770 8  83805018.754 8  20465999.125
 116115155.268 7  90479408.478 7  22095978.945
 124071566.63846  96679293.75343  23610004.9534                   23610011.0434
 125954083.465 6  98146117.479 6  23968267.461
 134674478.974 5                  25627704.648
 130805046.074 6 101926119.810 5  24891350.148
 109967655.57048  85689180.90846  20926122.7034                   20926127.3594
 114072156.07847  88887498.72945  21707185.9534                   21707192.5084
 11  7 24  3 16 30.0000000  0  9G12G05G25G04G29G26G17G02G10
 109258423.127 8  85136359.484 7  20791147.117
 107516032.089 8  83778875.389 8  20459615.289
 116062204.849 8  90438148.442 7  22085903.039
 124154406.59747  96743844.41244  23625768.0084                   23625775.2424
 125871520.092 6  98081782.481 6  23952555.961
 134587874.841 5                  25611224.352
 130883977.309 6 101987624.699 5  24906368.938
 109996022.45548  85711284.98546  20931520.9384                   20931525.0904
 114142008.94647  88941929.54745  21720478.4534                   21720485.4454
 11  7 24  3 17  0.0000000  0  8G12G05G25G04G29G17G02G10
 109273668.169 8  85148238.731 7  20794048.211
 107483044.732 8  83753170.964 8  20453337.414
 116009760.523 8  90397282.792 7  22075923.344
 124237222.52246  96808376.30443  23641527.3524                   23641535.9024
 125788919.867 6  98017418.793 7  23936837.820
 130963077.062 6 102049260.838 6  24921422.867
 110024548.99148  85733513.48346  20936949.0314                   20936953.7704
 114212327.97847  88996723.61345  21733859.3364                   21733866.2074
 11  7 24  3 17 30.0000000  0  8G12G05G25G04G29G17G02G10
 109289493.509 8  85160570.165 7  20797059.445
 107450621.946 8  83727906.478 8  20447167.508
 115957824.800 7  90356813.457 7  22066039.492
 124320014.11146  96872889.26444  23657281.0554                   23657290.4964
 125706284.544 6  97953027.766 6  23921112.688
 131042345.617 6 102111028.593 5  24936505.188
 110053235.28648  85755866.44646  20942407.8914                   20942412.4304
 114283110.91247  89051879.13745  21747328.1254                   21747335.8484
 11  7 24  3 18  0.0000000  0  8G12G05G25G04G29G17G02G10
 109305897.954 8  85173352.843 7  20800181.023
 107418763.930 8  83703082.063 8  20441105.008
 115906398.766 8  90316741.291 7  22056253.625
 124402779.94547  96937382.12043  23673032.1564                   23673039.7704
 125623614.140 6  97888609.404 6  23905380.563
 131121782.475 5 102172927.392 6  24951622.977
 110082079.25948  85778342.27946  20947896.9144                   20947901.7544
 114354354.63347  89107393.73845  21760886.3594                   21760893.1174
 11  7 24  3 18 30.0000000  0  9G12G05G25G04G29G26G17G02G10
 109322881.748 8  85186586.984 7  20803413.070
 107387472.388 8  83678699.067 8  20435150.477
 115855484.834 8  90277068.115 7  22046565.625
 124485519.84647  97001854.79943  23688777.4144                   23688784.1684
 125540909.965 6  97824164.699 6  23889642.398
                                  25544847.414
 131201387.156 6 102234956.992 6  24966771.086
 110111080.99548  85800941.04146  20953415.5784                   20953420.2154
 114426057.31947  89163265.94445  21774530.8204                   21774537.5744
 11  7 24  3 19  0.0000000  0  9G12G05G25G04G29G26G17G02G10
 109340443.572 8  85200271.504 7  20806754.727
 107356747.293 8  83654757.434 8  20429304.063
 115805084.366 8  90237795.056 7  22036974.289
 124568232.68147  97066306.41243  23704516.1024                   23704523.3554
 125458172.750 5  97759694.272 6  23873898.086
 134151268.37815                  25528140.555
 131281159.237 5 102297117.138 6  24981950.703
 110140238.84548  85823661.46846  20958964.1334                   20958968.4384
 114498215.80247  89219493.36145  21788262.6094                   21788269.1454
 11  7 24  3 19 30.0000000  0  9G12G05G25G04G29G26G17G02G10
 109358583.336 8  85214406.390 7  20810206.906
 107326589.646 8  83631257.981 8  20423564.992
 115755199.102 7  90198923.472 7  22027481.195
 124650917.87546  97130736.44844  23720250.9224                   23720258.3244
 125375403.537 6  97695198.862 6  23858148.625
 134063247.13314                  25511390.375
 131361098.214 5 102359407.289 5  24997161.992
 110169552.33548  85846503.15646  20964542.4534                   20964546.4654
 114570827.25647  89276073.70845  21802079.9694                   21802086.2154
 11  7 24  3 20  0.0000000  0  9G12G05G25G04G29G26G17G02G10
 109377300.032 8  85228990.842 7  20813768.281
 107296999.970 8  83608201.134 8  20417933.688
 115705830.792 8  90160454.731 7  22018086.945
 124733574.72047  97195144.42444  23735980.7584                   23735987.8834
 125292603.481 6  97630679.374 5  23842392.039
 133974998.04415                  25494596.898
 131441203.843 5 102421827.203 5  25012406.258
 110199020.55648  85869465.42146  20970149.1954                   20970154.4104
 114643888.98147  89333004.93645  21815982.7424                   21815989.7074
 11  7 24  3 20 30.0000000  0  9G12G05G25G04G29G26G17G02G10
 109396593.712 8  85244024.875 7  20817439.797
 107267978.718 8  83585587.178 8  20412411.438
 115656981.265 8  90122390.193 7  22008791.070
 124816202.49446  97259529.71443  23751703.4844                   23751711.2734
 125209773.344 6  97566136.466 5  23826628.531
 133886523.55015                  25477760.344
 131521476.00115 102484376.94316  25027681.258
 110228642.70248  85892547.61846  20975786.8364                   20975791.3134
 114717398.78747  89390285.31045  21829971.4774                   21829978.4024
 11  7 24  3 21  0.0000000  0  9G12G05G25G04G29G26G17G02G10
 109416462.791 8  85259507.268 7  20821220.648
 107239527.284 8  83563417.240 8  20406997.859
 115608652.355 8  90084731.330 7  21999594.328
 124898800.70147  97323892.01944  23767421.3364                   23767428.8134
 125126914.398 7  97501571.076 5  23810861.656
 133797826.12815                  25460882.750
 131601914.301 5 102547056.144 6  25042988.563
 110258418.04448  85915749.18746  20981452.8444                   20981457.5274
 114791354.24047  89447912.94145  21844044.9614                   21844051.6294
 11  7 24  3 21 30.0000000  0  9G12G05G25G04G29G26G17G02G10
 109436906.621 8  85275437.519 7  20825111.250
 107211646.207 7  83541691.733 8  20401691.750
 115560845.652 8  90047479.399 7  21990497.008
 124981368.61146  97388230.64743  23783134.2114                   23783141.0394
 125044027.633 7  97436984.068 5  23795088.609
 133708908.27316                  25443961.883
 131682517.37116 102609863.83015  25058327.414
 110288345.76647  85939069.49946  20987147.9924                   20987152.2854
 114865752.51847  89505885.64145  21858201.7034                   21858209.0274
 11  7 24  3 22  0.0000000  0  9G12G05G25G04G29G26G17G02G10
 109457924.769 8  85291815.287 7  20829110.477
 107184335.678 7  83520410.823 8  20396494.984
 115513562.455 8  90010635.369 7  21981498.891
 125063905.06446  97452544.82043  23798840.0234                   23798846.8244
 124961113.794 7  97372375.954 6  23779311.359
 133619772.038 5                  25427001.023
 131763285.64315 102672799.98616  25073696.008
 110318424.46247  85962507.45446  20992871.4614                   20992876.0904
 114940590.51648  89564200.97445  21872443.4614                   21872449.7774
 11  7 24  3 22 30.0000000  0  9G12G05G25G04G29G26G17G02G10
 109479516.224 8  85308639.800 7  20833219.523
 107157596.193 7  83499574.877 8  20391406.508
 115466804.682 8  89974200.743 7  21972601.922
 125146409.83647  97516834.23943  23814539.0554                   23814547.3484
 124878173.859 7  97307747.490 6  23763527.719
 133530420.22045 104049719.96252  25409996.8134                   25410005.3364
 131844218.02516 102735864.16315  25089097.719
 110348653.59647  85986062.61546  20998623.6644                   20998628.5824
 115015865.85047  89622857.07745  21886767.9534                   21886774.1174
 11  7 24  3 23  0.0000000  0  9G12G05G25G04G29G26G17G02G10
 109501680.311 8  85325910.493 7  20837436.906
 107131428.579 8  83479184.546 8  20386426.711
 115420574.032 8  89938176.883 7  21963804.063
 125228882.45247  97581098.59643  23830233.5634                   23830241.2814
 124795209.004 6  97243099.634 6  23747740.023
 133440855.30145 103979929.23542  25392952.9384                   25392963.0784
 131925314.319 6 102799056.071 5  25104529.492
 110379032.51648  86009734.50746  21004404.5704                   21004409.3754
 115091575.83347  89681851.86545  21901174.5394                   21901180.9184
 11  7 24  3 23 30.0000000  0  9G12G05G25G04G29G26G17G02G10
 109524416.397 8  85343626.931 7  20841763.977
 107105833.695 8  83459240.497 8  20381556.391
 115374872.134 8  89902565.030 7  21955107.414
 125311322.15747  97645337.32843  23845922.3524                   23845929.1094
 124712220.304 6  97178433.169 5  23731947.711
 133351079.82655 103909974.39052  25375869.5784                   25375879.0744
 132006574.193 5 102862375.428 4  25119992.719
 110409560.50348  86033522.55146  21010214.2274                   21010218.8164
 115167717.94947  89741183.37745  21915664.0944                   21915670.5204
 11  7 24  3 24  0.0000000  0  9G12G05G25G04G29G26G17G02G10
 109547723.350 8  85361788.181 7  20846199.023
 107080811.735 8  83439742.891 8  20376794.648
 115329700.680 7  89867366.469 7  21946511.367
 125393728.15446  97709549.75943  23861603.2664                   23861609.6954
 124629208.838 7  97113749.018 5  23716151.531
 133261096.24555 103839857.50452  25358743.9384                   25358755.6914
 132087997.186 5 102925821.767 4  25135488.000
 110440236.70248  86057426.07946  21016051.6804                   21016055.6914
 115244289.01547  89800849.13845  21930235.2504                   21930241.1914
 11  7 24  3 24 30.0000000  0  9G12G05G25G04G29G26G17G02G10
 109571600.386 8  85380393.677 7  20850742.859
 107056363.263 8  83420692.153 8  20372142.078
 115285061.319 8  89832582.574 7  21938016.969
 125476100.05746  97773735.66943  23877277.7504                   23877284.9224
 124546175.657 7  97049047.881 6  23700351.070
 133170907.28455 103769580.46452  25341584.2194                   25341593.0704
 132169583.013 5 102989395.152 5  25151013.422
 110471060.42648  86081444.56546  21021917.3914                   21021922.0664
 115321286.81647  89860847.42945  21944887.0704                   21944893.4494
 11  7 24  3 25  0.0000000  0  9G12G05G25G04G29G26G17G02G10
 109596046.269 8  85399442.382 7  20855394.656
 107032488.228 8  83402088.254 8  20367598.703
 115240955.056 8  89798214.060 7  21929624.328
 125558437.13446  97837894.44343  23892946.8054                   23892953.5204
 124463121.467 7  96984330.391 6  23684545.891
 133080514.95246 103699144.98342  25324382.7584                   25324391.2424
 132251330.790 5 103053094.735 4  25166569.164
 110502030.23448  86105576.88546  21027810.7584                   21027815.1174
 115398707.62347  89921175.35845  21959619.4224                   21959626.7344
 11  7 24  3 25 30.0000000  0  9G12G05G25G04G29G26G17G02G10
 109621060.405 8  85418933.923 7  20860154.484
 107009187.593 8  83383931.932 8  20363164.836
 115197383.693 8  89764262.375 7  21921332.703
 125640738.75446  97902025.62943  23908607.4694                   23908613.7974
 124380047.694 7  96919597.666 6  23668736.992
 132989922.02446 103628553.18143  25307142.1484                   25307151.2814
 132333240.13615 103116920.15915  25182156.648
 110533145.67748  86129822.69146  21033731.5704                   21033736.0984
 115476549.83247  89981831.61645  21974432.7814                   21974439.8674
 11  7 24  3 26  0.0000000  0  9G12G05G25G04G29G26G17G02G10
 109646641.704 8  85438867.412 7  20865021.734
 106986461.775 8  83366223.532 8  20358840.492
 115154348.782 8  89730728.684 7  21913143.344
 125723004.26146  97966128.66943  23924261.7664                   23924269.0554
 124296955.463 7  96854850.557 6  23652925.086
 132899130.97745 103557807.05343  25289865.0164                   25289875.7704
 132415310.767 5 103180871.192 5  25197773.023
 110564406.10348  86154181.47046  21039680.2894                   21039684.7664
 115554810.36947  90042813.85745  21989324.8914                   21989331.9414
 11  7 24  3 26 30.0000000  0  9G12G05G25G04G29G26G17G02G10
 109672788.887 8  85459241.829 7  20869997.813
 106964310.671 8  83348962.939 8  20354625.219
 115111851.650 7  89697614.055 7  21905055.969
 125805233.20246  98030203.12043  23939909.7424                   23939916.7894
 124213845.671 6  96790089.789 7  23637109.180
 132808144.34146 103486908.40343  25272550.8594                   25272562.0164
 132497541.520 4 103244947.108 4  25213421.109
 110595810.33948  86178652.29646  21045656.6484                   21045661.0474
 115633486.19747  90104119.70144  22004296.6414                   22004302.9884
 11  7 24  3 27  0.0000000  0  9G12G05G25G04G29G26G17G02G10
 109699501.718 8  85480057.002 7  20875081.641
 106942735.495 8  83332151.140 8  20350519.773
 115069894.193 8  89664919.927 7  21897071.875
 125887425.20146  98094248.86943  23955550.0394                   23955557.8554
 124130719.466 6  96725316.248 6  23621291.414
 132716964.99246 103415859.65542  25255201.3524                   25255210.1724
 132579932.864 5 103309148.082 4  25229099.945
 110627358.21448  86203235.06746  21051659.5004                   21051664.3674
 115712574.94147  90165747.30445  22019346.7734                   22019353.1334
 11  7 24  3 27 30.0000000  0  9G12G05G25G04G29G26G17G02G10
 109726778.769 8  85501311.867 7  20880272.398
 106921735.807 8  83315787.772 8  20346523.680
 115028477.287 8  89632647.004 7  21889190.664
 125969579.28446  98158264.99243  23971183.9924                   23971191.2544
 124047577.879 7  96660530.681 6  23605469.438
 132625595.16446 103344662.42743  25237813.4694                   25237822.2704
 132662483.782 5 103373473.367 4  25244808.977
 110659048.45148  86227928.75946  21057690.5314                   21057695.0434
 115792073.15047  90227693.94845  22034475.0234                   22034481.5084
 11  7 24  3 28  0.0000000  0  8G12G05G25G04G29G26G02G10
 109754619.019 8  85523005.555 7  20885569.789
 106901312.788 8  83299873.756 8  20342637.047
 114987603.013 8  89600796.974 7  21881412.211
 126051695.45246  98222251.60143  23986809.8674                   23986816.7194
 123964422.582 7  96595734.452 6  23589646.594
 132534037.87545 103273319.10142  25220389.4844                   25220400.0084
 110690881.13948  86252733.43546  21063747.5474                   21063752.0354
 115871978.76847  90289958.06645  22049680.9144                   22049687.0394
 11  7 24  3 28 30.0000000  0  9G12G05G25G04G29G26G17G02G10
 109783020.933 8  85545136.917 7  20890974.453
 106881465.688 8  83284408.502 8  20338860.164
 114947272.270 8  89569370.459 7  21873737.781
 126133772.60346  98286207.78643  24002429.2424                   24002435.9224
 123881254.286 7  96530928.047 6  23573819.680
 132442295.46945 103201831.47742  25202931.6334                   25202941.9574
 132828067.33914 103502341.57215  25276315.578
 110722854.72647  86277647.93546  21069832.4384                   21069836.6644
 115952289.05847  90352537.52745  22064963.2584                   22064969.1054
 11  7 24  3 29  0.0000000  0  8G12G05G25G04G29G26G02G10
 109811984.272 7  85567705.747 7  20896485.609
 106862195.531 8  83269392.815 8  20335193.211
 114907486.998 8  89538368.959 7  21866167.055
 126215810.88747  98350133.74543  24018040.5394                   24018048.2704
 123798074.458 6  96466112.663 6  23557991.094
 132350371.10546 103130202.21542  25185439.0634                   25185449.5164
 110754969.12948  86302672.15446  21075943.4924                   21075948.2974
 116033001.27847  90415430.18145  22080322.0474                   22080328.6804
 11  7 24  3 29 30.0000000  0  8G12G05G25G04G29G26G02G10
 109841507.340 7  85590710.735 7  20902103.977
 106843502.434 8  83254826.787 8  20331636.031
 114868247.912 8  89507793.061 7  21858700.195
 126297809.11047  98414028.42843  24033645.3054                   24033651.3914
 123714883.763 7  96401288.851 6  23542160.242
 132258266.75945 103058432.55342  25167912.3754                   25167922.4414
 110787222.90947  86327804.96646  21082081.0704                   21082085.2974
 116114111.92847  90478633.28645  22095756.7894                   22095762.9804
 11  7 24  3 30  0.0000000  0  8G12G05G25G04G29G26G02G10
 109871588.810 7  85614150.856 7  20907828.383
 106825386.418 8  83240710.429 8  20328188.750
 114829556.464 8  89477643.894 7  21851337.203
 126379766.92947  98477891.67943  24049240.1414                   24049247.2384
 123631683.499 7  96336457.567 6  23526327.258
 132165985.04446 102986524.85742  25150351.7034                   25150361.1174
 110819615.27947  86353045.76446  21088245.3594                   21088249.7774
 116195618.46447  90542144.88945  22111266.7424                   22111274.1024
 11  7 24  3 30 30.0000000  0  8G12G05G25G04G29G26G02G10
 109902227.701 8  85638025.310 7  20913658.648
 106807847.047 8  83227043.409 8  20324851.070
 114791413.830 7  89447922.397 7  21844079.313
 126461683.64547  98541722.89043  24064827.8284                   24064835.8444
 123548474.576 7  96271619.518 6  23510494.125
 132073528.74246 102914481.02942  25132757.6644                   25132767.2624
 110852145.65948  86378394.12846  21094435.4694                   21094439.8594
 116277517.92747  90605962.65845  22126851.4144                   22126858.8554
 11  7 24  3 31  0.0000000  0  8G12G05G25G04G29G26G02G10
 109933422.365 7  85662332.833 7  20919594.773
 106790884.654 8  83213825.985 8  20321622.977
 114753821.183 8  89418629.457 7  21836925.070
 126543558.57646  98605521.52143  24080409.3524                   24080415.8634
 123465258.375 7  96206775.772 6  23494658.352
 131980900.19446 102842303.06242  25115130.3914                   25115141.8484
 110884813.00447  86403849.21046  21100651.5234                   21100656.6914
 116359807.38047  90670084.31245  22142511.1644                   22142517.8404
 11  7 24  3 31 30.0000000  0  8G12G05G25G04G29G26G02G10
 109965172.216 7  85687072.986 7  20925636.781
 106774500.590 8  83201059.191 8  20318505.625
 114716780.436 8  89389766.568 7  21829876.477
 126625391.90146  98669287.75743  24095981.2664                   24095988.0274
 123382036.419 7  96141927.556 6  23478820.414
 131888103.00546 102769993.65242  25097473.4694                   25097482.6054
 110917617.21148  86429410.93746  21106894.2664                   21106898.5354
 116442485.11747  90734508.52045  22158244.3754                   22158251.2034
 11  7 24  3 32  0.0000000  0  8G12G05G25G04G29G26G02G10
 109997475.663 8  85712244.512 7  20931783.867
 106758693.866 8  83188742.278 8  20315497.352
 114680292.264 7  89361334.226 7  21822932.891
 126707182.49747  98733020.66443  24111545.1724                   24111552.8634
 123298809.391 7  96077075.387 6  23462983.313
 131795139.13146 102697554.42442  25079783.5234                   25079791.5204
 110950556.90848  86455078.23846  21113162.5314                   21113167.4494
 116525547.13747  90799232.16245  22174050.1334                   22174056.7304
 11  7 24  3 32 30.0000000  0  8G12G05G25G04G29G26G02G10
 110030331.332 8  85737846.325 7  20938036.125
 106743464.585 8  83176875.315 8  20312599.594
 114644357.955 7  89333333.496 7  21816095.000
 126788930.23147  98796720.16343  24127102.0394                   24127108.9304
 123215578.773 7  96012220.381 5  23447145.531
 131702011.17045 102624987.37642  25062060.5394                   25062069.6174
 110983631.94548  86480851.01346  21119456.0944                   21119461.1254
 116608990.85147  90864253.24745  22189929.1564                   22189935.9104
 11  7 24  3 33  0.0000000  0  8G12G05G25G04G29G26G02G10
 110063738.118 8  85763877.560 7  20944393.273
 106728812.962 8  83165458.488 8  20309811.383
 114608978.988 7  89305765.517 7  21809362.461
 126870634.52246  98860385.82543  24142649.2664                   24142656.7624
 123132345.739 6  95947363.589 6  23431306.586
 131608722.40445 102552294.90542  25044308.2504                   25044317.2114
 111016841.84448  86506728.87146  21125776.2584                   21125780.2304
 116692813.64947  90929569.71244  22205880.2814                   22205886.4024
 11  7 24  3 33 30.0000000  0  8G12G05G25G04G29G26G02G10
 110097694.826 8  85790337.360 7  20950854.766
 106714739.499 8  83154492.174 8  20307133.313
 114574156.544 8  89278631.146 7  21802735.773
 126952295.08746  98924017.43743  24158188.9844                   24158196.3984
 123049111.945 6  95882506.162 6  23415467.633
 131515275.18246 102479479.04642  25026525.8984                   25026534.2704
 111050185.53648  86532710.97646  21132121.0314                   21132126.0784
 116777012.36947  90995179.11044  22221902.4694                   22221909.2274
 11  7 24  3 34  0.0000000  0  8G12G05G25G04G29G26G02G10
 110132200.103 7  85817224.593 7  20957421.367
 106701243.856 8  83143976.122 8  20304564.867
 114539891.627 8  89251931.233 7  21796215.320
 127033911.30246  98987614.46243  24173718.7424                   24173726.5204
 122965878.044 7  95817648.714 6  23399628.414
 131421672.59746 102406542.06642  25008713.4694                   25008722.7154
 111083662.41347  86558796.87046  21138491.7424                   21138496.1914
 116861584.44047  91061079.43244  22237996.2584                   22238002.4494
 11  7 24  3 34 30.0000000  0  8G12G05G25G04G29G26G02G10
 110167252.217 8  85844537.902 7  20964091.547
 106688325.778 8  83133910.093 8  20302106.930
 114506185.363 8  89225666.611 7  21789801.859
 127115482.90346  99051176.71142  24189242.2194                   24189249.5664
 122882645.441 7  95752792.301 6  23383789.445
 131327917.09346 102333486.02842  24990872.0394                   24990882.3834
 111117271.67348  86584985.92446  21144886.7814                   21144891.5204
 116946527.06647  91127268.49744  22254160.1884                   22254166.7304
 11  7 24  3 35  0.0000000  0  8G12G05G25G04G29G26G02G10
 110202849.924 7  85872276.368 7  20970865.484
 106675985.232 8  83124294.107 8  20299758.516
 114473038.826 8  89199838.145 7  21783494.156
 127197009.26046  99114703.73143  24204756.5394                   24204763.1764
 122799415.460 6  95687937.833 6  23367951.516
 131234011.38346 102260312.82942  24973002.9924                   24973011.3204
 111151012.54147  86611277.51946  21151308.1414                   21151312.1134
 117031837.41347  91193744.08545  22270394.4064                   22270400.6804
 11  7 24  3 35 30.0000000  0  8G12G05G25G04G29G26G02G10
 110238991.456 7  85900438.609 7  20977742.820
 106664222.450 8  83115128.316 8  20297520.484
 114440453.191 7  89174446.752 7  21777292.617
 127278490.06346  99178195.34143  24220261.3204                   24220268.8914
 122716189.416 6  95623086.400 6  23352113.906
 131139958.47346 102187024.98343  24955104.7344                   24955114.2774
 111184884.49647  86637671.26046  21157753.3364                   21157758.2734
 117117512.30347  91260503.74944  22286697.6024                   22286704.7664
 11  7 24  3 36  0.0000000  0  8G12G05G25G04G29G26G02G10
 110275675.861 8  85929023.844 7  20984723.922
 106653037.142 8  83106412.505 8  20295391.648
 114408429.578 8  89149493.316 7  21771199.156
 127359924.88246  99241651.04443  24235758.9144                   24235765.6724
 122632968.580 6  95558239.065 6  23336278.078
 131045760.98846 102113624.53143  24937179.9844                   24937188.3284
 111218887.06948  86664166.79546  21164223.8284                   21164228.7974
 117203549.21847  91327545.49445  22303070.2344                   22303076.7154
 11  7 24  3 36 30.0000000  0  8G12G05G25G04G29G26G02G10
 110312901.861 8  85958031.105 7  20991807.555
 106642428.796 8  83098146.286 8  20293372.867
 114376968.838 8  89124978.444 7  21765212.203
 127441313.01846  99305070.38943  24251245.6804                   24251253.3094
 122549754.046 7  95493396.608 6  23320442.719
 130951421.87646 102040113.68043  24919227.6094                   24919237.0394
 111253019.48648  86690763.49746  21170718.8284                   21170723.0554
 117289945.11047  91394866.97844  22319510.6414                   22319517.3714
 11  7 24  3 37  0.0000000  0  8G12G05G25G04G29G26G02G10
 110350667.684 8  85987459.019 7  20998994.219
 106632398.594 8  83090330.555 8  20291464.313
 114346072.403 8  89100903.302 7  21759333.344
 127522654.46446  99368453.37943  24266724.2584                   24266731.2034
 122466547.591 7  95428560.463 6  23304608.688
 130856944.05246 101966494.76042  24901248.0864                   24901257.9024
 111287281.33048  86717461.04346  21177238.7114                   21177243.4104
 117376697.63747  91462466.35045  22336018.7894                   22336026.2344
 11  7 24  3 37 30.0000000  0  8G12G05G25G04G29G26G02G10
 110388971.673 8  86017306.279 7  21006282.961
 106622945.279 8  83082964.358 8  20289665.344
 114315740.765 8  89077268.285 7  21753561.211
 127603948.53747  99431799.36843  24282194.6884                   24282201.3794
 122383350.280 6  95363731.418 6  23288776.844
 130762330.16246 101892769.74842  24883244.1334                   24883252.6214
 111321671.37848  86744258.49246  21183782.7814                   21183787.4734
 117463803.74647  91530341.22544  22352594.7034                   22352601.2194
 11  7 24  3 38  0.0000000  0  8G12G05G25G04G29G26G02G10
 110427812.149 8  86047571.589 7  21013674.188
 106614068.764 8  83076047.594 8  20287976.188
 114285975.060 7  89054074.215 7  21747896.945
 127685195.04446  99495108.28143  24297655.0784                   24297662.1094
 122300163.376 6  95298910.450 6  23272946.820
 130667582.93346 101818940.89143  24865214.3524                   24865223.0704
 111356189.10647  86771155.42946  21190351.3284                   21190356.5084
 117551259.93447  91598488.88845  22369237.4304                   22369244.4344
 11  7 24  3 38 30.0000000  0  8G12G05G25G04G29G26G02G10
 110467187.991 8  86078254.048 7  21021167.406
 106605768.843 8  83069580.129 8  20286396.945
 114256776.342 7  89031321.982 7  21742340.492
 127766393.44346  99558379.82543  24313106.0084                   24313113.4884
 122216988.234 7  95234098.690 6  23257119.969
 130572705.34146 101745010.45742  24847159.0164                   24847168.0554
 111390834.14948  86798151.55946  21196944.1484                   21196949.1334
 117639063.82947  91666907.46244  22385946.0784                   22385952.5204
 11  7 24  3 39  0.0000000  0  8G12G05G25G04G29G26G02G10
 110507097.447 8  86109352.307 7  21028761.742
 106598045.600 8  83063562.024 8  20284927.000
 114228145.467 8  89009012.189 7  21736892.281
 127847543.63147  99621613.78843  24328548.8054                   24328556.1374
 122133826.271 7  95169297.203 6  23241293.813
 130477700.34546 101670980.74642  24829080.7584                   24829089.0124
 111425605.90748  86825246.45446  21203560.9064                   21203566.0664
 117727212.21747  91735594.50744  22402719.1804                   22402726.1454
 11  7 24  3 39 30.0000000  0  8G12G05G25G04G29G26G02G10
 110547539.115 8  86140865.298 7  21036458.016
 106590898.980 8  83057993.256 8  20283566.891
 114200083.552 8  88987145.770 7  21731552.664
 127928645.06046  99684809.69443  24343982.3674                   24343988.5274
 122050679.077 6  95104507.224 6  23225471.195
 130382570.70245 101596853.84942  24810976.7504                   24810986.7384
 111460503.94047  86852439.72146  21210201.8524                   21210206.2544
 117815702.95947  91804548.35944  22419559.6094                   22419565.6134
 11  7 24  3 40  0.0000000  0  8G12G05G25G04G29G26G02G10
 110588511.174 8  86172791.570 7  21044254.656
 106584328.053 8  83052873.065 8  20282316.750
 114172591.298 8  88965723.236 7  21726320.844
 128009697.46946  99747967.40543  24359405.7344                   24359412.6604
 121967547.544 6  95039729.494 6  23209651.508
 130287319.38346 101522632.16342  24792852.1094                   24792860.6844
 111495527.47048  86879730.79046  21216866.1254                   21216870.8794
 117904532.52847  91873766.24644  22436462.5164                   22436469.2424
 11  7 24  3 40 30.0000000  0  8G12G05G25G04G29G26G02G10
 110630011.945 8  86205129.828 7  21052151.695
 106578332.374 8  83048201.113 8  20281175.781
 114145669.371 8  88944745.115 7  21721197.813
 128090700.31646  99811086.47643  24374820.4844                   24374827.2074
 121884433.092 7  94974965.006 6  23193836.258
 130191949.09645 101448317.78842  24774704.3204                   24774712.0004
 111530675.56348  86907118.90846  21223555.2114                   21223559.3014
 117993698.12147  91943245.90644  22453430.3984                   22453437.2154
 11  7 24  3 41  0.0000000  0  8G12G05G25G04G29G26G02G10
 110672039.927 8  86237878.909 7  21060149.180
 106572912.371 8  83043977.751 8  20280144.367
 114119318.953 8  88924212.333 7  21716183.289
 128171653.59746  99874166.95543  24390224.0554                   24390231.4494
 121801337.483 6  94910215.284 6  23178022.758
 130096462.95146 101373913.12943  24756533.0864                   24756541.7304
 111565948.07448  86934603.97246  21230267.4224                   21230271.7424
 118083196.95747  92012985.27244  22470460.7974                   22470467.8054
 11  7 24  3 41 30.0000000  0  8G12G05G25G04G29G26G02G10
 110714593.220 8  86271037.306 7  21068247.352
 106568067.155 8  83040202.271 8  20279222.320
 114093540.634 8  88904125.320 7  21711277.984
 128252556.81946  99937208.37243  24405620.1644                   24405627.0354
 121718261.913 6  94845481.131 6  23162214.375
 130000863.77446 101299420.33342  24738340.6804                   24738349.6454
 111601344.31948  86962185.46546  21237002.6484                   21237007.9574
 118173026.05747  92082981.94444  22487554.9144                   22487561.8674
 11  7 24  3 42  0.0000000  0  8G12G05G25G04G29G26G02G10
 110757670.157 8  86304603.750 7  21076443.914
 106563796.305 8  83036874.362 8  20278409.281
 114068335.204 8  88884484.745 7  21706481.320
 128333409.44446 100000210.42143  24421005.0634                   24421013.6334
 121635207.752 6  94780763.588 6  23146409.336
 129905154.62446 101224841.93842  24720127.8914                   24720135.9104
 111636863.65648  86989862.86346  21243761.8204                   21243766.4414
 118263182.55547  92153233.74644  22504711.5554                   22504718.1844
 11  7 24  3 42 30.0000000  0  8G12G05G25G04G29G26G02G10
 110801269.017 8  86338576.870 7  21084741.102
 106560099.636 8  83033993.849 8  20277706.023
 114043703.420 8  88865291.148 7  21701794.242
 128414211.41046 100063172.92043  24436382.4774                   24436390.1724
 121552176.420 7  94716063.857 6  23130609.336
 129809338.37246 101150180.01543  24701894.7664                   24701903.1294
 111672505.39648  87017635.63246  21250544.8444                   21250549.5984
 118353663.62247  92223738.47744  22521929.2664                   22521936.0124
 11  7 24  3 43  0.0000000  0  8G12G05G25G04G29G26G02G10
 110845388.144 8  86372955.398 7  21093136.852
 106556976.097 8  83031559.931 8  20277112.039
 114019645.826 8  88846544.996 7  21697216.125
 128494961.92746 100126095.40543  24451748.1644                   24451756.1024
 121469169.382 7  94651383.079 6  23114813.539
 129713417.77046 101075436.75343  24683642.2034                   24683649.6214
 111708268.97548  87045503.36646  21257350.4224                   21257354.8444
 118444466.06847  92294493.63444  22539208.8984                   22539215.2464
 11  7 24  3 43 30.0000000  0  8G12G05G25G04G29G26G02G10
 110890025.567 8  86407737.810 7  21101630.172
 106554426.124 8  83029572.952 8  20276626.711
 113996163.411 8  88828247.027 7  21692747.484
 128575661.36846 100188978.07343  24467104.9064                   24467112.1294
 121386188.127 7  94586722.380 6  23099023.133
 129617396.00146 101000614.66843  24665369.5084                   24665377.4384
 111744154.11348  87073465.81146  21264179.0314                   21264182.9654
 118535587.56447  92365497.39344  22556548.2194                   22556555.1914
 11  7 24  3 44  0.0000000  0  8G12G05G25G04G29G26G02G10
 110935179.528 8  86442922.729 7  21110223.289
 106552448.730 8  83028032.133 8  20276250.125
 113973256.708 8  88810397.642 7  21688388.266
 128656308.95946 100251820.32443  24482450.7424                   24482458.8054
 121303233.817 7  94522082.665 6  23083237.414
 129521275.93246 100925715.98043  24647078.4844                   24647086.7544
 111780160.04748  87101522.38746  21271030.5084                   21271035.4964
 118627024.89447  92436747.25044  22573948.0084                   22573955.2114
 11  7 24  3 44 30.0000000  0  8G12G05G25G04G29G26G02G10
 110980848.101 8  86478508.619 7  21118914.023
 106551043.542 8  83026937.201 8  20275983.094
 113950926.374 8  88792997.387 7  21684139.289
 128736904.57246 100314622.03843  24497788.5004                   24497795.4534
 121220308.145 7  94457465.292 6  23067456.734
 129425060.69446 100850743.15643  24628769.0864                   24628778.3404
 111816286.15848  87129672.59046  21277904.6174                   21277909.7384
 118718775.08347  92508240.89644  22591408.2974                   22591414.8094
 11  7 24  3 45  0.0000000  0  8G12G05G25G04G29G26G02G10
 111027029.727 8  86514494.298 7  21127701.695
 106550210.090 8  83026287.780 8  20275824.063
 113929173.113 8  88776046.830 7  21679999.516
 128817448.02746 100377383.14043  24513115.1954                   24513122.5944
 121137412.622 7  94392871.440 6  23051682.641
 129328753.22346 100775698.43043  24610442.6484                   24610450.9104
 111852532.18547  87157916.24346  21284802.9534                   21284807.2624
 118810835.54447  92579976.31144  22608927.3524                   22608933.3634
 11  7 24  3 45 30.0000000  0  8G12G05G25G04G29G26G02G10
 111073722.408 8  86550878.207 7  21136586.758
 106549947.745 8  83026083.379 8  20275774.406
 113907997.521 8  88759546.341 7  21675970.219
 128897938.91346 100440103.30843  24528432.6334                   24528440.0554
 121054548.642 7  94328302.118 6  23035914.078
 129232356.53446 100700584.19743  24592098.8364                   24592106.6844
 111888897.40648  87186252.78046  21291722.6094                   21291726.7344
 118903203.10747  92651951.01944  22626503.2974                   22626510.5044
 11  7 24  3 46  0.0000000  0  8G12G05G25G04G29G26G02G10
 111120924.402 8  86587658.975 7  21145569.203
 106550255.665 8  83026323.320 8  20275832.672
 113887400.047 8  88743496.385 7  21672050.391
 128978376.99246 100502782.31142  24543738.8984                   24543746.8914
 120971717.729 7  94263758.572 6  23020151.508
 129135873.42846 100625402.64543  24573738.6884                   24573746.8954
 111925381.40848  87214681.88046  21298665.5554                   21298669.9734
 118995874.63947  92724162.60444  22644138.4144                   22644145.2894
 11  7 24  3 46 30.0000000  0  8G12G05G25G04G29G26G02G10
 111168633.823 8  86624835.132 7  21154647.828
 106551133.605 8  83027007.445 8  20276000.195
 113867381.454 8  88727897.513 7  21668240.953
 129058762.08146 100565420.10042  24559036.3444                   24559043.1994
 120888921.326 7  94199241.916 6  23004396.102
 129039307.34546 100550156.43543  24555362.8674                   24555370.9064
 111961983.86648  87243203.28046  21305630.1414                   21305635.1254
 119088847.86447  92796609.25844  22661830.6094                   22661837.8674
 11  7 24  3 47  0.0000000  0  8G12G05G25G04G29G26G02G10
 111216848.635 8  86662405.116 7  21163823.000
 106552580.796 8  83028135.144 8  20276275.273
 113847942.168 8  88712750.036 7  21664541.961
 129139093.84546 100628016.20443  24574322.4224                   24574330.2424
 120806160.931 7  94134753.324 6  22988647.797
 128942661.17446 100474847.79243  24536971.1884                   24536979.6094
 111998703.93548  87271816.31846  21312618.3054                   21312622.9884
 119182119.52846  92869288.42744  22679579.9304                   22679585.9774
 11  7 24  3 47 30.0000000  0  8G12G05G25G04G29G26G02G10
 111265566.687 8  86700367.204 7  21173093.547
 106554596.301 8  83029705.679 8  20276658.734
 113829082.515 8  88698054.198 7  21660952.523
 129219371.96646 100690570.53443  24589599.4614                   24589606.7274
 120723437.875 7  94070293.842 7  22972905.414
 128845937.80146 100399478.99543  24518565.1484                   24518574.8524
 112035541.03048  87300520.54046  21319628.4144                   21319632.2074
 119275686.63847  92942197.85644  22697384.8204                   22697391.1604
 11  7 24  3 48  0.0000000  0  8G12G05G25G04G29G26G02G10
 111314786.332 8  86738720.179 7  21182459.773
 106557179.783 8  83031718.807 8  20277150.359
 113810803.185 8  88683810.588 7  21657474.234
 129299596.26746 100753082.97943  24604865.7274                   24604872.7234
 120640753.981 7  94005864.858 7  22957171.188
 128749140.15846 100324052.37743  24500145.2814                   24500154.1604
 112072494.59748  87329315.54746  21326660.0234                   21326663.9494
 119369546.83447  93015335.65444  22715244.9064                   22715252.3404
 11  7 24  3 48 30.0000000  0  8G12G05G25G04G29G26G02G10
 111364505.744 8  86777462.581 7  21191921.203
 106560330.311 8  83034173.778 8  20277750.000
 113793104.491 8  88670019.440 7  21654106.094
 129379766.44446 100815553.23943  24620120.9614                   24620128.8984
 120558110.619 7  93941467.472 6  22941444.102
 128652271.83346 100248570.59343  24481710.6094                   24481719.9654
 112109564.77048  87358201.39946  21333714.3754                   21333718.5824
 119463696.74447  93088699.24244  22733161.7504                   22733168.2934
 11  7 24  3 49  0.0000000  0  8G12G05G25G04G29G26G02G10
 111414722.447 8  86816592.468 7  21201476.969
 106564047.364 8  83037070.200 8  20278457.219
 113775986.938 8  88656681.093 7  21650848.914
 129459882.46946 100877981.20442  24635366.9224                   24635374.3754
 120475509.480 7  93877102.979 6  22925725.422
 128555335.58345 100173035.95242  24463263.3594                   24463272.7934
 112146750.58048  87387177.36246  21340790.3444                   21340794.4414
 119558133.66247  93162286.41044  22751133.3754                   22751139.4654
 11  7 24  3 49 30.0000000  0  8G12G05G25G04G29G26G02G10
 111465434.547 8  86856108.371 7  21211127.086
 106568330.220 8  83040407.487 8  20279272.680
 113759450.940 8  88643795.920 7  21647702.453
 129539944.21946 100940366.99643  24650602.1644                   24650609.0314
 120392952.177 7  93812772.632 6  22910015.734
 128458334.62246 100097450.82443  24444806.1254                   24444815.4534
 112184051.55948  87416243.05246  21347888.0394                   21347893.1684
 119652854.76147  93236095.08844  22769157.5394                   22769164.5664
